<?xml version="1.0" encoding="UTF-8" standalone="no" ?>
<gpx xmlns="http://www.topografix.com/GPX/1/1" xmlns:xsi="http://www.w3.org/2001/XMLSchema-instance" xsi:schemaLocation="http://www.topografix.com/GPX/1/1 http://www.topografix.com/GPX/1/1/gpx.xsd" version="1.1" creator="VisuGPX - https://www.visugpx.com">
  <metadata>
    <name>Cauterêts 03-12-2015</name>
    <desc><![CDATA[1° Sortie Ski]]></desc>
  </metadata>
  <trk>
    <name><![CDATA[Sequence 1]]></name>
    <trkseg>
      <trkpt lat="42.88378" lon="-0.14985">
        <ele>1626</ele>
        <time>2015-12-03T08:19:59Z</time>
      </trkpt>
      <trkpt lat="42.88372" lon="-0.14999">
        <ele>1637</ele>
        <time>2015-12-03T08:20:02Z</time>
      </trkpt>
      <trkpt lat="42.8837" lon="-0.15009">
        <ele>1643</ele>
        <time>2015-12-03T08:20:04Z</time>
      </trkpt>
      <trkpt lat="42.88366" lon="-0.15026">
        <ele>1655</ele>
        <time>2015-12-03T08:20:08Z</time>
      </trkpt>
      <trkpt lat="42.88362" lon="-0.15036">
        <ele>1662</ele>
        <time>2015-12-03T08:20:11Z</time>
      </trkpt>
      <trkpt lat="42.88362" lon="-0.15041">
        <ele>1665</ele>
        <time>2015-12-03T08:20:12Z</time>
      </trkpt>
      <trkpt lat="42.8836" lon="-0.15054">
        <ele>1674</ele>
        <time>2015-12-03T08:20:15Z</time>
      </trkpt>
      <trkpt lat="42.88358" lon="-0.1507">
        <ele>1684</ele>
        <time>2015-12-03T08:20:19Z</time>
      </trkpt>
      <trkpt lat="42.88357" lon="-0.15079">
        <ele>1690</ele>
        <time>2015-12-03T08:20:21Z</time>
      </trkpt>
      <trkpt lat="42.88354" lon="-0.15093">
        <ele>1699</ele>
        <time>2015-12-03T08:20:24Z</time>
      </trkpt>
      <trkpt lat="42.88351" lon="-0.15107">
        <ele>1707</ele>
        <time>2015-12-03T08:20:27Z</time>
      </trkpt>
      <trkpt lat="42.88349" lon="-0.15121">
        <ele>1715</ele>
        <time>2015-12-03T08:20:30Z</time>
      </trkpt>
      <trkpt lat="42.88346" lon="-0.15135">
        <ele>1721</ele>
        <time>2015-12-03T08:20:33Z</time>
      </trkpt>
      <trkpt lat="42.88344" lon="-0.15149">
        <ele>1727</ele>
        <time>2015-12-03T08:20:36Z</time>
      </trkpt>
      <trkpt lat="42.88341" lon="-0.15161">
        <ele>1731</ele>
        <time>2015-12-03T08:20:39Z</time>
      </trkpt>
      <trkpt lat="42.88338" lon="-0.15179">
        <ele>1738</ele>
        <time>2015-12-03T08:20:44Z</time>
      </trkpt>
      <trkpt lat="42.88336" lon="-0.15183">
        <ele>1740</ele>
        <time>2015-12-03T08:20:45Z</time>
      </trkpt>
      <trkpt lat="42.88335" lon="-0.15195">
        <ele>1743</ele>
        <time>2015-12-03T08:20:48Z</time>
      </trkpt>
      <trkpt lat="42.88333" lon="-0.15206">
        <ele>1746</ele>
        <time>2015-12-03T08:20:51Z</time>
      </trkpt>
      <trkpt lat="42.88332" lon="-0.15222">
        <ele>1750</ele>
        <time>2015-12-03T08:20:54Z</time>
      </trkpt>
      <trkpt lat="42.88328" lon="-0.1524">
        <ele>1756</ele>
        <time>2015-12-03T08:20:57Z</time>
      </trkpt>
      <trkpt lat="42.88325" lon="-0.15255">
        <ele>1761</ele>
        <time>2015-12-03T08:21:00Z</time>
      </trkpt>
      <trkpt lat="42.8832" lon="-0.1527">
        <ele>1767</ele>
        <time>2015-12-03T08:21:03Z</time>
      </trkpt>
      <trkpt lat="42.88317" lon="-0.15286">
        <ele>1773</ele>
        <time>2015-12-03T08:21:06Z</time>
      </trkpt>
      <trkpt lat="42.88314" lon="-0.15302">
        <ele>1778</ele>
        <time>2015-12-03T08:21:09Z</time>
      </trkpt>
      <trkpt lat="42.88313" lon="-0.15322">
        <ele>1784</ele>
        <time>2015-12-03T08:21:13Z</time>
      </trkpt>
      <trkpt lat="42.8831" lon="-0.15332">
        <ele>1788</ele>
        <time>2015-12-03T08:21:15Z</time>
      </trkpt>
      <trkpt lat="42.88305" lon="-0.15357">
        <ele>1797</ele>
        <time>2015-12-03T08:21:20Z</time>
      </trkpt>
      <trkpt lat="42.88304" lon="-0.15362">
        <ele>1800</ele>
        <time>2015-12-03T08:21:21Z</time>
      </trkpt>
      <trkpt lat="42.883" lon="-0.15378">
        <ele>1806</ele>
        <time>2015-12-03T08:21:24Z</time>
      </trkpt>
      <trkpt lat="42.88294" lon="-0.15395">
        <ele>1814</ele>
        <time>2015-12-03T08:21:27Z</time>
      </trkpt>
      <trkpt lat="42.88288" lon="-0.15413">
        <ele>1821</ele>
        <time>2015-12-03T08:21:30Z</time>
      </trkpt>
      <trkpt lat="42.88283" lon="-0.1544">
        <ele>1830</ele>
        <time>2015-12-03T08:21:35Z</time>
      </trkpt>
      <trkpt lat="42.88279" lon="-0.15457">
        <ele>1834</ele>
        <time>2015-12-03T08:21:38Z</time>
      </trkpt>
      <trkpt lat="42.88275" lon="-0.15472">
        <ele>1837</ele>
        <time>2015-12-03T08:21:41Z</time>
      </trkpt>
      <trkpt lat="42.88274" lon="-0.15477">
        <ele>1837</ele>
        <time>2015-12-03T08:21:42Z</time>
      </trkpt>
      <trkpt lat="42.88271" lon="-0.15494">
        <ele>1839</ele>
        <time>2015-12-03T08:21:45Z</time>
      </trkpt>
      <trkpt lat="42.88265" lon="-0.15517">
        <ele>1841</ele>
        <time>2015-12-03T08:21:49Z</time>
      </trkpt>
      <trkpt lat="42.88263" lon="-0.15527">
        <ele>1841</ele>
        <time>2015-12-03T08:21:51Z</time>
      </trkpt>
      <trkpt lat="42.88264" lon="-0.1554">
        <ele>1839</ele>
        <time>2015-12-03T08:21:54Z</time>
      </trkpt>
      <trkpt lat="42.88265" lon="-0.15548">
        <ele>1838</ele>
        <time>2015-12-03T08:21:57Z</time>
      </trkpt>
      <trkpt lat="42.88263" lon="-0.15551">
        <ele>1838</ele>
        <time>2015-12-03T08:22:00Z</time>
      </trkpt>
      <trkpt lat="42.88265" lon="-0.15551">
        <ele>1838</ele>
        <time>2015-12-03T08:22:03Z</time>
      </trkpt>
      <trkpt lat="42.88257" lon="-0.15552">
        <ele>1840</ele>
        <time>2015-12-03T08:22:08Z</time>
      </trkpt>
      <trkpt lat="42.88261" lon="-0.15555">
        <ele>1839</ele>
        <time>2015-12-03T08:22:11Z</time>
      </trkpt>
      <trkpt lat="42.88262" lon="-0.15556">
        <ele>1838</ele>
        <time>2015-12-03T08:22:13Z</time>
      </trkpt>
      <trkpt lat="42.88262" lon="-0.15559">
        <ele>1838</ele>
        <time>2015-12-03T08:22:17Z</time>
      </trkpt>
      <trkpt lat="42.88263" lon="-0.15561">
        <ele>1838</ele>
        <time>2015-12-03T08:22:20Z</time>
      </trkpt>
      <trkpt lat="42.88263" lon="-0.15562">
        <ele>1837</ele>
        <time>2015-12-03T08:22:21Z</time>
      </trkpt>
      <trkpt lat="42.88265" lon="-0.15565">
        <ele>1837</ele>
        <time>2015-12-03T08:22:24Z</time>
      </trkpt>
      <trkpt lat="42.88266" lon="-0.15566">
        <ele>1836</ele>
        <time>2015-12-03T08:22:27Z</time>
      </trkpt>
      <trkpt lat="42.88266" lon="-0.15567">
        <ele>1836</ele>
        <time>2015-12-03T08:22:30Z</time>
      </trkpt>
      <trkpt lat="42.88262" lon="-0.15572">
        <ele>1837</ele>
        <time>2015-12-03T08:22:35Z</time>
      </trkpt>
      <trkpt lat="42.88261" lon="-0.15572">
        <ele>1837</ele>
        <time>2015-12-03T08:22:36Z</time>
      </trkpt>
      <trkpt lat="42.88256" lon="-0.15572">
        <ele>1839</ele>
        <time>2015-12-03T08:22:41Z</time>
      </trkpt>
      <trkpt lat="42.88255" lon="-0.15571">
        <ele>1839</ele>
        <time>2015-12-03T08:22:42Z</time>
      </trkpt>
      <trkpt lat="42.88248" lon="-0.15572">
        <ele>1841</ele>
        <time>2015-12-03T08:22:47Z</time>
      </trkpt>
      <trkpt lat="42.88246" lon="-0.15573">
        <ele>1842</ele>
        <time>2015-12-03T08:22:49Z</time>
      </trkpt>
      <trkpt lat="42.88238" lon="-0.15571">
        <ele>1844</ele>
        <time>2015-12-03T08:22:53Z</time>
      </trkpt>
      <trkpt lat="42.88232" lon="-0.1557">
        <ele>1846</ele>
        <time>2015-12-03T08:22:56Z</time>
      </trkpt>
      <trkpt lat="42.8823" lon="-0.15569">
        <ele>1847</ele>
        <time>2015-12-03T08:22:57Z</time>
      </trkpt>
      <trkpt lat="42.88224" lon="-0.15568">
        <ele>1849</ele>
        <time>2015-12-03T08:23:00Z</time>
      </trkpt>
      <trkpt lat="42.88219" lon="-0.15568">
        <ele>1850</ele>
        <time>2015-12-03T08:23:03Z</time>
      </trkpt>
      <trkpt lat="42.88216" lon="-0.1557">
        <ele>1851</ele>
        <time>2015-12-03T08:23:06Z</time>
      </trkpt>
      <trkpt lat="42.88216" lon="-0.15572">
        <ele>1851</ele>
        <time>2015-12-03T08:23:10Z</time>
      </trkpt>
      <trkpt lat="42.88215" lon="-0.15571">
        <ele>1851</ele>
        <time>2015-12-03T08:23:12Z</time>
      </trkpt>
      <trkpt lat="42.88213" lon="-0.1557">
        <ele>1852</ele>
        <time>2015-12-03T08:23:15Z</time>
      </trkpt>
      <trkpt lat="42.88214" lon="-0.15572">
        <ele>1851</ele>
        <time>2015-12-03T08:23:18Z</time>
      </trkpt>
      <trkpt lat="42.88214" lon="-0.15573">
        <ele>1851</ele>
        <time>2015-12-03T08:23:23Z</time>
      </trkpt>
      <trkpt lat="42.88214" lon="-0.15573">
        <ele>1851</ele>
        <time>2015-12-03T08:23:25Z</time>
      </trkpt>
      <trkpt lat="42.88214" lon="-0.15573">
        <ele>1851</ele>
        <time>2015-12-03T08:23:27Z</time>
      </trkpt>
      <trkpt lat="42.88214" lon="-0.15573">
        <ele>1851</ele>
        <time>2015-12-03T08:23:30Z</time>
      </trkpt>
      <trkpt lat="42.88213" lon="-0.15573">
        <ele>1851</ele>
        <time>2015-12-03T08:23:33Z</time>
      </trkpt>
      <trkpt lat="42.88213" lon="-0.15573">
        <ele>1851</ele>
        <time>2015-12-03T08:23:36Z</time>
      </trkpt>
      <trkpt lat="42.88209" lon="-0.15577">
        <ele>1852</ele>
        <time>2015-12-03T08:23:39Z</time>
      </trkpt>
      <trkpt lat="42.88209" lon="-0.15595">
        <ele>1850</ele>
        <time>2015-12-03T08:23:42Z</time>
      </trkpt>
      <trkpt lat="42.88217" lon="-0.15617">
        <ele>1846</ele>
        <time>2015-12-03T08:23:45Z</time>
      </trkpt>
      <trkpt lat="42.88273" lon="-0.15649">
        <ele>1825</ele>
        <time>2015-12-03T08:23:56Z</time>
      </trkpt>
      <trkpt lat="42.88277" lon="-0.15647">
        <ele>1824</ele>
        <time>2015-12-03T08:23:57Z</time>
      </trkpt>
      <trkpt lat="42.88277" lon="-0.1565">
        <ele>1824</ele>
        <time>2015-12-03T08:24:00Z</time>
      </trkpt>
      <trkpt lat="42.88277" lon="-0.15653">
        <ele>1823</ele>
        <time>2015-12-03T08:24:03Z</time>
      </trkpt>
      <trkpt lat="42.8828" lon="-0.15645">
        <ele>1823</ele>
        <time>2015-12-03T08:24:06Z</time>
      </trkpt>
      <trkpt lat="42.88285" lon="-0.1563">
        <ele>1823</ele>
        <time>2015-12-03T08:24:09Z</time>
      </trkpt>
      <trkpt lat="42.88339" lon="-0.15515">
        <ele>1814</ele>
        <time>2015-12-03T08:24:27Z</time>
      </trkpt>
      <trkpt lat="42.88406" lon="-0.15588">
        <ele>1790</ele>
        <time>2015-12-03T08:24:45Z</time>
      </trkpt>
      <trkpt lat="42.88531" lon="-0.1528">
        <ele>1737</ele>
        <time>2015-12-03T08:25:27Z</time>
      </trkpt>
      <trkpt lat="42.88531" lon="-0.15283">
        <ele>1737</ele>
        <time>2015-12-03T08:25:30Z</time>
      </trkpt>
      <trkpt lat="42.88532" lon="-0.15284">
        <ele>1737</ele>
        <time>2015-12-03T08:25:33Z</time>
      </trkpt>
      <trkpt lat="42.88533" lon="-0.15286">
        <ele>1737</ele>
        <time>2015-12-03T08:25:37Z</time>
      </trkpt>
      <trkpt lat="42.8853" lon="-0.15301">
        <ele>1739</ele>
        <time>2015-12-03T08:25:41Z</time>
      </trkpt>
      <trkpt lat="42.88529" lon="-0.15308">
        <ele>1740</ele>
        <time>2015-12-03T08:25:43Z</time>
      </trkpt>
      <trkpt lat="42.88527" lon="-0.15324">
        <ele>1743</ele>
        <time>2015-12-03T08:25:46Z</time>
      </trkpt>
      <trkpt lat="42.88525" lon="-0.15334">
        <ele>1744</ele>
        <time>2015-12-03T08:25:48Z</time>
      </trkpt>
      <trkpt lat="42.88524" lon="-0.15348">
        <ele>1745</ele>
        <time>2015-12-03T08:25:51Z</time>
      </trkpt>
      <trkpt lat="42.88521" lon="-0.15367">
        <ele>1746</ele>
        <time>2015-12-03T08:25:55Z</time>
      </trkpt>
      <trkpt lat="42.88518" lon="-0.15386">
        <ele>1747</ele>
        <time>2015-12-03T08:25:59Z</time>
      </trkpt>
      <trkpt lat="42.88517" lon="-0.15391">
        <ele>1748</ele>
        <time>2015-12-03T08:26:00Z</time>
      </trkpt>
      <trkpt lat="42.88515" lon="-0.15405">
        <ele>1750</ele>
        <time>2015-12-03T08:26:03Z</time>
      </trkpt>
      <trkpt lat="42.88513" lon="-0.1542">
        <ele>1751</ele>
        <time>2015-12-03T08:26:06Z</time>
      </trkpt>
      <trkpt lat="42.88511" lon="-0.15435">
        <ele>1753</ele>
        <time>2015-12-03T08:26:09Z</time>
      </trkpt>
      <trkpt lat="42.88508" lon="-0.1545">
        <ele>1756</ele>
        <time>2015-12-03T08:26:12Z</time>
      </trkpt>
      <trkpt lat="42.88506" lon="-0.15464">
        <ele>1759</ele>
        <time>2015-12-03T08:26:15Z</time>
      </trkpt>
      <trkpt lat="42.88504" lon="-0.15478">
        <ele>1761</ele>
        <time>2015-12-03T08:26:18Z</time>
      </trkpt>
      <trkpt lat="42.885" lon="-0.15501">
        <ele>1763</ele>
        <time>2015-12-03T08:26:23Z</time>
      </trkpt>
      <trkpt lat="42.88499" lon="-0.15505">
        <ele>1763</ele>
        <time>2015-12-03T08:26:24Z</time>
      </trkpt>
      <trkpt lat="42.88497" lon="-0.15519">
        <ele>1764</ele>
        <time>2015-12-03T08:26:27Z</time>
      </trkpt>
      <trkpt lat="42.88495" lon="-0.15532">
        <ele>1766</ele>
        <time>2015-12-03T08:26:30Z</time>
      </trkpt>
      <trkpt lat="42.88494" lon="-0.15545">
        <ele>1769</ele>
        <time>2015-12-03T08:26:33Z</time>
      </trkpt>
      <trkpt lat="42.88493" lon="-0.15557">
        <ele>1773</ele>
        <time>2015-12-03T08:26:36Z</time>
      </trkpt>
      <trkpt lat="42.88492" lon="-0.15567">
        <ele>1777</ele>
        <time>2015-12-03T08:26:38Z</time>
      </trkpt>
      <trkpt lat="42.8849" lon="-0.15581">
        <ele>1783</ele>
        <time>2015-12-03T08:26:41Z</time>
      </trkpt>
      <trkpt lat="42.88489" lon="-0.15591">
        <ele>1788</ele>
        <time>2015-12-03T08:26:43Z</time>
      </trkpt>
      <trkpt lat="42.88487" lon="-0.15605">
        <ele>1794</ele>
        <time>2015-12-03T08:26:46Z</time>
      </trkpt>
      <trkpt lat="42.88485" lon="-0.15615">
        <ele>1799</ele>
        <time>2015-12-03T08:26:48Z</time>
      </trkpt>
      <trkpt lat="42.88483" lon="-0.15628">
        <ele>1804</ele>
        <time>2015-12-03T08:26:51Z</time>
      </trkpt>
      <trkpt lat="42.88482" lon="-0.15637">
        <ele>1807</ele>
        <time>2015-12-03T08:26:53Z</time>
      </trkpt>
      <trkpt lat="42.8848" lon="-0.15651">
        <ele>1812</ele>
        <time>2015-12-03T08:26:56Z</time>
      </trkpt>
      <trkpt lat="42.88479" lon="-0.15665">
        <ele>1816</ele>
        <time>2015-12-03T08:26:59Z</time>
      </trkpt>
      <trkpt lat="42.88477" lon="-0.15682">
        <ele>1822</ele>
        <time>2015-12-03T08:27:03Z</time>
      </trkpt>
      <trkpt lat="42.88476" lon="-0.15691">
        <ele>1825</ele>
        <time>2015-12-03T08:27:05Z</time>
      </trkpt>
      <trkpt lat="42.88474" lon="-0.15709">
        <ele>1830</ele>
        <time>2015-12-03T08:27:09Z</time>
      </trkpt>
      <trkpt lat="42.88473" lon="-0.15717">
        <ele>1833</ele>
        <time>2015-12-03T08:27:11Z</time>
      </trkpt>
      <trkpt lat="42.88471" lon="-0.15731">
        <ele>1837</ele>
        <time>2015-12-03T08:27:14Z</time>
      </trkpt>
      <trkpt lat="42.88468" lon="-0.15745">
        <ele>1840</ele>
        <time>2015-12-03T08:27:17Z</time>
      </trkpt>
      <trkpt lat="42.88466" lon="-0.15758">
        <ele>1844</ele>
        <time>2015-12-03T08:27:20Z</time>
      </trkpt>
      <trkpt lat="42.88464" lon="-0.15772">
        <ele>1847</ele>
        <time>2015-12-03T08:27:23Z</time>
      </trkpt>
      <trkpt lat="42.88462" lon="-0.15785">
        <ele>1851</ele>
        <time>2015-12-03T08:27:26Z</time>
      </trkpt>
      <trkpt lat="42.8846" lon="-0.15799">
        <ele>1855</ele>
        <time>2015-12-03T08:27:29Z</time>
      </trkpt>
      <trkpt lat="42.88457" lon="-0.15812">
        <ele>1859</ele>
        <time>2015-12-03T08:27:32Z</time>
      </trkpt>
      <trkpt lat="42.88456" lon="-0.15825">
        <ele>1864</ele>
        <time>2015-12-03T08:27:35Z</time>
      </trkpt>
      <trkpt lat="42.88455" lon="-0.15839">
        <ele>1869</ele>
        <time>2015-12-03T08:27:38Z</time>
      </trkpt>
      <trkpt lat="42.88453" lon="-0.15848">
        <ele>1872</ele>
        <time>2015-12-03T08:27:40Z</time>
      </trkpt>
      <trkpt lat="42.88452" lon="-0.15861">
        <ele>1877</ele>
        <time>2015-12-03T08:27:43Z</time>
      </trkpt>
      <trkpt lat="42.88451" lon="-0.1587">
        <ele>1880</ele>
        <time>2015-12-03T08:27:45Z</time>
      </trkpt>
      <trkpt lat="42.88448" lon="-0.15892">
        <ele>1887</ele>
        <time>2015-12-03T08:27:50Z</time>
      </trkpt>
      <trkpt lat="42.88447" lon="-0.15896">
        <ele>1888</ele>
        <time>2015-12-03T08:27:51Z</time>
      </trkpt>
      <trkpt lat="42.88444" lon="-0.15912">
        <ele>1893</ele>
        <time>2015-12-03T08:27:55Z</time>
      </trkpt>
      <trkpt lat="42.88442" lon="-0.15923">
        <ele>1896</ele>
        <time>2015-12-03T08:27:57Z</time>
      </trkpt>
      <trkpt lat="42.88441" lon="-0.15932">
        <ele>1899</ele>
        <time>2015-12-03T08:27:59Z</time>
      </trkpt>
      <trkpt lat="42.88439" lon="-0.15945">
        <ele>1903</ele>
        <time>2015-12-03T08:28:02Z</time>
      </trkpt>
      <trkpt lat="42.88438" lon="-0.15954">
        <ele>1907</ele>
        <time>2015-12-03T08:28:04Z</time>
      </trkpt>
      <trkpt lat="42.88437" lon="-0.15967">
        <ele>1911</ele>
        <time>2015-12-03T08:28:07Z</time>
      </trkpt>
      <trkpt lat="42.88436" lon="-0.15981">
        <ele>1917</ele>
        <time>2015-12-03T08:28:10Z</time>
      </trkpt>
      <trkpt lat="42.88434" lon="-0.15995">
        <ele>1923</ele>
        <time>2015-12-03T08:28:13Z</time>
      </trkpt>
      <trkpt lat="42.88433" lon="-0.16003">
        <ele>1927</ele>
        <time>2015-12-03T08:28:15Z</time>
      </trkpt>
      <trkpt lat="42.88428" lon="-0.16027">
        <ele>1936</ele>
        <time>2015-12-03T08:28:20Z</time>
      </trkpt>
      <trkpt lat="42.88427" lon="-0.16031">
        <ele>1938</ele>
        <time>2015-12-03T08:28:21Z</time>
      </trkpt>
      <trkpt lat="42.88425" lon="-0.16044">
        <ele>1942</ele>
        <time>2015-12-03T08:28:24Z</time>
      </trkpt>
      <trkpt lat="42.88423" lon="-0.16056">
        <ele>1947</ele>
        <time>2015-12-03T08:28:27Z</time>
      </trkpt>
      <trkpt lat="42.88421" lon="-0.16069">
        <ele>1951</ele>
        <time>2015-12-03T08:28:30Z</time>
      </trkpt>
      <trkpt lat="42.88419" lon="-0.16082">
        <ele>1955</ele>
        <time>2015-12-03T08:28:33Z</time>
      </trkpt>
      <trkpt lat="42.88417" lon="-0.16095">
        <ele>1958</ele>
        <time>2015-12-03T08:28:36Z</time>
      </trkpt>
      <trkpt lat="42.88414" lon="-0.16108">
        <ele>1962</ele>
        <time>2015-12-03T08:28:39Z</time>
      </trkpt>
      <trkpt lat="42.88413" lon="-0.16121">
        <ele>1965</ele>
        <time>2015-12-03T08:28:42Z</time>
      </trkpt>
      <trkpt lat="42.88411" lon="-0.16129">
        <ele>1968</ele>
        <time>2015-12-03T08:28:44Z</time>
      </trkpt>
      <trkpt lat="42.8841" lon="-0.16137">
        <ele>1970</ele>
        <time>2015-12-03T08:28:46Z</time>
      </trkpt>
      <trkpt lat="42.8841" lon="-0.16151">
        <ele>1974</ele>
        <time>2015-12-03T08:28:49Z</time>
      </trkpt>
      <trkpt lat="42.88406" lon="-0.1617">
        <ele>1981</ele>
        <time>2015-12-03T08:28:53Z</time>
      </trkpt>
      <trkpt lat="42.88406" lon="-0.16175">
        <ele>1983</ele>
        <time>2015-12-03T08:28:54Z</time>
      </trkpt>
      <trkpt lat="42.88404" lon="-0.16184">
        <ele>1986</ele>
        <time>2015-12-03T08:28:56Z</time>
      </trkpt>
      <trkpt lat="42.88401" lon="-0.16202">
        <ele>1992</ele>
        <time>2015-12-03T08:29:00Z</time>
      </trkpt>
      <trkpt lat="42.884" lon="-0.16211">
        <ele>1995</ele>
        <time>2015-12-03T08:29:02Z</time>
      </trkpt>
      <trkpt lat="42.88399" lon="-0.16219">
        <ele>1998</ele>
        <time>2015-12-03T08:29:04Z</time>
      </trkpt>
      <trkpt lat="42.88397" lon="-0.16233">
        <ele>2001</ele>
        <time>2015-12-03T08:29:07Z</time>
      </trkpt>
      <trkpt lat="42.88396" lon="-0.16241">
        <ele>2003</ele>
        <time>2015-12-03T08:29:09Z</time>
      </trkpt>
      <trkpt lat="42.88395" lon="-0.16254">
        <ele>2006</ele>
        <time>2015-12-03T08:29:12Z</time>
      </trkpt>
      <trkpt lat="42.88393" lon="-0.16267">
        <ele>2010</ele>
        <time>2015-12-03T08:29:15Z</time>
      </trkpt>
      <trkpt lat="42.88392" lon="-0.1628">
        <ele>2013</ele>
        <time>2015-12-03T08:29:18Z</time>
      </trkpt>
      <trkpt lat="42.88388" lon="-0.16302">
        <ele>2020</ele>
        <time>2015-12-03T08:29:23Z</time>
      </trkpt>
      <trkpt lat="42.88386" lon="-0.16317">
        <ele>2024</ele>
        <time>2015-12-03T08:29:26Z</time>
      </trkpt>
      <trkpt lat="42.88385" lon="-0.16321">
        <ele>2026</ele>
        <time>2015-12-03T08:29:27Z</time>
      </trkpt>
      <trkpt lat="42.88383" lon="-0.16331">
        <ele>2029</ele>
        <time>2015-12-03T08:29:29Z</time>
      </trkpt>
      <trkpt lat="42.8838" lon="-0.16345">
        <ele>2034</ele>
        <time>2015-12-03T08:29:32Z</time>
      </trkpt>
      <trkpt lat="42.88378" lon="-0.16368">
        <ele>2040</ele>
        <time>2015-12-03T08:29:37Z</time>
      </trkpt>
      <trkpt lat="42.88377" lon="-0.16372">
        <ele>2042</ele>
        <time>2015-12-03T08:29:38Z</time>
      </trkpt>
      <trkpt lat="42.88376" lon="-0.16386">
        <ele>2045</ele>
        <time>2015-12-03T08:29:41Z</time>
      </trkpt>
      <trkpt lat="42.88374" lon="-0.16399">
        <ele>2049</ele>
        <time>2015-12-03T08:29:44Z</time>
      </trkpt>
      <trkpt lat="42.88372" lon="-0.16408">
        <ele>2051</ele>
        <time>2015-12-03T08:29:46Z</time>
      </trkpt>
      <trkpt lat="42.88371" lon="-0.16422">
        <ele>2054</ele>
        <time>2015-12-03T08:29:49Z</time>
      </trkpt>
      <trkpt lat="42.88369" lon="-0.16431">
        <ele>2056</ele>
        <time>2015-12-03T08:29:51Z</time>
      </trkpt>
      <trkpt lat="42.88367" lon="-0.16444">
        <ele>2059</ele>
        <time>2015-12-03T08:29:54Z</time>
      </trkpt>
      <trkpt lat="42.88365" lon="-0.16457">
        <ele>2062</ele>
        <time>2015-12-03T08:29:57Z</time>
      </trkpt>
      <trkpt lat="42.88362" lon="-0.16471">
        <ele>2066</ele>
        <time>2015-12-03T08:30:00Z</time>
      </trkpt>
      <trkpt lat="42.88361" lon="-0.16483">
        <ele>2069</ele>
        <time>2015-12-03T08:30:03Z</time>
      </trkpt>
      <trkpt lat="42.88359" lon="-0.16492">
        <ele>2071</ele>
        <time>2015-12-03T08:30:05Z</time>
      </trkpt>
      <trkpt lat="42.88357" lon="-0.16505">
        <ele>2075</ele>
        <time>2015-12-03T08:30:08Z</time>
      </trkpt>
      <trkpt lat="42.88355" lon="-0.16515">
        <ele>2077</ele>
        <time>2015-12-03T08:30:10Z</time>
      </trkpt>
      <trkpt lat="42.88353" lon="-0.16528">
        <ele>2081</ele>
        <time>2015-12-03T08:30:13Z</time>
      </trkpt>
      <trkpt lat="42.88352" lon="-0.16537">
        <ele>2083</ele>
        <time>2015-12-03T08:30:15Z</time>
      </trkpt>
      <trkpt lat="42.8835" lon="-0.16551">
        <ele>2086</ele>
        <time>2015-12-03T08:30:18Z</time>
      </trkpt>
      <trkpt lat="42.88348" lon="-0.16565">
        <ele>2088</ele>
        <time>2015-12-03T08:30:21Z</time>
      </trkpt>
      <trkpt lat="42.88346" lon="-0.1658">
        <ele>2092</ele>
        <time>2015-12-03T08:30:24Z</time>
      </trkpt>
      <trkpt lat="42.88344" lon="-0.16594">
        <ele>2095</ele>
        <time>2015-12-03T08:30:27Z</time>
      </trkpt>
      <trkpt lat="42.88342" lon="-0.16608">
        <ele>2099</ele>
        <time>2015-12-03T08:30:30Z</time>
      </trkpt>
      <trkpt lat="42.88341" lon="-0.16621">
        <ele>2103</ele>
        <time>2015-12-03T08:30:33Z</time>
      </trkpt>
      <trkpt lat="42.88339" lon="-0.16635">
        <ele>2106</ele>
        <time>2015-12-03T08:30:36Z</time>
      </trkpt>
      <trkpt lat="42.88336" lon="-0.16649">
        <ele>2111</ele>
        <time>2015-12-03T08:30:39Z</time>
      </trkpt>
      <trkpt lat="42.88335" lon="-0.16659">
        <ele>2114</ele>
        <time>2015-12-03T08:30:41Z</time>
      </trkpt>
      <trkpt lat="42.88332" lon="-0.16672">
        <ele>2118</ele>
        <time>2015-12-03T08:30:44Z</time>
      </trkpt>
      <trkpt lat="42.88331" lon="-0.16686">
        <ele>2121</ele>
        <time>2015-12-03T08:30:47Z</time>
      </trkpt>
      <trkpt lat="42.88328" lon="-0.16705">
        <ele>2125</ele>
        <time>2015-12-03T08:30:51Z</time>
      </trkpt>
      <trkpt lat="42.88327" lon="-0.16714">
        <ele>2126</ele>
        <time>2015-12-03T08:30:53Z</time>
      </trkpt>
      <trkpt lat="42.88322" lon="-0.16737">
        <ele>2129</ele>
        <time>2015-12-03T08:30:58Z</time>
      </trkpt>
      <trkpt lat="42.88322" lon="-0.16742">
        <ele>2129</ele>
        <time>2015-12-03T08:30:59Z</time>
      </trkpt>
      <trkpt lat="42.8832" lon="-0.16756">
        <ele>2131</ele>
        <time>2015-12-03T08:31:02Z</time>
      </trkpt>
      <trkpt lat="42.88318" lon="-0.16766">
        <ele>2132</ele>
        <time>2015-12-03T08:31:04Z</time>
      </trkpt>
      <trkpt lat="42.88316" lon="-0.16779">
        <ele>2135</ele>
        <time>2015-12-03T08:31:07Z</time>
      </trkpt>
      <trkpt lat="42.88307" lon="-0.16803">
        <ele>2141</ele>
        <time>2015-12-03T08:31:11Z</time>
      </trkpt>
      <trkpt lat="42.88305" lon="-0.16811">
        <ele>2143</ele>
        <time>2015-12-03T08:31:13Z</time>
      </trkpt>
      <trkpt lat="42.88303" lon="-0.16835">
        <ele>2149</ele>
        <time>2015-12-03T08:31:18Z</time>
      </trkpt>
      <trkpt lat="42.88302" lon="-0.16849">
        <ele>2152</ele>
        <time>2015-12-03T08:31:21Z</time>
      </trkpt>
      <trkpt lat="42.88301" lon="-0.16854">
        <ele>2154</ele>
        <time>2015-12-03T08:31:22Z</time>
      </trkpt>
      <trkpt lat="42.88298" lon="-0.16872">
        <ele>2158</ele>
        <time>2015-12-03T08:31:26Z</time>
      </trkpt>
      <trkpt lat="42.88297" lon="-0.16882">
        <ele>2161</ele>
        <time>2015-12-03T08:31:28Z</time>
      </trkpt>
      <trkpt lat="42.88296" lon="-0.1689">
        <ele>2163</ele>
        <time>2015-12-03T08:31:30Z</time>
      </trkpt>
      <trkpt lat="42.88293" lon="-0.16914">
        <ele>2168</ele>
        <time>2015-12-03T08:31:35Z</time>
      </trkpt>
      <trkpt lat="42.88292" lon="-0.16923">
        <ele>2170</ele>
        <time>2015-12-03T08:31:37Z</time>
      </trkpt>
      <trkpt lat="42.8829" lon="-0.16937">
        <ele>2173</ele>
        <time>2015-12-03T08:31:40Z</time>
      </trkpt>
      <trkpt lat="42.8829" lon="-0.16941">
        <ele>2174</ele>
        <time>2015-12-03T08:31:41Z</time>
      </trkpt>
      <trkpt lat="42.88289" lon="-0.16954">
        <ele>2177</ele>
        <time>2015-12-03T08:31:44Z</time>
      </trkpt>
      <trkpt lat="42.88286" lon="-0.16972">
        <ele>2181</ele>
        <time>2015-12-03T08:31:48Z</time>
      </trkpt>
      <trkpt lat="42.88285" lon="-0.16976">
        <ele>2182</ele>
        <time>2015-12-03T08:31:49Z</time>
      </trkpt>
      <trkpt lat="42.88284" lon="-0.16989">
        <ele>2185</ele>
        <time>2015-12-03T08:31:52Z</time>
      </trkpt>
      <trkpt lat="42.88283" lon="-0.16996">
        <ele>2187</ele>
        <time>2015-12-03T08:31:54Z</time>
      </trkpt>
      <trkpt lat="42.88282" lon="-0.17009">
        <ele>2191</ele>
        <time>2015-12-03T08:31:57Z</time>
      </trkpt>
      <trkpt lat="42.88279" lon="-0.17023">
        <ele>2194</ele>
        <time>2015-12-03T08:32:00Z</time>
      </trkpt>
      <trkpt lat="42.88275" lon="-0.17048">
        <ele>2201</ele>
        <time>2015-12-03T08:32:05Z</time>
      </trkpt>
      <trkpt lat="42.88272" lon="-0.17061">
        <ele>2205</ele>
        <time>2015-12-03T08:32:08Z</time>
      </trkpt>
      <trkpt lat="42.8827" lon="-0.17075">
        <ele>2209</ele>
        <time>2015-12-03T08:32:11Z</time>
      </trkpt>
      <trkpt lat="42.88268" lon="-0.1708">
        <ele>2210</ele>
        <time>2015-12-03T08:32:12Z</time>
      </trkpt>
      <trkpt lat="42.88264" lon="-0.17105">
        <ele>2217</ele>
        <time>2015-12-03T08:32:17Z</time>
      </trkpt>
      <trkpt lat="42.88263" lon="-0.1711">
        <ele>2219</ele>
        <time>2015-12-03T08:32:18Z</time>
      </trkpt>
      <trkpt lat="42.88261" lon="-0.17124">
        <ele>2223</ele>
        <time>2015-12-03T08:32:21Z</time>
      </trkpt>
      <trkpt lat="42.88259" lon="-0.17141">
        <ele>2227</ele>
        <time>2015-12-03T08:32:25Z</time>
      </trkpt>
      <trkpt lat="42.88257" lon="-0.1715">
        <ele>2229</ele>
        <time>2015-12-03T08:32:27Z</time>
      </trkpt>
      <trkpt lat="42.88255" lon="-0.17164">
        <ele>2233</ele>
        <time>2015-12-03T08:32:30Z</time>
      </trkpt>
      <trkpt lat="42.88253" lon="-0.17178">
        <ele>2236</ele>
        <time>2015-12-03T08:32:33Z</time>
      </trkpt>
      <trkpt lat="42.88251" lon="-0.17196">
        <ele>2240</ele>
        <time>2015-12-03T08:32:37Z</time>
      </trkpt>
      <trkpt lat="42.88249" lon="-0.17205">
        <ele>2243</ele>
        <time>2015-12-03T08:32:39Z</time>
      </trkpt>
      <trkpt lat="42.88248" lon="-0.17214">
        <ele>2246</ele>
        <time>2015-12-03T08:32:41Z</time>
      </trkpt>
      <trkpt lat="42.88247" lon="-0.17228">
        <ele>2251</ele>
        <time>2015-12-03T08:32:44Z</time>
      </trkpt>
      <trkpt lat="42.88245" lon="-0.17242">
        <ele>2255</ele>
        <time>2015-12-03T08:32:47Z</time>
      </trkpt>
      <trkpt lat="42.88243" lon="-0.17255">
        <ele>2259</ele>
        <time>2015-12-03T08:32:50Z</time>
      </trkpt>
      <trkpt lat="42.88242" lon="-0.17268">
        <ele>2263</ele>
        <time>2015-12-03T08:32:53Z</time>
      </trkpt>
      <trkpt lat="42.88241" lon="-0.17277">
        <ele>2266</ele>
        <time>2015-12-03T08:32:55Z</time>
      </trkpt>
      <trkpt lat="42.88239" lon="-0.1729">
        <ele>2270</ele>
        <time>2015-12-03T08:32:58Z</time>
      </trkpt>
      <trkpt lat="42.88238" lon="-0.17303">
        <ele>2275</ele>
        <time>2015-12-03T08:33:01Z</time>
      </trkpt>
      <trkpt lat="42.88237" lon="-0.17315">
        <ele>2280</ele>
        <time>2015-12-03T08:33:04Z</time>
      </trkpt>
      <trkpt lat="42.88235" lon="-0.17329">
        <ele>2285</ele>
        <time>2015-12-03T08:33:07Z</time>
      </trkpt>
      <trkpt lat="42.88233" lon="-0.17342">
        <ele>2291</ele>
        <time>2015-12-03T08:33:10Z</time>
      </trkpt>
      <trkpt lat="42.88232" lon="-0.17355">
        <ele>2296</ele>
        <time>2015-12-03T08:33:13Z</time>
      </trkpt>
      <trkpt lat="42.8823" lon="-0.17369">
        <ele>2302</ele>
        <time>2015-12-03T08:33:16Z</time>
      </trkpt>
      <trkpt lat="42.88228" lon="-0.17381">
        <ele>2307</ele>
        <time>2015-12-03T08:33:19Z</time>
      </trkpt>
      <trkpt lat="42.88226" lon="-0.17394">
        <ele>2311</ele>
        <time>2015-12-03T08:33:22Z</time>
      </trkpt>
      <trkpt lat="42.88226" lon="-0.17402">
        <ele>2314</ele>
        <time>2015-12-03T08:33:24Z</time>
      </trkpt>
      <trkpt lat="42.88225" lon="-0.17413">
        <ele>2318</ele>
        <time>2015-12-03T08:33:27Z</time>
      </trkpt>
      <trkpt lat="42.88223" lon="-0.17426">
        <ele>2322</ele>
        <time>2015-12-03T08:33:30Z</time>
      </trkpt>
      <trkpt lat="42.88222" lon="-0.17431">
        <ele>2324</ele>
        <time>2015-12-03T08:33:33Z</time>
      </trkpt>
      <trkpt lat="42.88221" lon="-0.17433">
        <ele>2325</ele>
        <time>2015-12-03T08:33:36Z</time>
      </trkpt>
      <trkpt lat="42.88222" lon="-0.17435">
        <ele>2325</ele>
        <time>2015-12-03T08:33:39Z</time>
      </trkpt>
      <trkpt lat="42.8822" lon="-0.17436">
        <ele>2326</ele>
        <time>2015-12-03T08:33:43Z</time>
      </trkpt>
      <trkpt lat="42.88205" lon="-0.17434">
        <ele>2329</ele>
        <time>2015-12-03T08:33:47Z</time>
      </trkpt>
      <trkpt lat="42.88197" lon="-0.17423">
        <ele>2328</ele>
        <time>2015-12-03T08:33:50Z</time>
      </trkpt>
      <trkpt lat="42.88187" lon="-0.17414">
        <ele>2325</ele>
        <time>2015-12-03T08:33:53Z</time>
      </trkpt>
      <trkpt lat="42.8818" lon="-0.17407">
        <ele>2323</ele>
        <time>2015-12-03T08:33:55Z</time>
      </trkpt>
      <trkpt lat="42.88174" lon="-0.17395">
        <ele>2321</ele>
        <time>2015-12-03T08:33:57Z</time>
      </trkpt>
      <trkpt lat="42.88159" lon="-0.17387">
        <ele>2313</ele>
        <time>2015-12-03T08:34:00Z</time>
      </trkpt>
      <trkpt lat="42.88099" lon="-0.1728">
        <ele>2279</ele>
        <time>2015-12-03T08:34:16Z</time>
      </trkpt>
      <trkpt lat="42.8811" lon="-0.17286">
        <ele>2284</ele>
        <time>2015-12-03T08:34:18Z</time>
      </trkpt>
      <trkpt lat="42.882" lon="-0.17318">
        <ele>2293</ele>
        <time>2015-12-03T08:34:33Z</time>
      </trkpt>
      <trkpt lat="42.882" lon="-0.17317">
        <ele>2293</ele>
        <time>2015-12-03T08:34:37Z</time>
      </trkpt>
      <trkpt lat="42.88199" lon="-0.17316">
        <ele>2292</ele>
        <time>2015-12-03T08:34:39Z</time>
      </trkpt>
      <trkpt lat="42.88199" lon="-0.17315">
        <ele>2292</ele>
        <time>2015-12-03T08:34:42Z</time>
      </trkpt>
      <trkpt lat="42.88199" lon="-0.17315">
        <ele>2292</ele>
        <time>2015-12-03T08:34:45Z</time>
      </trkpt>
      <trkpt lat="42.88199" lon="-0.17314">
        <ele>2291</ele>
        <time>2015-12-03T08:34:48Z</time>
      </trkpt>
      <trkpt lat="42.88199" lon="-0.17314">
        <ele>2291</ele>
        <time>2015-12-03T08:34:55Z</time>
      </trkpt>
      <trkpt lat="42.882" lon="-0.17315">
        <ele>2292</ele>
        <time>2015-12-03T08:34:58Z</time>
      </trkpt>
      <trkpt lat="42.882" lon="-0.17316">
        <ele>2292</ele>
        <time>2015-12-03T08:34:59Z</time>
      </trkpt>
      <trkpt lat="42.882" lon="-0.17316">
        <ele>2292</ele>
        <time>2015-12-03T08:35:02Z</time>
      </trkpt>
      <trkpt lat="42.88199" lon="-0.17316">
        <ele>2292</ele>
        <time>2015-12-03T08:35:05Z</time>
      </trkpt>
      <trkpt lat="42.882" lon="-0.17317">
        <ele>2292</ele>
        <time>2015-12-03T08:35:10Z</time>
      </trkpt>
      <trkpt lat="42.882" lon="-0.17316">
        <ele>2292</ele>
        <time>2015-12-03T08:35:12Z</time>
      </trkpt>
      <trkpt lat="42.88198" lon="-0.17316">
        <ele>2292</ele>
        <time>2015-12-03T08:35:16Z</time>
      </trkpt>
      <trkpt lat="42.88198" lon="-0.17315">
        <ele>2293</ele>
        <time>2015-12-03T08:35:17Z</time>
      </trkpt>
      <trkpt lat="42.88198" lon="-0.17315">
        <ele>2293</ele>
        <time>2015-12-03T08:35:21Z</time>
      </trkpt>
      <trkpt lat="42.88198" lon="-0.17315">
        <ele>2293</ele>
        <time>2015-12-03T08:35:23Z</time>
      </trkpt>
      <trkpt lat="42.88197" lon="-0.17315">
        <ele>2292</ele>
        <time>2015-12-03T08:35:26Z</time>
      </trkpt>
      <trkpt lat="42.88198" lon="-0.17315">
        <ele>2292</ele>
        <time>2015-12-03T08:35:30Z</time>
      </trkpt>
      <trkpt lat="42.88198" lon="-0.17314">
        <ele>2292</ele>
        <time>2015-12-03T08:35:32Z</time>
      </trkpt>
      <trkpt lat="42.88198" lon="-0.17312">
        <ele>2291</ele>
        <time>2015-12-03T08:35:36Z</time>
      </trkpt>
      <trkpt lat="42.882" lon="-0.1731">
        <ele>2289</ele>
        <time>2015-12-03T08:35:38Z</time>
      </trkpt>
      <trkpt lat="42.882" lon="-0.17295">
        <ele>2282</ele>
        <time>2015-12-03T08:35:41Z</time>
      </trkpt>
      <trkpt lat="42.88252" lon="-0.16141">
        <ele>1967</ele>
        <time>2015-12-03T08:38:01Z</time>
      </trkpt>
      <trkpt lat="42.88235" lon="-0.16151">
        <ele>1963</ele>
        <time>2015-12-03T08:38:04Z</time>
      </trkpt>
      <trkpt lat="42.88202" lon="-0.16156">
        <ele>1951</ele>
        <time>2015-12-03T08:38:11Z</time>
      </trkpt>
      <trkpt lat="42.882" lon="-0.16155">
        <ele>1950</ele>
        <time>2015-12-03T08:38:14Z</time>
      </trkpt>
      <trkpt lat="42.88198" lon="-0.16153">
        <ele>1948</ele>
        <time>2015-12-03T08:38:17Z</time>
      </trkpt>
      <trkpt lat="42.88197" lon="-0.16151">
        <ele>1948</ele>
        <time>2015-12-03T08:38:20Z</time>
      </trkpt>
      <trkpt lat="42.88196" lon="-0.16151">
        <ele>1947</ele>
        <time>2015-12-03T08:38:23Z</time>
      </trkpt>
      <trkpt lat="42.88196" lon="-0.16151">
        <ele>1947</ele>
        <time>2015-12-03T08:38:26Z</time>
      </trkpt>
      <trkpt lat="42.8819" lon="-0.16155">
        <ele>1946</ele>
        <time>2015-12-03T08:38:30Z</time>
      </trkpt>
      <trkpt lat="42.88184" lon="-0.16162">
        <ele>1947</ele>
        <time>2015-12-03T08:38:32Z</time>
      </trkpt>
      <trkpt lat="42.881" lon="-0.16019">
        <ele>1885</ele>
        <time>2015-12-03T08:38:55Z</time>
      </trkpt>
      <trkpt lat="42.88526" lon="-0.15323">
        <ele>1743</ele>
        <time>2015-12-03T08:40:42Z</time>
      </trkpt>
      <trkpt lat="42.88524" lon="-0.15336">
        <ele>1745</ele>
        <time>2015-12-03T08:40:45Z</time>
      </trkpt>
      <trkpt lat="42.88522" lon="-0.15345">
        <ele>1746</ele>
        <time>2015-12-03T08:40:47Z</time>
      </trkpt>
      <trkpt lat="42.8852" lon="-0.15359">
        <ele>1746</ele>
        <time>2015-12-03T08:40:50Z</time>
      </trkpt>
      <trkpt lat="42.88517" lon="-0.15379">
        <ele>1747</ele>
        <time>2015-12-03T08:40:54Z</time>
      </trkpt>
      <trkpt lat="42.88515" lon="-0.15389">
        <ele>1748</ele>
        <time>2015-12-03T08:40:56Z</time>
      </trkpt>
      <trkpt lat="42.88512" lon="-0.15409">
        <ele>1750</ele>
        <time>2015-12-03T08:41:00Z</time>
      </trkpt>
      <trkpt lat="42.88511" lon="-0.15418">
        <ele>1751</ele>
        <time>2015-12-03T08:41:02Z</time>
      </trkpt>
      <trkpt lat="42.88509" lon="-0.15434">
        <ele>1753</ele>
        <time>2015-12-03T08:41:05Z</time>
      </trkpt>
      <trkpt lat="42.88506" lon="-0.15449">
        <ele>1756</ele>
        <time>2015-12-03T08:41:08Z</time>
      </trkpt>
      <trkpt lat="42.88504" lon="-0.15462">
        <ele>1760</ele>
        <time>2015-12-03T08:41:11Z</time>
      </trkpt>
      <trkpt lat="42.88501" lon="-0.15481">
        <ele>1762</ele>
        <time>2015-12-03T08:41:15Z</time>
      </trkpt>
      <trkpt lat="42.885" lon="-0.15491">
        <ele>1762</ele>
        <time>2015-12-03T08:41:17Z</time>
      </trkpt>
      <trkpt lat="42.88498" lon="-0.15504">
        <ele>1763</ele>
        <time>2015-12-03T08:41:20Z</time>
      </trkpt>
      <trkpt lat="42.88496" lon="-0.15519">
        <ele>1765</ele>
        <time>2015-12-03T08:41:23Z</time>
      </trkpt>
      <trkpt lat="42.88494" lon="-0.15535">
        <ele>1767</ele>
        <time>2015-12-03T08:41:27Z</time>
      </trkpt>
      <trkpt lat="42.88494" lon="-0.15543">
        <ele>1769</ele>
        <time>2015-12-03T08:41:29Z</time>
      </trkpt>
      <trkpt lat="42.88492" lon="-0.15561">
        <ele>1775</ele>
        <time>2015-12-03T08:41:33Z</time>
      </trkpt>
      <trkpt lat="42.88491" lon="-0.15569">
        <ele>1778</ele>
        <time>2015-12-03T08:41:35Z</time>
      </trkpt>
      <trkpt lat="42.88489" lon="-0.15583">
        <ele>1784</ele>
        <time>2015-12-03T08:41:38Z</time>
      </trkpt>
      <trkpt lat="42.88487" lon="-0.15596">
        <ele>1791</ele>
        <time>2015-12-03T08:41:41Z</time>
      </trkpt>
      <trkpt lat="42.88485" lon="-0.15611">
        <ele>1797</ele>
        <time>2015-12-03T08:41:44Z</time>
      </trkpt>
      <trkpt lat="42.88483" lon="-0.15624">
        <ele>1803</ele>
        <time>2015-12-03T08:41:47Z</time>
      </trkpt>
      <trkpt lat="42.88481" lon="-0.15638">
        <ele>1808</ele>
        <time>2015-12-03T08:41:50Z</time>
      </trkpt>
      <trkpt lat="42.8848" lon="-0.15651">
        <ele>1812</ele>
        <time>2015-12-03T08:41:53Z</time>
      </trkpt>
      <trkpt lat="42.88478" lon="-0.15664">
        <ele>1816</ele>
        <time>2015-12-03T08:41:56Z</time>
      </trkpt>
      <trkpt lat="42.88477" lon="-0.15678">
        <ele>1821</ele>
        <time>2015-12-03T08:41:59Z</time>
      </trkpt>
      <trkpt lat="42.88475" lon="-0.1569">
        <ele>1825</ele>
        <time>2015-12-03T08:42:02Z</time>
      </trkpt>
      <trkpt lat="42.88472" lon="-0.15703">
        <ele>1829</ele>
        <time>2015-12-03T08:42:05Z</time>
      </trkpt>
      <trkpt lat="42.88471" lon="-0.15716">
        <ele>1833</ele>
        <time>2015-12-03T08:42:08Z</time>
      </trkpt>
      <trkpt lat="42.88469" lon="-0.15729">
        <ele>1836</ele>
        <time>2015-12-03T08:42:11Z</time>
      </trkpt>
      <trkpt lat="42.88467" lon="-0.15743">
        <ele>1840</ele>
        <time>2015-12-03T08:42:14Z</time>
      </trkpt>
      <trkpt lat="42.88466" lon="-0.15755">
        <ele>1843</ele>
        <time>2015-12-03T08:42:17Z</time>
      </trkpt>
      <trkpt lat="42.88464" lon="-0.15769">
        <ele>1846</ele>
        <time>2015-12-03T08:42:20Z</time>
      </trkpt>
      <trkpt lat="42.88461" lon="-0.15792">
        <ele>1852</ele>
        <time>2015-12-03T08:42:25Z</time>
      </trkpt>
      <trkpt lat="42.8846" lon="-0.15796">
        <ele>1854</ele>
        <time>2015-12-03T08:42:26Z</time>
      </trkpt>
      <trkpt lat="42.88459" lon="-0.15809">
        <ele>1858</ele>
        <time>2015-12-03T08:42:29Z</time>
      </trkpt>
      <trkpt lat="42.88457" lon="-0.15822">
        <ele>1863</ele>
        <time>2015-12-03T08:42:32Z</time>
      </trkpt>
      <trkpt lat="42.88455" lon="-0.15835">
        <ele>1868</ele>
        <time>2015-12-03T08:42:35Z</time>
      </trkpt>
      <trkpt lat="42.88453" lon="-0.15853">
        <ele>1874</ele>
        <time>2015-12-03T08:42:39Z</time>
      </trkpt>
      <trkpt lat="42.8845" lon="-0.1587">
        <ele>1880</ele>
        <time>2015-12-03T08:42:43Z</time>
      </trkpt>
      <trkpt lat="42.8845" lon="-0.15874">
        <ele>1881</ele>
        <time>2015-12-03T08:42:44Z</time>
      </trkpt>
      <trkpt lat="42.88448" lon="-0.15887">
        <ele>1885</ele>
        <time>2015-12-03T08:42:47Z</time>
      </trkpt>
      <trkpt lat="42.88446" lon="-0.159">
        <ele>1889</ele>
        <time>2015-12-03T08:42:50Z</time>
      </trkpt>
      <trkpt lat="42.88444" lon="-0.15914">
        <ele>1893</ele>
        <time>2015-12-03T08:42:53Z</time>
      </trkpt>
      <trkpt lat="42.88442" lon="-0.15927">
        <ele>1897</ele>
        <time>2015-12-03T08:42:56Z</time>
      </trkpt>
      <trkpt lat="42.88439" lon="-0.15941">
        <ele>1902</ele>
        <time>2015-12-03T08:42:59Z</time>
      </trkpt>
      <trkpt lat="42.88438" lon="-0.15955">
        <ele>1907</ele>
        <time>2015-12-03T08:43:02Z</time>
      </trkpt>
      <trkpt lat="42.88435" lon="-0.15969">
        <ele>1912</ele>
        <time>2015-12-03T08:43:05Z</time>
      </trkpt>
      <trkpt lat="42.88434" lon="-0.15982">
        <ele>1918</ele>
        <time>2015-12-03T08:43:08Z</time>
      </trkpt>
      <trkpt lat="42.88431" lon="-0.15996">
        <ele>1924</ele>
        <time>2015-12-03T08:43:11Z</time>
      </trkpt>
      <trkpt lat="42.8843" lon="-0.16008">
        <ele>1929</ele>
        <time>2015-12-03T08:43:14Z</time>
      </trkpt>
      <trkpt lat="42.88428" lon="-0.16021">
        <ele>1934</ele>
        <time>2015-12-03T08:43:17Z</time>
      </trkpt>
      <trkpt lat="42.88426" lon="-0.16033">
        <ele>1939</ele>
        <time>2015-12-03T08:43:20Z</time>
      </trkpt>
      <trkpt lat="42.88424" lon="-0.16049">
        <ele>1944</ele>
        <time>2015-12-03T08:43:24Z</time>
      </trkpt>
      <trkpt lat="42.88423" lon="-0.16058">
        <ele>1947</ele>
        <time>2015-12-03T08:43:26Z</time>
      </trkpt>
      <trkpt lat="42.88421" lon="-0.16071">
        <ele>1951</ele>
        <time>2015-12-03T08:43:29Z</time>
      </trkpt>
      <trkpt lat="42.88417" lon="-0.16094">
        <ele>1958</ele>
        <time>2015-12-03T08:43:34Z</time>
      </trkpt>
      <trkpt lat="42.88416" lon="-0.16098">
        <ele>1959</ele>
        <time>2015-12-03T08:43:35Z</time>
      </trkpt>
      <trkpt lat="42.88415" lon="-0.1611">
        <ele>1962</ele>
        <time>2015-12-03T08:43:38Z</time>
      </trkpt>
      <trkpt lat="42.88413" lon="-0.16123">
        <ele>1966</ele>
        <time>2015-12-03T08:43:41Z</time>
      </trkpt>
      <trkpt lat="42.88411" lon="-0.16135">
        <ele>1969</ele>
        <time>2015-12-03T08:43:44Z</time>
      </trkpt>
      <trkpt lat="42.88409" lon="-0.1615">
        <ele>1974</ele>
        <time>2015-12-03T08:43:47Z</time>
      </trkpt>
      <trkpt lat="42.88406" lon="-0.16163">
        <ele>1979</ele>
        <time>2015-12-03T08:43:50Z</time>
      </trkpt>
      <trkpt lat="42.88404" lon="-0.16176">
        <ele>1983</ele>
        <time>2015-12-03T08:43:53Z</time>
      </trkpt>
      <trkpt lat="42.88402" lon="-0.16189">
        <ele>1988</ele>
        <time>2015-12-03T08:43:56Z</time>
      </trkpt>
      <trkpt lat="42.88401" lon="-0.16203">
        <ele>1992</ele>
        <time>2015-12-03T08:43:59Z</time>
      </trkpt>
      <trkpt lat="42.88399" lon="-0.16215">
        <ele>1996</ele>
        <time>2015-12-03T08:44:02Z</time>
      </trkpt>
      <trkpt lat="42.88397" lon="-0.16229">
        <ele>2000</ele>
        <time>2015-12-03T08:44:05Z</time>
      </trkpt>
      <trkpt lat="42.88396" lon="-0.16241">
        <ele>2003</ele>
        <time>2015-12-03T08:44:08Z</time>
      </trkpt>
      <trkpt lat="42.88394" lon="-0.16255">
        <ele>2007</ele>
        <time>2015-12-03T08:44:11Z</time>
      </trkpt>
      <trkpt lat="42.88392" lon="-0.16268">
        <ele>2010</ele>
        <time>2015-12-03T08:44:14Z</time>
      </trkpt>
      <trkpt lat="42.88388" lon="-0.1629">
        <ele>2017</ele>
        <time>2015-12-03T08:44:19Z</time>
      </trkpt>
      <trkpt lat="42.88387" lon="-0.16295">
        <ele>2018</ele>
        <time>2015-12-03T08:44:20Z</time>
      </trkpt>
      <trkpt lat="42.88385" lon="-0.1631">
        <ele>2023</ele>
        <time>2015-12-03T08:44:23Z</time>
      </trkpt>
      <trkpt lat="42.88383" lon="-0.16324">
        <ele>2027</ele>
        <time>2015-12-03T08:44:26Z</time>
      </trkpt>
      <trkpt lat="42.8838" lon="-0.16346">
        <ele>2034</ele>
        <time>2015-12-03T08:44:31Z</time>
      </trkpt>
      <trkpt lat="42.88379" lon="-0.16351">
        <ele>2035</ele>
        <time>2015-12-03T08:44:32Z</time>
      </trkpt>
      <trkpt lat="42.88377" lon="-0.16364">
        <ele>2040</ele>
        <time>2015-12-03T08:44:35Z</time>
      </trkpt>
      <trkpt lat="42.88375" lon="-0.1638">
        <ele>2044</ele>
        <time>2015-12-03T08:44:38Z</time>
      </trkpt>
      <trkpt lat="42.88372" lon="-0.16394">
        <ele>2047</ele>
        <time>2015-12-03T08:44:41Z</time>
      </trkpt>
      <trkpt lat="42.88371" lon="-0.16407">
        <ele>2050</ele>
        <time>2015-12-03T08:44:44Z</time>
      </trkpt>
      <trkpt lat="42.88368" lon="-0.1642">
        <ele>2054</ele>
        <time>2015-12-03T08:44:47Z</time>
      </trkpt>
      <trkpt lat="42.88366" lon="-0.16433">
        <ele>2057</ele>
        <time>2015-12-03T08:44:50Z</time>
      </trkpt>
      <trkpt lat="42.88365" lon="-0.16446">
        <ele>2060</ele>
        <time>2015-12-03T08:44:53Z</time>
      </trkpt>
      <trkpt lat="42.88363" lon="-0.16459">
        <ele>2063</ele>
        <time>2015-12-03T08:44:56Z</time>
      </trkpt>
      <trkpt lat="42.8836" lon="-0.16472">
        <ele>2066</ele>
        <time>2015-12-03T08:44:59Z</time>
      </trkpt>
      <trkpt lat="42.88358" lon="-0.16485">
        <ele>2069</ele>
        <time>2015-12-03T08:45:02Z</time>
      </trkpt>
      <trkpt lat="42.88356" lon="-0.16498">
        <ele>2073</ele>
        <time>2015-12-03T08:45:05Z</time>
      </trkpt>
      <trkpt lat="42.88354" lon="-0.16512">
        <ele>2077</ele>
        <time>2015-12-03T08:45:08Z</time>
      </trkpt>
      <trkpt lat="42.88352" lon="-0.16527">
        <ele>2081</ele>
        <time>2015-12-03T08:45:11Z</time>
      </trkpt>
      <trkpt lat="42.88351" lon="-0.1654">
        <ele>2084</ele>
        <time>2015-12-03T08:45:14Z</time>
      </trkpt>
      <trkpt lat="42.88349" lon="-0.16554">
        <ele>2086</ele>
        <time>2015-12-03T08:45:17Z</time>
      </trkpt>
      <trkpt lat="42.88348" lon="-0.16568">
        <ele>2089</ele>
        <time>2015-12-03T08:45:20Z</time>
      </trkpt>
      <trkpt lat="42.88345" lon="-0.16588">
        <ele>2094</ele>
        <time>2015-12-03T08:45:24Z</time>
      </trkpt>
      <trkpt lat="42.88344" lon="-0.16597">
        <ele>2096</ele>
        <time>2015-12-03T08:45:26Z</time>
      </trkpt>
      <trkpt lat="42.88342" lon="-0.16611">
        <ele>2100</ele>
        <time>2015-12-03T08:45:29Z</time>
      </trkpt>
      <trkpt lat="42.8834" lon="-0.16625">
        <ele>2104</ele>
        <time>2015-12-03T08:45:32Z</time>
      </trkpt>
      <trkpt lat="42.88338" lon="-0.16639">
        <ele>2108</ele>
        <time>2015-12-03T08:45:35Z</time>
      </trkpt>
      <trkpt lat="42.88336" lon="-0.16652">
        <ele>2112</ele>
        <time>2015-12-03T08:45:38Z</time>
      </trkpt>
      <trkpt lat="42.88333" lon="-0.16665">
        <ele>2116</ele>
        <time>2015-12-03T08:45:41Z</time>
      </trkpt>
      <trkpt lat="42.88331" lon="-0.16678">
        <ele>2120</ele>
        <time>2015-12-03T08:45:44Z</time>
      </trkpt>
      <trkpt lat="42.88329" lon="-0.16692">
        <ele>2123</ele>
        <time>2015-12-03T08:45:47Z</time>
      </trkpt>
      <trkpt lat="42.88328" lon="-0.16706">
        <ele>2125</ele>
        <time>2015-12-03T08:45:50Z</time>
      </trkpt>
      <trkpt lat="42.88325" lon="-0.1672">
        <ele>2127</ele>
        <time>2015-12-03T08:45:53Z</time>
      </trkpt>
      <trkpt lat="42.88323" lon="-0.16734">
        <ele>2128</ele>
        <time>2015-12-03T08:45:56Z</time>
      </trkpt>
      <trkpt lat="42.88322" lon="-0.16748">
        <ele>2130</ele>
        <time>2015-12-03T08:45:59Z</time>
      </trkpt>
      <trkpt lat="42.88319" lon="-0.16762">
        <ele>2131</ele>
        <time>2015-12-03T08:46:02Z</time>
      </trkpt>
      <trkpt lat="42.88318" lon="-0.16776">
        <ele>2134</ele>
        <time>2015-12-03T08:46:05Z</time>
      </trkpt>
      <trkpt lat="42.88314" lon="-0.168">
        <ele>2139</ele>
        <time>2015-12-03T08:46:10Z</time>
      </trkpt>
      <trkpt lat="42.88312" lon="-0.16814">
        <ele>2142</ele>
        <time>2015-12-03T08:46:13Z</time>
      </trkpt>
      <trkpt lat="42.88311" lon="-0.16819">
        <ele>2143</ele>
        <time>2015-12-03T08:46:14Z</time>
      </trkpt>
      <trkpt lat="42.88309" lon="-0.16833">
        <ele>2147</ele>
        <time>2015-12-03T08:46:17Z</time>
      </trkpt>
      <trkpt lat="42.88307" lon="-0.16851">
        <ele>2151</ele>
        <time>2015-12-03T08:46:21Z</time>
      </trkpt>
      <trkpt lat="42.88306" lon="-0.16861">
        <ele>2154</ele>
        <time>2015-12-03T08:46:23Z</time>
      </trkpt>
      <trkpt lat="42.88303" lon="-0.16875">
        <ele>2158</ele>
        <time>2015-12-03T08:46:26Z</time>
      </trkpt>
      <trkpt lat="42.88301" lon="-0.16889">
        <ele>2161</ele>
        <time>2015-12-03T08:46:29Z</time>
      </trkpt>
      <trkpt lat="42.88299" lon="-0.16903">
        <ele>2165</ele>
        <time>2015-12-03T08:46:32Z</time>
      </trkpt>
      <trkpt lat="42.88297" lon="-0.16918">
        <ele>2168</ele>
        <time>2015-12-03T08:46:35Z</time>
      </trkpt>
      <trkpt lat="42.88296" lon="-0.16931">
        <ele>2171</ele>
        <time>2015-12-03T08:46:38Z</time>
      </trkpt>
      <trkpt lat="42.88293" lon="-0.16949">
        <ele>2175</ele>
        <time>2015-12-03T08:46:42Z</time>
      </trkpt>
      <trkpt lat="42.88291" lon="-0.16958">
        <ele>2177</ele>
        <time>2015-12-03T08:46:44Z</time>
      </trkpt>
      <trkpt lat="42.8829" lon="-0.16972">
        <ele>2180</ele>
        <time>2015-12-03T08:46:47Z</time>
      </trkpt>
      <trkpt lat="42.88287" lon="-0.16986">
        <ele>2184</ele>
        <time>2015-12-03T08:46:50Z</time>
      </trkpt>
      <trkpt lat="42.88285" lon="-0.17">
        <ele>2188</ele>
        <time>2015-12-03T08:46:53Z</time>
      </trkpt>
      <trkpt lat="42.88283" lon="-0.17014">
        <ele>2191</ele>
        <time>2015-12-03T08:46:56Z</time>
      </trkpt>
      <trkpt lat="42.88281" lon="-0.17028">
        <ele>2195</ele>
        <time>2015-12-03T08:46:59Z</time>
      </trkpt>
      <trkpt lat="42.88278" lon="-0.17042">
        <ele>2199</ele>
        <time>2015-12-03T08:47:02Z</time>
      </trkpt>
      <trkpt lat="42.88276" lon="-0.1706">
        <ele>2205</ele>
        <time>2015-12-03T08:47:06Z</time>
      </trkpt>
      <trkpt lat="42.88274" lon="-0.17069">
        <ele>2207</ele>
        <time>2015-12-03T08:47:08Z</time>
      </trkpt>
      <trkpt lat="42.88272" lon="-0.17083">
        <ele>2210</ele>
        <time>2015-12-03T08:47:11Z</time>
      </trkpt>
      <trkpt lat="42.8827" lon="-0.17097">
        <ele>2214</ele>
        <time>2015-12-03T08:47:14Z</time>
      </trkpt>
      <trkpt lat="42.88268" lon="-0.1711">
        <ele>2218</ele>
        <time>2015-12-03T08:47:17Z</time>
      </trkpt>
      <trkpt lat="42.88266" lon="-0.17124">
        <ele>2222</ele>
        <time>2015-12-03T08:47:20Z</time>
      </trkpt>
      <trkpt lat="42.88263" lon="-0.17147">
        <ele>2228</ele>
        <time>2015-12-03T08:47:25Z</time>
      </trkpt>
      <trkpt lat="42.88262" lon="-0.17152">
        <ele>2229</ele>
        <time>2015-12-03T08:47:26Z</time>
      </trkpt>
      <trkpt lat="42.8826" lon="-0.17166">
        <ele>2232</ele>
        <time>2015-12-03T08:47:29Z</time>
      </trkpt>
      <trkpt lat="42.88258" lon="-0.1718">
        <ele>2235</ele>
        <time>2015-12-03T08:47:32Z</time>
      </trkpt>
      <trkpt lat="42.88255" lon="-0.17194">
        <ele>2239</ele>
        <time>2015-12-03T08:47:35Z</time>
      </trkpt>
      <trkpt lat="42.88253" lon="-0.17207">
        <ele>2243</ele>
        <time>2015-12-03T08:47:38Z</time>
      </trkpt>
      <trkpt lat="42.8825" lon="-0.17231">
        <ele>2251</ele>
        <time>2015-12-03T08:47:43Z</time>
      </trkpt>
      <trkpt lat="42.88249" lon="-0.17235">
        <ele>2253</ele>
        <time>2015-12-03T08:47:44Z</time>
      </trkpt>
      <trkpt lat="42.88247" lon="-0.1725">
        <ele>2257</ele>
        <time>2015-12-03T08:47:47Z</time>
      </trkpt>
      <trkpt lat="42.88245" lon="-0.17264">
        <ele>2261</ele>
        <time>2015-12-03T08:47:50Z</time>
      </trkpt>
      <trkpt lat="42.88243" lon="-0.17278">
        <ele>2266</ele>
        <time>2015-12-03T08:47:53Z</time>
      </trkpt>
      <trkpt lat="42.88241" lon="-0.1729">
        <ele>2270</ele>
        <time>2015-12-03T08:47:56Z</time>
      </trkpt>
      <trkpt lat="42.88239" lon="-0.17304">
        <ele>2275</ele>
        <time>2015-12-03T08:47:59Z</time>
      </trkpt>
      <trkpt lat="42.88237" lon="-0.17321">
        <ele>2282</ele>
        <time>2015-12-03T08:48:03Z</time>
      </trkpt>
      <trkpt lat="42.88234" lon="-0.17338">
        <ele>2289</ele>
        <time>2015-12-03T08:48:07Z</time>
      </trkpt>
      <trkpt lat="42.88234" lon="-0.17343">
        <ele>2291</ele>
        <time>2015-12-03T08:48:08Z</time>
      </trkpt>
      <trkpt lat="42.88231" lon="-0.17356">
        <ele>2296</ele>
        <time>2015-12-03T08:48:11Z</time>
      </trkpt>
      <trkpt lat="42.88229" lon="-0.17369">
        <ele>2302</ele>
        <time>2015-12-03T08:48:14Z</time>
      </trkpt>
      <trkpt lat="42.88227" lon="-0.17382">
        <ele>2307</ele>
        <time>2015-12-03T08:48:17Z</time>
      </trkpt>
      <trkpt lat="42.88225" lon="-0.17395">
        <ele>2312</ele>
        <time>2015-12-03T08:48:20Z</time>
      </trkpt>
      <trkpt lat="42.88223" lon="-0.17406">
        <ele>2317</ele>
        <time>2015-12-03T08:48:23Z</time>
      </trkpt>
      <trkpt lat="42.88222" lon="-0.17419">
        <ele>2321</ele>
        <time>2015-12-03T08:48:26Z</time>
      </trkpt>
      <trkpt lat="42.88215" lon="-0.17427">
        <ele>2326</ele>
        <time>2015-12-03T08:48:29Z</time>
      </trkpt>
      <trkpt lat="42.88212" lon="-0.17433">
        <ele>2328</ele>
        <time>2015-12-03T08:48:32Z</time>
      </trkpt>
      <trkpt lat="42.88211" lon="-0.17438">
        <ele>2329</ele>
        <time>2015-12-03T08:48:36Z</time>
      </trkpt>
      <trkpt lat="42.88213" lon="-0.17439">
        <ele>2330</ele>
        <time>2015-12-03T08:48:38Z</time>
      </trkpt>
      <trkpt lat="42.88202" lon="-0.17439">
        <ele>2331</ele>
        <time>2015-12-03T08:48:43Z</time>
      </trkpt>
      <trkpt lat="42.88193" lon="-0.17428">
        <ele>2327</ele>
        <time>2015-12-03T08:48:46Z</time>
      </trkpt>
      <trkpt lat="42.88185" lon="-0.17414">
        <ele>2324</ele>
        <time>2015-12-03T08:48:49Z</time>
      </trkpt>
      <trkpt lat="42.88176" lon="-0.17404">
        <ele>2322</ele>
        <time>2015-12-03T08:48:51Z</time>
      </trkpt>
      <trkpt lat="42.88168" lon="-0.17393">
        <ele>2318</ele>
        <time>2015-12-03T08:48:53Z</time>
      </trkpt>
      <trkpt lat="42.88128" lon="-0.17304">
        <ele>2292</ele>
        <time>2015-12-03T08:49:12Z</time>
      </trkpt>
      <trkpt lat="42.88394" lon="-0.15649">
        <ele>1802</ele>
        <time>2015-12-03T08:52:30Z</time>
      </trkpt>
      <trkpt lat="42.88516" lon="-0.15281">
        <ele>1739</ele>
        <time>2015-12-03T08:53:18Z</time>
      </trkpt>
      <trkpt lat="42.88518" lon="-0.15281">
        <ele>1739</ele>
        <time>2015-12-03T08:53:22Z</time>
      </trkpt>
      <trkpt lat="42.8852" lon="-0.15281">
        <ele>1738</ele>
        <time>2015-12-03T08:53:24Z</time>
      </trkpt>
      <trkpt lat="42.88522" lon="-0.15286">
        <ele>1739</ele>
        <time>2015-12-03T08:53:28Z</time>
      </trkpt>
      <trkpt lat="42.88521" lon="-0.15312">
        <ele>1743</ele>
        <time>2015-12-03T08:53:32Z</time>
      </trkpt>
      <trkpt lat="42.8852" lon="-0.15328">
        <ele>1745</ele>
        <time>2015-12-03T08:53:35Z</time>
      </trkpt>
      <trkpt lat="42.88518" lon="-0.15336">
        <ele>1746</ele>
        <time>2015-12-03T08:53:37Z</time>
      </trkpt>
      <trkpt lat="42.88516" lon="-0.15351">
        <ele>1748</ele>
        <time>2015-12-03T08:53:40Z</time>
      </trkpt>
      <trkpt lat="42.88514" lon="-0.15365">
        <ele>1748</ele>
        <time>2015-12-03T08:53:43Z</time>
      </trkpt>
      <trkpt lat="42.88513" lon="-0.15375">
        <ele>1748</ele>
        <time>2015-12-03T08:53:45Z</time>
      </trkpt>
      <trkpt lat="42.88511" lon="-0.15398">
        <ele>1750</ele>
        <time>2015-12-03T08:53:50Z</time>
      </trkpt>
      <trkpt lat="42.8851" lon="-0.15402">
        <ele>1750</ele>
        <time>2015-12-03T08:53:51Z</time>
      </trkpt>
      <trkpt lat="42.88508" lon="-0.15417">
        <ele>1752</ele>
        <time>2015-12-03T08:53:54Z</time>
      </trkpt>
      <trkpt lat="42.88506" lon="-0.15432">
        <ele>1753</ele>
        <time>2015-12-03T08:53:57Z</time>
      </trkpt>
      <trkpt lat="42.88504" lon="-0.15445">
        <ele>1756</ele>
        <time>2015-12-03T08:54:00Z</time>
      </trkpt>
      <trkpt lat="42.88502" lon="-0.1546">
        <ele>1760</ele>
        <time>2015-12-03T08:54:03Z</time>
      </trkpt>
      <trkpt lat="42.885" lon="-0.15475">
        <ele>1762</ele>
        <time>2015-12-03T08:54:06Z</time>
      </trkpt>
      <trkpt lat="42.88498" lon="-0.15489">
        <ele>1763</ele>
        <time>2015-12-03T08:54:09Z</time>
      </trkpt>
      <trkpt lat="42.88495" lon="-0.15507">
        <ele>1764</ele>
        <time>2015-12-03T08:54:13Z</time>
      </trkpt>
      <trkpt lat="42.88494" lon="-0.15516">
        <ele>1765</ele>
        <time>2015-12-03T08:54:15Z</time>
      </trkpt>
      <trkpt lat="42.88492" lon="-0.15529">
        <ele>1767</ele>
        <time>2015-12-03T08:54:18Z</time>
      </trkpt>
      <trkpt lat="42.8849" lon="-0.15543">
        <ele>1770</ele>
        <time>2015-12-03T08:54:21Z</time>
      </trkpt>
      <trkpt lat="42.88488" lon="-0.15556">
        <ele>1774</ele>
        <time>2015-12-03T08:54:24Z</time>
      </trkpt>
      <trkpt lat="42.88486" lon="-0.1557">
        <ele>1779</ele>
        <time>2015-12-03T08:54:27Z</time>
      </trkpt>
      <trkpt lat="42.88484" lon="-0.15589">
        <ele>1788</ele>
        <time>2015-12-03T08:54:31Z</time>
      </trkpt>
      <trkpt lat="42.88483" lon="-0.15598">
        <ele>1792</ele>
        <time>2015-12-03T08:54:33Z</time>
      </trkpt>
      <trkpt lat="42.88481" lon="-0.15612">
        <ele>1798</ele>
        <time>2015-12-03T08:54:36Z</time>
      </trkpt>
      <trkpt lat="42.8848" lon="-0.15624">
        <ele>1803</ele>
        <time>2015-12-03T08:54:39Z</time>
      </trkpt>
      <trkpt lat="42.88479" lon="-0.15638">
        <ele>1808</ele>
        <time>2015-12-03T08:54:42Z</time>
      </trkpt>
      <trkpt lat="42.88478" lon="-0.1565">
        <ele>1812</ele>
        <time>2015-12-03T08:54:45Z</time>
      </trkpt>
      <trkpt lat="42.88477" lon="-0.15663">
        <ele>1816</ele>
        <time>2015-12-03T08:54:48Z</time>
      </trkpt>
      <trkpt lat="42.88477" lon="-0.1567">
        <ele>1818</ele>
        <time>2015-12-03T08:54:50Z</time>
      </trkpt>
      <trkpt lat="42.88475" lon="-0.15683">
        <ele>1823</ele>
        <time>2015-12-03T08:54:53Z</time>
      </trkpt>
      <trkpt lat="42.88475" lon="-0.15692">
        <ele>1825</ele>
        <time>2015-12-03T08:54:55Z</time>
      </trkpt>
      <trkpt lat="42.88474" lon="-0.15707">
        <ele>1830</ele>
        <time>2015-12-03T08:54:59Z</time>
      </trkpt>
      <trkpt lat="42.88472" lon="-0.15716">
        <ele>1833</ele>
        <time>2015-12-03T08:55:01Z</time>
      </trkpt>
      <trkpt lat="42.88471" lon="-0.15731">
        <ele>1837</ele>
        <time>2015-12-03T08:55:05Z</time>
      </trkpt>
      <trkpt lat="42.88468" lon="-0.15751">
        <ele>1842</ele>
        <time>2015-12-03T08:55:09Z</time>
      </trkpt>
      <trkpt lat="42.88468" lon="-0.15758">
        <ele>1844</ele>
        <time>2015-12-03T08:55:11Z</time>
      </trkpt>
      <trkpt lat="42.88466" lon="-0.15776">
        <ele>1848</ele>
        <time>2015-12-03T08:55:15Z</time>
      </trkpt>
      <trkpt lat="42.88466" lon="-0.15781">
        <ele>1850</ele>
        <time>2015-12-03T08:55:16Z</time>
      </trkpt>
      <trkpt lat="42.88463" lon="-0.15795">
        <ele>1854</ele>
        <time>2015-12-03T08:55:19Z</time>
      </trkpt>
      <trkpt lat="42.8846" lon="-0.1581">
        <ele>1858</ele>
        <time>2015-12-03T08:55:22Z</time>
      </trkpt>
      <trkpt lat="42.88459" lon="-0.15819">
        <ele>1862</ele>
        <time>2015-12-03T08:55:24Z</time>
      </trkpt>
      <trkpt lat="42.88455" lon="-0.15839">
        <ele>1869</ele>
        <time>2015-12-03T08:55:28Z</time>
      </trkpt>
      <trkpt lat="42.88453" lon="-0.15854">
        <ele>1874</ele>
        <time>2015-12-03T08:55:31Z</time>
      </trkpt>
      <trkpt lat="42.8845" lon="-0.15864">
        <ele>1878</ele>
        <time>2015-12-03T08:55:33Z</time>
      </trkpt>
      <trkpt lat="42.88448" lon="-0.15878">
        <ele>1882</ele>
        <time>2015-12-03T08:55:36Z</time>
      </trkpt>
      <trkpt lat="42.88446" lon="-0.15888">
        <ele>1885</ele>
        <time>2015-12-03T08:55:38Z</time>
      </trkpt>
      <trkpt lat="42.88445" lon="-0.159">
        <ele>1889</ele>
        <time>2015-12-03T08:55:41Z</time>
      </trkpt>
      <trkpt lat="42.88445" lon="-0.15909">
        <ele>1892</ele>
        <time>2015-12-03T08:55:43Z</time>
      </trkpt>
      <trkpt lat="42.88442" lon="-0.15922">
        <ele>1896</ele>
        <time>2015-12-03T08:55:46Z</time>
      </trkpt>
      <trkpt lat="42.88439" lon="-0.15941">
        <ele>1902</ele>
        <time>2015-12-03T08:55:50Z</time>
      </trkpt>
      <trkpt lat="42.88438" lon="-0.15949">
        <ele>1905</ele>
        <time>2015-12-03T08:55:52Z</time>
      </trkpt>
      <trkpt lat="42.88437" lon="-0.15957">
        <ele>1908</ele>
        <time>2015-12-03T08:55:54Z</time>
      </trkpt>
      <trkpt lat="42.88436" lon="-0.15969">
        <ele>1912</ele>
        <time>2015-12-03T08:55:57Z</time>
      </trkpt>
      <trkpt lat="42.88433" lon="-0.15984">
        <ele>1918</ele>
        <time>2015-12-03T08:56:00Z</time>
      </trkpt>
      <trkpt lat="42.88431" lon="-0.15998">
        <ele>1925</ele>
        <time>2015-12-03T08:56:03Z</time>
      </trkpt>
      <trkpt lat="42.8843" lon="-0.16012">
        <ele>1931</ele>
        <time>2015-12-03T08:56:06Z</time>
      </trkpt>
      <trkpt lat="42.8843" lon="-0.16021">
        <ele>1934</ele>
        <time>2015-12-03T08:56:08Z</time>
      </trkpt>
      <trkpt lat="42.88428" lon="-0.16035">
        <ele>1939</ele>
        <time>2015-12-03T08:56:11Z</time>
      </trkpt>
      <trkpt lat="42.88425" lon="-0.1605">
        <ele>1945</ele>
        <time>2015-12-03T08:56:14Z</time>
      </trkpt>
      <trkpt lat="42.88425" lon="-0.16062">
        <ele>1948</ele>
        <time>2015-12-03T08:56:17Z</time>
      </trkpt>
      <trkpt lat="42.88424" lon="-0.16072">
        <ele>1951</ele>
        <time>2015-12-03T08:56:19Z</time>
      </trkpt>
      <trkpt lat="42.88421" lon="-0.16086">
        <ele>1955</ele>
        <time>2015-12-03T08:56:22Z</time>
      </trkpt>
      <trkpt lat="42.88418" lon="-0.16099">
        <ele>1959</ele>
        <time>2015-12-03T08:56:25Z</time>
      </trkpt>
      <trkpt lat="42.88416" lon="-0.16112">
        <ele>1963</ele>
        <time>2015-12-03T08:56:28Z</time>
      </trkpt>
      <trkpt lat="42.88414" lon="-0.16124">
        <ele>1966</ele>
        <time>2015-12-03T08:56:31Z</time>
      </trkpt>
      <trkpt lat="42.88413" lon="-0.16134">
        <ele>1968</ele>
        <time>2015-12-03T08:56:34Z</time>
      </trkpt>
      <trkpt lat="42.88412" lon="-0.16147">
        <ele>1972</ele>
        <time>2015-12-03T08:56:37Z</time>
      </trkpt>
      <trkpt lat="42.88411" lon="-0.16163">
        <ele>1977</ele>
        <time>2015-12-03T08:56:41Z</time>
      </trkpt>
      <trkpt lat="42.8841" lon="-0.16172">
        <ele>1981</ele>
        <time>2015-12-03T08:56:43Z</time>
      </trkpt>
      <trkpt lat="42.88408" lon="-0.16181">
        <ele>1984</ele>
        <time>2015-12-03T08:56:45Z</time>
      </trkpt>
      <trkpt lat="42.88407" lon="-0.16194">
        <ele>1988</ele>
        <time>2015-12-03T08:56:48Z</time>
      </trkpt>
      <trkpt lat="42.88405" lon="-0.16211">
        <ele>1994</ele>
        <time>2015-12-03T08:56:52Z</time>
      </trkpt>
      <trkpt lat="42.88403" lon="-0.1622">
        <ele>1997</ele>
        <time>2015-12-03T08:56:54Z</time>
      </trkpt>
      <trkpt lat="42.88401" lon="-0.16233">
        <ele>2000</ele>
        <time>2015-12-03T08:56:57Z</time>
      </trkpt>
      <trkpt lat="42.88399" lon="-0.16244">
        <ele>2003</ele>
        <time>2015-12-03T08:57:00Z</time>
      </trkpt>
      <trkpt lat="42.88398" lon="-0.16255">
        <ele>2006</ele>
        <time>2015-12-03T08:57:03Z</time>
      </trkpt>
      <trkpt lat="42.88397" lon="-0.16263">
        <ele>2008</ele>
        <time>2015-12-03T08:57:05Z</time>
      </trkpt>
      <trkpt lat="42.88396" lon="-0.16278">
        <ele>2012</ele>
        <time>2015-12-03T08:57:09Z</time>
      </trkpt>
      <trkpt lat="42.88395" lon="-0.16287">
        <ele>2015</ele>
        <time>2015-12-03T08:57:11Z</time>
      </trkpt>
      <trkpt lat="42.88392" lon="-0.1631">
        <ele>2021</ele>
        <time>2015-12-03T08:57:16Z</time>
      </trkpt>
      <trkpt lat="42.88392" lon="-0.16313">
        <ele>2023</ele>
        <time>2015-12-03T08:57:17Z</time>
      </trkpt>
      <trkpt lat="42.88391" lon="-0.16325">
        <ele>2026</ele>
        <time>2015-12-03T08:57:20Z</time>
      </trkpt>
      <trkpt lat="42.88389" lon="-0.16345">
        <ele>2033</ele>
        <time>2015-12-03T08:57:25Z</time>
      </trkpt>
      <trkpt lat="42.88389" lon="-0.16349">
        <ele>2034</ele>
        <time>2015-12-03T08:57:26Z</time>
      </trkpt>
      <trkpt lat="42.88387" lon="-0.16363">
        <ele>2038</ele>
        <time>2015-12-03T08:57:29Z</time>
      </trkpt>
      <trkpt lat="42.88384" lon="-0.16378">
        <ele>2043</ele>
        <time>2015-12-03T08:57:33Z</time>
      </trkpt>
      <trkpt lat="42.88385" lon="-0.16381">
        <ele>2043</ele>
        <time>2015-12-03T08:57:34Z</time>
      </trkpt>
      <trkpt lat="42.88383" lon="-0.16396">
        <ele>2047</ele>
        <time>2015-12-03T08:57:38Z</time>
      </trkpt>
      <trkpt lat="42.88382" lon="-0.16404">
        <ele>2048</ele>
        <time>2015-12-03T08:57:40Z</time>
      </trkpt>
      <trkpt lat="42.88381" lon="-0.16416">
        <ele>2051</ele>
        <time>2015-12-03T08:57:43Z</time>
      </trkpt>
      <trkpt lat="42.8838" lon="-0.1643">
        <ele>2054</ele>
        <time>2015-12-03T08:57:46Z</time>
      </trkpt>
      <trkpt lat="42.88377" lon="-0.16443">
        <ele>2058</ele>
        <time>2015-12-03T08:57:49Z</time>
      </trkpt>
      <trkpt lat="42.88375" lon="-0.16456">
        <ele>2061</ele>
        <time>2015-12-03T08:57:52Z</time>
      </trkpt>
      <trkpt lat="42.88371" lon="-0.16476">
        <ele>2066</ele>
        <time>2015-12-03T08:57:56Z</time>
      </trkpt>
      <trkpt lat="42.88369" lon="-0.16487">
        <ele>2069</ele>
        <time>2015-12-03T08:57:58Z</time>
      </trkpt>
      <trkpt lat="42.88363" lon="-0.16512">
        <ele>2076</ele>
        <time>2015-12-03T08:58:02Z</time>
      </trkpt>
      <trkpt lat="42.8836" lon="-0.16525">
        <ele>2080</ele>
        <time>2015-12-03T08:58:04Z</time>
      </trkpt>
      <trkpt lat="42.88357" lon="-0.16541">
        <ele>2083</ele>
        <time>2015-12-03T08:58:07Z</time>
      </trkpt>
      <trkpt lat="42.88354" lon="-0.16556">
        <ele>2086</ele>
        <time>2015-12-03T08:58:10Z</time>
      </trkpt>
      <trkpt lat="42.88349" lon="-0.16578">
        <ele>2091</ele>
        <time>2015-12-03T08:58:14Z</time>
      </trkpt>
      <trkpt lat="42.88347" lon="-0.16595">
        <ele>2095</ele>
        <time>2015-12-03T08:58:18Z</time>
      </trkpt>
      <trkpt lat="42.88346" lon="-0.166">
        <ele>2096</ele>
        <time>2015-12-03T08:58:19Z</time>
      </trkpt>
      <trkpt lat="42.88345" lon="-0.16613">
        <ele>2099</ele>
        <time>2015-12-03T08:58:22Z</time>
      </trkpt>
      <trkpt lat="42.88341" lon="-0.16634">
        <ele>2105</ele>
        <time>2015-12-03T08:58:27Z</time>
      </trkpt>
      <trkpt lat="42.88341" lon="-0.1664">
        <ele>2107</ele>
        <time>2015-12-03T08:58:28Z</time>
      </trkpt>
      <trkpt lat="42.88339" lon="-0.16648">
        <ele>2110</ele>
        <time>2015-12-03T08:58:30Z</time>
      </trkpt>
      <trkpt lat="42.88338" lon="-0.16662">
        <ele>2114</ele>
        <time>2015-12-03T08:58:33Z</time>
      </trkpt>
      <trkpt lat="42.88336" lon="-0.16676">
        <ele>2118</ele>
        <time>2015-12-03T08:58:36Z</time>
      </trkpt>
      <trkpt lat="42.88335" lon="-0.16685">
        <ele>2120</ele>
        <time>2015-12-03T08:58:38Z</time>
      </trkpt>
      <trkpt lat="42.88331" lon="-0.16704">
        <ele>2124</ele>
        <time>2015-12-03T08:58:42Z</time>
      </trkpt>
      <trkpt lat="42.88331" lon="-0.16708">
        <ele>2124</ele>
        <time>2015-12-03T08:58:43Z</time>
      </trkpt>
      <trkpt lat="42.88327" lon="-0.16723">
        <ele>2127</ele>
        <time>2015-12-03T08:58:46Z</time>
      </trkpt>
      <trkpt lat="42.88325" lon="-0.16736">
        <ele>2128</ele>
        <time>2015-12-03T08:58:49Z</time>
      </trkpt>
      <trkpt lat="42.88324" lon="-0.16745">
        <ele>2129</ele>
        <time>2015-12-03T08:58:51Z</time>
      </trkpt>
      <trkpt lat="42.88321" lon="-0.16758">
        <ele>2131</ele>
        <time>2015-12-03T08:58:54Z</time>
      </trkpt>
      <trkpt lat="42.8832" lon="-0.16772">
        <ele>2132</ele>
        <time>2015-12-03T08:58:57Z</time>
      </trkpt>
      <trkpt lat="42.88318" lon="-0.16796">
        <ele>2137</ele>
        <time>2015-12-03T08:59:02Z</time>
      </trkpt>
      <trkpt lat="42.88317" lon="-0.16805">
        <ele>2139</ele>
        <time>2015-12-03T08:59:04Z</time>
      </trkpt>
      <trkpt lat="42.88313" lon="-0.16827">
        <ele>2144</ele>
        <time>2015-12-03T08:59:08Z</time>
      </trkpt>
      <trkpt lat="42.88312" lon="-0.16835">
        <ele>2146</ele>
        <time>2015-12-03T08:59:10Z</time>
      </trkpt>
      <trkpt lat="42.88311" lon="-0.16845">
        <ele>2149</ele>
        <time>2015-12-03T08:59:12Z</time>
      </trkpt>
      <trkpt lat="42.8831" lon="-0.1686">
        <ele>2153</ele>
        <time>2015-12-03T08:59:15Z</time>
      </trkpt>
      <trkpt lat="42.88307" lon="-0.16875">
        <ele>2157</ele>
        <time>2015-12-03T08:59:18Z</time>
      </trkpt>
      <trkpt lat="42.88305" lon="-0.16888">
        <ele>2160</ele>
        <time>2015-12-03T08:59:21Z</time>
      </trkpt>
      <trkpt lat="42.88301" lon="-0.16913">
        <ele>2166</ele>
        <time>2015-12-03T08:59:26Z</time>
      </trkpt>
      <trkpt lat="42.88301" lon="-0.16917">
        <ele>2167</ele>
        <time>2015-12-03T08:59:27Z</time>
      </trkpt>
      <trkpt lat="42.88295" lon="-0.16943">
        <ele>2173</ele>
        <time>2015-12-03T08:59:32Z</time>
      </trkpt>
      <trkpt lat="42.88293" lon="-0.16958">
        <ele>2177</ele>
        <time>2015-12-03T08:59:35Z</time>
      </trkpt>
      <trkpt lat="42.88291" lon="-0.16962">
        <ele>2178</ele>
        <time>2015-12-03T08:59:36Z</time>
      </trkpt>
      <trkpt lat="42.88289" lon="-0.16976">
        <ele>2181</ele>
        <time>2015-12-03T08:59:39Z</time>
      </trkpt>
      <trkpt lat="42.88287" lon="-0.16998">
        <ele>2187</ele>
        <time>2015-12-03T08:59:44Z</time>
      </trkpt>
      <trkpt lat="42.88284" lon="-0.17008">
        <ele>2190</ele>
        <time>2015-12-03T08:59:46Z</time>
      </trkpt>
      <trkpt lat="42.88283" lon="-0.17017">
        <ele>2192</ele>
        <time>2015-12-03T08:59:48Z</time>
      </trkpt>
      <trkpt lat="42.88281" lon="-0.17031">
        <ele>2196</ele>
        <time>2015-12-03T08:59:51Z</time>
      </trkpt>
      <trkpt lat="42.8828" lon="-0.17045">
        <ele>2200</ele>
        <time>2015-12-03T08:59:54Z</time>
      </trkpt>
      <trkpt lat="42.88278" lon="-0.17057">
        <ele>2203</ele>
        <time>2015-12-03T08:59:57Z</time>
      </trkpt>
      <trkpt lat="42.88276" lon="-0.17074">
        <ele>2207</ele>
        <time>2015-12-03T09:00:01Z</time>
      </trkpt>
      <trkpt lat="42.88275" lon="-0.17083">
        <ele>2210</ele>
        <time>2015-12-03T09:00:03Z</time>
      </trkpt>
      <trkpt lat="42.88274" lon="-0.17095">
        <ele>2213</ele>
        <time>2015-12-03T09:00:06Z</time>
      </trkpt>
      <trkpt lat="42.88274" lon="-0.17107">
        <ele>2216</ele>
        <time>2015-12-03T09:00:09Z</time>
      </trkpt>
      <trkpt lat="42.8827" lon="-0.17121">
        <ele>2220</ele>
        <time>2015-12-03T09:00:12Z</time>
      </trkpt>
      <trkpt lat="42.88268" lon="-0.17136">
        <ele>2224</ele>
        <time>2015-12-03T09:00:15Z</time>
      </trkpt>
      <trkpt lat="42.88267" lon="-0.1715">
        <ele>2227</ele>
        <time>2015-12-03T09:00:18Z</time>
      </trkpt>
      <trkpt lat="42.88263" lon="-0.17169">
        <ele>2232</ele>
        <time>2015-12-03T09:00:22Z</time>
      </trkpt>
      <trkpt lat="42.88262" lon="-0.17179">
        <ele>2234</ele>
        <time>2015-12-03T09:00:24Z</time>
      </trkpt>
      <trkpt lat="42.88259" lon="-0.17196">
        <ele>2239</ele>
        <time>2015-12-03T09:00:27Z</time>
      </trkpt>
      <trkpt lat="42.88258" lon="-0.17204">
        <ele>2242</ele>
        <time>2015-12-03T09:00:29Z</time>
      </trkpt>
      <trkpt lat="42.88256" lon="-0.17227">
        <ele>2249</ele>
        <time>2015-12-03T09:00:34Z</time>
      </trkpt>
      <trkpt lat="42.88255" lon="-0.17231">
        <ele>2251</ele>
        <time>2015-12-03T09:00:35Z</time>
      </trkpt>
      <trkpt lat="42.88253" lon="-0.17245">
        <ele>2255</ele>
        <time>2015-12-03T09:00:38Z</time>
      </trkpt>
      <trkpt lat="42.88251" lon="-0.17254">
        <ele>2258</ele>
        <time>2015-12-03T09:00:40Z</time>
      </trkpt>
      <trkpt lat="42.88248" lon="-0.1727">
        <ele>2262</ele>
        <time>2015-12-03T09:00:43Z</time>
      </trkpt>
      <trkpt lat="42.88248" lon="-0.17283">
        <ele>2266</ele>
        <time>2015-12-03T09:00:47Z</time>
      </trkpt>
      <trkpt lat="42.88245" lon="-0.17303">
        <ele>2273</ele>
        <time>2015-12-03T09:00:51Z</time>
      </trkpt>
      <trkpt lat="42.88244" lon="-0.17315">
        <ele>2278</ele>
        <time>2015-12-03T09:00:54Z</time>
      </trkpt>
      <trkpt lat="42.88243" lon="-0.1732">
        <ele>2280</ele>
        <time>2015-12-03T09:00:55Z</time>
      </trkpt>
      <trkpt lat="42.8824" lon="-0.17333">
        <ele>2286</ele>
        <time>2015-12-03T09:00:58Z</time>
      </trkpt>
      <trkpt lat="42.88238" lon="-0.17346">
        <ele>2291</ele>
        <time>2015-12-03T09:01:01Z</time>
      </trkpt>
      <trkpt lat="42.88237" lon="-0.17357">
        <ele>2295</ele>
        <time>2015-12-03T09:01:04Z</time>
      </trkpt>
      <trkpt lat="42.88234" lon="-0.1737">
        <ele>2300</ele>
        <time>2015-12-03T09:01:07Z</time>
      </trkpt>
      <trkpt lat="42.88231" lon="-0.17386">
        <ele>2307</ele>
        <time>2015-12-03T09:01:10Z</time>
      </trkpt>
      <trkpt lat="42.8823" lon="-0.17395">
        <ele>2310</ele>
        <time>2015-12-03T09:01:13Z</time>
      </trkpt>
      <trkpt lat="42.88229" lon="-0.17402">
        <ele>2313</ele>
        <time>2015-12-03T09:01:16Z</time>
      </trkpt>
      <trkpt lat="42.8823" lon="-0.17412">
        <ele>2315</ele>
        <time>2015-12-03T09:01:19Z</time>
      </trkpt>
      <trkpt lat="42.88225" lon="-0.1742">
        <ele>2320</ele>
        <time>2015-12-03T09:01:22Z</time>
      </trkpt>
      <trkpt lat="42.88225" lon="-0.17426">
        <ele>2321</ele>
        <time>2015-12-03T09:01:26Z</time>
      </trkpt>
      <trkpt lat="42.88224" lon="-0.17432">
        <ele>2324</ele>
        <time>2015-12-03T09:01:30Z</time>
      </trkpt>
      <trkpt lat="42.88223" lon="-0.17433">
        <ele>2324</ele>
        <time>2015-12-03T09:01:31Z</time>
      </trkpt>
      <trkpt lat="42.8821" lon="-0.17431">
        <ele>2328</ele>
        <time>2015-12-03T09:01:35Z</time>
      </trkpt>
      <trkpt lat="42.88196" lon="-0.17419">
        <ele>2327</ele>
        <time>2015-12-03T09:01:39Z</time>
      </trkpt>
      <trkpt lat="42.88189" lon="-0.17409">
        <ele>2324</ele>
        <time>2015-12-03T09:01:41Z</time>
      </trkpt>
      <trkpt lat="42.88181" lon="-0.174">
        <ele>2322</ele>
        <time>2015-12-03T09:01:43Z</time>
      </trkpt>
      <trkpt lat="42.88118" lon="-0.17275">
        <ele>2287</ele>
        <time>2015-12-03T09:02:12Z</time>
      </trkpt>
      <trkpt lat="42.88261" lon="-0.1725">
        <ele>2255</ele>
        <time>2015-12-03T09:02:37Z</time>
      </trkpt>
      <trkpt lat="42.88525" lon="-0.15286">
        <ele>1738</ele>
        <time>2015-12-03T09:06:31Z</time>
      </trkpt>
      <trkpt lat="42.88526" lon="-0.15286">
        <ele>1738</ele>
        <time>2015-12-03T09:06:34Z</time>
      </trkpt>
      <trkpt lat="42.88527" lon="-0.15286">
        <ele>1738</ele>
        <time>2015-12-03T09:06:37Z</time>
      </trkpt>
      <trkpt lat="42.88526" lon="-0.15287">
        <ele>1738</ele>
        <time>2015-12-03T09:06:40Z</time>
      </trkpt>
      <trkpt lat="42.88524" lon="-0.15287">
        <ele>1739</ele>
        <time>2015-12-03T09:06:43Z</time>
      </trkpt>
      <trkpt lat="42.88523" lon="-0.15293">
        <ele>1740</ele>
        <time>2015-12-03T09:06:48Z</time>
      </trkpt>
      <trkpt lat="42.88521" lon="-0.15304">
        <ele>1741</ele>
        <time>2015-12-03T09:06:51Z</time>
      </trkpt>
      <trkpt lat="42.8852" lon="-0.15314">
        <ele>1743</ele>
        <time>2015-12-03T09:06:53Z</time>
      </trkpt>
      <trkpt lat="42.88519" lon="-0.15333">
        <ele>1746</ele>
        <time>2015-12-03T09:06:57Z</time>
      </trkpt>
      <trkpt lat="42.88518" lon="-0.15337">
        <ele>1746</ele>
        <time>2015-12-03T09:06:58Z</time>
      </trkpt>
      <trkpt lat="42.88515" lon="-0.15359">
        <ele>1748</ele>
        <time>2015-12-03T09:07:03Z</time>
      </trkpt>
      <trkpt lat="42.88515" lon="-0.15364">
        <ele>1748</ele>
        <time>2015-12-03T09:07:04Z</time>
      </trkpt>
      <trkpt lat="42.88512" lon="-0.15378">
        <ele>1749</ele>
        <time>2015-12-03T09:07:07Z</time>
      </trkpt>
      <trkpt lat="42.8851" lon="-0.15394">
        <ele>1750</ele>
        <time>2015-12-03T09:07:10Z</time>
      </trkpt>
      <trkpt lat="42.88509" lon="-0.15409">
        <ele>1751</ele>
        <time>2015-12-03T09:07:13Z</time>
      </trkpt>
      <trkpt lat="42.88507" lon="-0.15424">
        <ele>1752</ele>
        <time>2015-12-03T09:07:16Z</time>
      </trkpt>
      <trkpt lat="42.88506" lon="-0.15439">
        <ele>1754</ele>
        <time>2015-12-03T09:07:19Z</time>
      </trkpt>
      <trkpt lat="42.88506" lon="-0.15452">
        <ele>1757</ele>
        <time>2015-12-03T09:07:22Z</time>
      </trkpt>
      <trkpt lat="42.88505" lon="-0.15466">
        <ele>1760</ele>
        <time>2015-12-03T09:07:25Z</time>
      </trkpt>
      <trkpt lat="42.88504" lon="-0.15484">
        <ele>1761</ele>
        <time>2015-12-03T09:07:29Z</time>
      </trkpt>
      <trkpt lat="42.88503" lon="-0.15492">
        <ele>1762</ele>
        <time>2015-12-03T09:07:31Z</time>
      </trkpt>
      <trkpt lat="42.88501" lon="-0.1551">
        <ele>1763</ele>
        <time>2015-12-03T09:07:35Z</time>
      </trkpt>
      <trkpt lat="42.88501" lon="-0.15517">
        <ele>1763</ele>
        <time>2015-12-03T09:07:37Z</time>
      </trkpt>
      <trkpt lat="42.885" lon="-0.15531">
        <ele>1765</ele>
        <time>2015-12-03T09:07:40Z</time>
      </trkpt>
      <trkpt lat="42.88499" lon="-0.15548">
        <ele>1769</ele>
        <time>2015-12-03T09:07:44Z</time>
      </trkpt>
      <trkpt lat="42.88498" lon="-0.15555">
        <ele>1771</ele>
        <time>2015-12-03T09:07:46Z</time>
      </trkpt>
      <trkpt lat="42.88496" lon="-0.15574">
        <ele>1778</ele>
        <time>2015-12-03T09:07:50Z</time>
      </trkpt>
      <trkpt lat="42.88492" lon="-0.15593">
        <ele>1788</ele>
        <time>2015-12-03T09:07:54Z</time>
      </trkpt>
      <trkpt lat="42.88491" lon="-0.15598">
        <ele>1790</ele>
        <time>2015-12-03T09:07:55Z</time>
      </trkpt>
      <trkpt lat="42.8849" lon="-0.15612">
        <ele>1797</ele>
        <time>2015-12-03T09:07:58Z</time>
      </trkpt>
      <trkpt lat="42.88487" lon="-0.15626">
        <ele>1803</ele>
        <time>2015-12-03T09:08:01Z</time>
      </trkpt>
      <trkpt lat="42.88486" lon="-0.15641">
        <ele>1808</ele>
        <time>2015-12-03T09:08:04Z</time>
      </trkpt>
      <trkpt lat="42.88484" lon="-0.15654">
        <ele>1813</ele>
        <time>2015-12-03T09:08:07Z</time>
      </trkpt>
      <trkpt lat="42.8848" lon="-0.15674">
        <ele>1819</ele>
        <time>2015-12-03T09:08:12Z</time>
      </trkpt>
      <trkpt lat="42.88479" lon="-0.15683">
        <ele>1822</ele>
        <time>2015-12-03T09:08:14Z</time>
      </trkpt>
      <trkpt lat="42.88478" lon="-0.15691">
        <ele>1825</ele>
        <time>2015-12-03T09:08:16Z</time>
      </trkpt>
      <trkpt lat="42.88477" lon="-0.15702">
        <ele>1828</ele>
        <time>2015-12-03T09:08:19Z</time>
      </trkpt>
      <trkpt lat="42.88474" lon="-0.15723">
        <ele>1835</ele>
        <time>2015-12-03T09:08:24Z</time>
      </trkpt>
      <trkpt lat="42.88473" lon="-0.15728">
        <ele>1836</ele>
        <time>2015-12-03T09:08:25Z</time>
      </trkpt>
      <trkpt lat="42.8847" lon="-0.15746">
        <ele>1841</ele>
        <time>2015-12-03T09:08:29Z</time>
      </trkpt>
      <trkpt lat="42.88469" lon="-0.1575">
        <ele>1842</ele>
        <time>2015-12-03T09:08:30Z</time>
      </trkpt>
      <trkpt lat="42.88469" lon="-0.1576">
        <ele>1845</ele>
        <time>2015-12-03T09:08:32Z</time>
      </trkpt>
      <trkpt lat="42.88466" lon="-0.15774">
        <ele>1848</ele>
        <time>2015-12-03T09:08:35Z</time>
      </trkpt>
      <trkpt lat="42.88465" lon="-0.15789">
        <ele>1852</ele>
        <time>2015-12-03T09:08:38Z</time>
      </trkpt>
      <trkpt lat="42.88462" lon="-0.15804">
        <ele>1857</ele>
        <time>2015-12-03T09:08:41Z</time>
      </trkpt>
      <trkpt lat="42.88461" lon="-0.15818">
        <ele>1861</ele>
        <time>2015-12-03T09:08:44Z</time>
      </trkpt>
      <trkpt lat="42.88458" lon="-0.1584">
        <ele>1870</ele>
        <time>2015-12-03T09:08:49Z</time>
      </trkpt>
      <trkpt lat="42.88458" lon="-0.15844">
        <ele>1871</ele>
        <time>2015-12-03T09:08:50Z</time>
      </trkpt>
      <trkpt lat="42.88455" lon="-0.15857">
        <ele>1876</ele>
        <time>2015-12-03T09:08:53Z</time>
      </trkpt>
      <trkpt lat="42.88453" lon="-0.15873">
        <ele>1881</ele>
        <time>2015-12-03T09:08:57Z</time>
      </trkpt>
      <trkpt lat="42.88452" lon="-0.15881">
        <ele>1883</ele>
        <time>2015-12-03T09:08:59Z</time>
      </trkpt>
      <trkpt lat="42.88448" lon="-0.15901">
        <ele>1889</ele>
        <time>2015-12-03T09:09:03Z</time>
      </trkpt>
      <trkpt lat="42.88447" lon="-0.15911">
        <ele>1892</ele>
        <time>2015-12-03T09:09:05Z</time>
      </trkpt>
      <trkpt lat="42.88445" lon="-0.1592">
        <ele>1895</ele>
        <time>2015-12-03T09:09:07Z</time>
      </trkpt>
      <trkpt lat="42.88442" lon="-0.15942">
        <ele>1902</ele>
        <time>2015-12-03T09:09:12Z</time>
      </trkpt>
      <trkpt lat="42.8844" lon="-0.15956">
        <ele>1907</ele>
        <time>2015-12-03T09:09:15Z</time>
      </trkpt>
      <trkpt lat="42.88439" lon="-0.15965">
        <ele>1910</ele>
        <time>2015-12-03T09:09:17Z</time>
      </trkpt>
      <trkpt lat="42.88439" lon="-0.15972">
        <ele>1913</ele>
        <time>2015-12-03T09:09:19Z</time>
      </trkpt>
      <trkpt lat="42.88438" lon="-0.1598">
        <ele>1916</ele>
        <time>2015-12-03T09:09:21Z</time>
      </trkpt>
      <trkpt lat="42.88436" lon="-0.15994">
        <ele>1922</ele>
        <time>2015-12-03T09:09:24Z</time>
      </trkpt>
      <trkpt lat="42.88434" lon="-0.16003">
        <ele>1926</ele>
        <time>2015-12-03T09:09:26Z</time>
      </trkpt>
      <trkpt lat="42.88432" lon="-0.16016">
        <ele>1932</ele>
        <time>2015-12-03T09:09:29Z</time>
      </trkpt>
      <trkpt lat="42.88429" lon="-0.16032">
        <ele>1938</ele>
        <time>2015-12-03T09:09:32Z</time>
      </trkpt>
      <trkpt lat="42.88428" lon="-0.16044">
        <ele>1942</ele>
        <time>2015-12-03T09:09:35Z</time>
      </trkpt>
      <trkpt lat="42.88426" lon="-0.16052">
        <ele>1945</ele>
        <time>2015-12-03T09:09:37Z</time>
      </trkpt>
      <trkpt lat="42.88424" lon="-0.16066">
        <ele>1949</ele>
        <time>2015-12-03T09:09:40Z</time>
      </trkpt>
      <trkpt lat="42.88422" lon="-0.16075">
        <ele>1952</ele>
        <time>2015-12-03T09:09:42Z</time>
      </trkpt>
      <trkpt lat="42.8842" lon="-0.16088">
        <ele>1956</ele>
        <time>2015-12-03T09:09:45Z</time>
      </trkpt>
      <trkpt lat="42.88418" lon="-0.16096">
        <ele>1958</ele>
        <time>2015-12-03T09:09:47Z</time>
      </trkpt>
      <trkpt lat="42.88416" lon="-0.1611">
        <ele>1962</ele>
        <time>2015-12-03T09:09:50Z</time>
      </trkpt>
      <trkpt lat="42.88416" lon="-0.16118">
        <ele>1964</ele>
        <time>2015-12-03T09:09:52Z</time>
      </trkpt>
      <trkpt lat="42.88414" lon="-0.16131">
        <ele>1967</ele>
        <time>2015-12-03T09:09:55Z</time>
      </trkpt>
      <trkpt lat="42.88411" lon="-0.16145">
        <ele>1972</ele>
        <time>2015-12-03T09:09:58Z</time>
      </trkpt>
      <trkpt lat="42.8841" lon="-0.16158">
        <ele>1976</ele>
        <time>2015-12-03T09:10:01Z</time>
      </trkpt>
      <trkpt lat="42.88408" lon="-0.16173">
        <ele>1982</ele>
        <time>2015-12-03T09:10:04Z</time>
      </trkpt>
      <trkpt lat="42.88406" lon="-0.16188">
        <ele>1986</ele>
        <time>2015-12-03T09:10:07Z</time>
      </trkpt>
      <trkpt lat="42.88405" lon="-0.16196">
        <ele>1989</ele>
        <time>2015-12-03T09:10:09Z</time>
      </trkpt>
      <trkpt lat="42.88402" lon="-0.16217">
        <ele>1996</ele>
        <time>2015-12-03T09:10:14Z</time>
      </trkpt>
      <trkpt lat="42.88401" lon="-0.16221">
        <ele>1998</ele>
        <time>2015-12-03T09:10:15Z</time>
      </trkpt>
      <trkpt lat="42.88399" lon="-0.16236">
        <ele>2002</ele>
        <time>2015-12-03T09:10:18Z</time>
      </trkpt>
      <trkpt lat="42.88397" lon="-0.16249">
        <ele>2005</ele>
        <time>2015-12-03T09:10:21Z</time>
      </trkpt>
      <trkpt lat="42.88397" lon="-0.16258">
        <ele>2007</ele>
        <time>2015-12-03T09:10:23Z</time>
      </trkpt>
      <trkpt lat="42.88395" lon="-0.16272">
        <ele>2011</ele>
        <time>2015-12-03T09:10:26Z</time>
      </trkpt>
      <trkpt lat="42.88391" lon="-0.16291">
        <ele>2016</ele>
        <time>2015-12-03T09:10:30Z</time>
      </trkpt>
      <trkpt lat="42.8839" lon="-0.16295">
        <ele>2018</ele>
        <time>2015-12-03T09:10:31Z</time>
      </trkpt>
      <trkpt lat="42.88388" lon="-0.16313">
        <ele>2023</ele>
        <time>2015-12-03T09:10:35Z</time>
      </trkpt>
      <trkpt lat="42.88386" lon="-0.16322">
        <ele>2026</ele>
        <time>2015-12-03T09:10:37Z</time>
      </trkpt>
      <trkpt lat="42.88385" lon="-0.16333">
        <ele>2029</ele>
        <time>2015-12-03T09:10:40Z</time>
      </trkpt>
      <trkpt lat="42.88382" lon="-0.16348">
        <ele>2034</ele>
        <time>2015-12-03T09:10:43Z</time>
      </trkpt>
      <trkpt lat="42.88381" lon="-0.16357">
        <ele>2037</ele>
        <time>2015-12-03T09:10:46Z</time>
      </trkpt>
      <trkpt lat="42.8838" lon="-0.16367">
        <ele>2040</ele>
        <time>2015-12-03T09:10:48Z</time>
      </trkpt>
      <trkpt lat="42.88378" lon="-0.16381">
        <ele>2044</ele>
        <time>2015-12-03T09:10:51Z</time>
      </trkpt>
      <trkpt lat="42.88376" lon="-0.1639">
        <ele>2046</ele>
        <time>2015-12-03T09:10:53Z</time>
      </trkpt>
      <trkpt lat="42.88374" lon="-0.16405">
        <ele>2050</ele>
        <time>2015-12-03T09:10:56Z</time>
      </trkpt>
      <trkpt lat="42.88372" lon="-0.16415">
        <ele>2052</ele>
        <time>2015-12-03T09:10:58Z</time>
      </trkpt>
      <trkpt lat="42.88371" lon="-0.16429">
        <ele>2055</ele>
        <time>2015-12-03T09:11:01Z</time>
      </trkpt>
      <trkpt lat="42.88369" lon="-0.16442">
        <ele>2058</ele>
        <time>2015-12-03T09:11:04Z</time>
      </trkpt>
      <trkpt lat="42.88367" lon="-0.16455">
        <ele>2061</ele>
        <time>2015-12-03T09:11:07Z</time>
      </trkpt>
      <trkpt lat="42.88366" lon="-0.16464">
        <ele>2063</ele>
        <time>2015-12-03T09:11:09Z</time>
      </trkpt>
      <trkpt lat="42.88365" lon="-0.16473">
        <ele>2066</ele>
        <time>2015-12-03T09:11:11Z</time>
      </trkpt>
      <trkpt lat="42.88363" lon="-0.16486">
        <ele>2069</ele>
        <time>2015-12-03T09:11:14Z</time>
      </trkpt>
      <trkpt lat="42.8836" lon="-0.16504">
        <ele>2074</ele>
        <time>2015-12-03T09:11:18Z</time>
      </trkpt>
      <trkpt lat="42.88359" lon="-0.16513">
        <ele>2077</ele>
        <time>2015-12-03T09:11:20Z</time>
      </trkpt>
      <trkpt lat="42.88357" lon="-0.16523">
        <ele>2079</ele>
        <time>2015-12-03T09:11:22Z</time>
      </trkpt>
      <trkpt lat="42.88355" lon="-0.16538">
        <ele>2083</ele>
        <time>2015-12-03T09:11:25Z</time>
      </trkpt>
      <trkpt lat="42.88353" lon="-0.16553">
        <ele>2086</ele>
        <time>2015-12-03T09:11:28Z</time>
      </trkpt>
      <trkpt lat="42.8835" lon="-0.16568">
        <ele>2089</ele>
        <time>2015-12-03T09:11:31Z</time>
      </trkpt>
      <trkpt lat="42.88348" lon="-0.16576">
        <ele>2091</ele>
        <time>2015-12-03T09:11:33Z</time>
      </trkpt>
      <trkpt lat="42.88345" lon="-0.166">
        <ele>2096</ele>
        <time>2015-12-03T09:11:38Z</time>
      </trkpt>
      <trkpt lat="42.88344" lon="-0.16605">
        <ele>2098</ele>
        <time>2015-12-03T09:11:39Z</time>
      </trkpt>
      <trkpt lat="42.88341" lon="-0.16624">
        <ele>2103</ele>
        <time>2015-12-03T09:11:43Z</time>
      </trkpt>
      <trkpt lat="42.8834" lon="-0.16633">
        <ele>2106</ele>
        <time>2015-12-03T09:11:45Z</time>
      </trkpt>
      <trkpt lat="42.88338" lon="-0.16648">
        <ele>2110</ele>
        <time>2015-12-03T09:11:48Z</time>
      </trkpt>
      <trkpt lat="42.88336" lon="-0.16662">
        <ele>2114</ele>
        <time>2015-12-03T09:11:51Z</time>
      </trkpt>
      <trkpt lat="42.88334" lon="-0.16675">
        <ele>2118</ele>
        <time>2015-12-03T09:11:54Z</time>
      </trkpt>
      <trkpt lat="42.88333" lon="-0.1669">
        <ele>2121</ele>
        <time>2015-12-03T09:11:57Z</time>
      </trkpt>
      <trkpt lat="42.8833" lon="-0.16703">
        <ele>2124</ele>
        <time>2015-12-03T09:12:00Z</time>
      </trkpt>
      <trkpt lat="42.88328" lon="-0.16717">
        <ele>2126</ele>
        <time>2015-12-03T09:12:03Z</time>
      </trkpt>
      <trkpt lat="42.88326" lon="-0.1673">
        <ele>2127</ele>
        <time>2015-12-03T09:12:06Z</time>
      </trkpt>
      <trkpt lat="42.88324" lon="-0.16739">
        <ele>2128</ele>
        <time>2015-12-03T09:12:08Z</time>
      </trkpt>
      <trkpt lat="42.88323" lon="-0.16754">
        <ele>2130</ele>
        <time>2015-12-03T09:12:11Z</time>
      </trkpt>
      <trkpt lat="42.88321" lon="-0.16764">
        <ele>2131</ele>
        <time>2015-12-03T09:12:13Z</time>
      </trkpt>
      <trkpt lat="42.88316" lon="-0.16785">
        <ele>2135</ele>
        <time>2015-12-03T09:12:17Z</time>
      </trkpt>
      <trkpt lat="42.88315" lon="-0.16789">
        <ele>2136</ele>
        <time>2015-12-03T09:12:18Z</time>
      </trkpt>
      <trkpt lat="42.88313" lon="-0.16803">
        <ele>2140</ele>
        <time>2015-12-03T09:12:21Z</time>
      </trkpt>
      <trkpt lat="42.88311" lon="-0.16813">
        <ele>2142</ele>
        <time>2015-12-03T09:12:23Z</time>
      </trkpt>
      <trkpt lat="42.88309" lon="-0.16827">
        <ele>2145</ele>
        <time>2015-12-03T09:12:26Z</time>
      </trkpt>
      <trkpt lat="42.88307" lon="-0.16845">
        <ele>2150</ele>
        <time>2015-12-03T09:12:30Z</time>
      </trkpt>
      <trkpt lat="42.88306" lon="-0.16849">
        <ele>2151</ele>
        <time>2015-12-03T09:12:31Z</time>
      </trkpt>
      <trkpt lat="42.88305" lon="-0.16857">
        <ele>2153</ele>
        <time>2015-12-03T09:12:33Z</time>
      </trkpt>
      <trkpt lat="42.88303" lon="-0.16871">
        <ele>2157</ele>
        <time>2015-12-03T09:12:36Z</time>
      </trkpt>
      <trkpt lat="42.883" lon="-0.16887">
        <ele>2161</ele>
        <time>2015-12-03T09:12:39Z</time>
      </trkpt>
      <trkpt lat="42.88299" lon="-0.16896">
        <ele>2163</ele>
        <time>2015-12-03T09:12:41Z</time>
      </trkpt>
      <trkpt lat="42.88297" lon="-0.16911">
        <ele>2167</ele>
        <time>2015-12-03T09:12:44Z</time>
      </trkpt>
      <trkpt lat="42.88295" lon="-0.16924">
        <ele>2169</ele>
        <time>2015-12-03T09:12:47Z</time>
      </trkpt>
      <trkpt lat="42.88292" lon="-0.16938">
        <ele>2173</ele>
        <time>2015-12-03T09:12:50Z</time>
      </trkpt>
      <trkpt lat="42.88292" lon="-0.16947">
        <ele>2175</ele>
        <time>2015-12-03T09:12:52Z</time>
      </trkpt>
      <trkpt lat="42.88289" lon="-0.16961">
        <ele>2178</ele>
        <time>2015-12-03T09:12:55Z</time>
      </trkpt>
      <trkpt lat="42.88287" lon="-0.1697">
        <ele>2181</ele>
        <time>2015-12-03T09:12:57Z</time>
      </trkpt>
      <trkpt lat="42.88286" lon="-0.16985">
        <ele>2184</ele>
        <time>2015-12-03T09:13:00Z</time>
      </trkpt>
      <trkpt lat="42.88284" lon="-0.16998">
        <ele>2187</ele>
        <time>2015-12-03T09:13:03Z</time>
      </trkpt>
      <trkpt lat="42.88282" lon="-0.17012">
        <ele>2191</ele>
        <time>2015-12-03T09:13:06Z</time>
      </trkpt>
      <trkpt lat="42.88281" lon="-0.17021">
        <ele>2193</ele>
        <time>2015-12-03T09:13:08Z</time>
      </trkpt>
      <trkpt lat="42.88278" lon="-0.17035">
        <ele>2197</ele>
        <time>2015-12-03T09:13:11Z</time>
      </trkpt>
      <trkpt lat="42.88276" lon="-0.17053">
        <ele>2202</ele>
        <time>2015-12-03T09:13:15Z</time>
      </trkpt>
      <trkpt lat="42.88275" lon="-0.17058">
        <ele>2204</ele>
        <time>2015-12-03T09:13:16Z</time>
      </trkpt>
      <trkpt lat="42.88274" lon="-0.17067">
        <ele>2206</ele>
        <time>2015-12-03T09:13:18Z</time>
      </trkpt>
      <trkpt lat="42.88272" lon="-0.17081">
        <ele>2210</ele>
        <time>2015-12-03T09:13:21Z</time>
      </trkpt>
      <trkpt lat="42.8827" lon="-0.17094">
        <ele>2214</ele>
        <time>2015-12-03T09:13:24Z</time>
      </trkpt>
      <trkpt lat="42.88267" lon="-0.17117">
        <ele>2220</ele>
        <time>2015-12-03T09:13:29Z</time>
      </trkpt>
      <trkpt lat="42.88266" lon="-0.17121">
        <ele>2221</ele>
        <time>2015-12-03T09:13:30Z</time>
      </trkpt>
      <trkpt lat="42.88264" lon="-0.17135">
        <ele>2225</ele>
        <time>2015-12-03T09:13:33Z</time>
      </trkpt>
      <trkpt lat="42.88262" lon="-0.17148">
        <ele>2228</ele>
        <time>2015-12-03T09:13:36Z</time>
      </trkpt>
      <trkpt lat="42.8826" lon="-0.17163">
        <ele>2231</ele>
        <time>2015-12-03T09:13:39Z</time>
      </trkpt>
      <trkpt lat="42.88258" lon="-0.17178">
        <ele>2235</ele>
        <time>2015-12-03T09:13:42Z</time>
      </trkpt>
      <trkpt lat="42.88255" lon="-0.17192">
        <ele>2239</ele>
        <time>2015-12-03T09:13:45Z</time>
      </trkpt>
      <trkpt lat="42.88252" lon="-0.1721">
        <ele>2244</ele>
        <time>2015-12-03T09:13:49Z</time>
      </trkpt>
      <trkpt lat="42.88251" lon="-0.17215">
        <ele>2246</ele>
        <time>2015-12-03T09:13:50Z</time>
      </trkpt>
      <trkpt lat="42.88251" lon="-0.17224">
        <ele>2249</ele>
        <time>2015-12-03T09:13:52Z</time>
      </trkpt>
      <trkpt lat="42.88249" lon="-0.17237">
        <ele>2253</ele>
        <time>2015-12-03T09:13:55Z</time>
      </trkpt>
      <trkpt lat="42.88248" lon="-0.17247">
        <ele>2256</ele>
        <time>2015-12-03T09:13:57Z</time>
      </trkpt>
      <trkpt lat="42.88246" lon="-0.1726">
        <ele>2260</ele>
        <time>2015-12-03T09:14:00Z</time>
      </trkpt>
      <trkpt lat="42.88244" lon="-0.17274">
        <ele>2264</ele>
        <time>2015-12-03T09:14:03Z</time>
      </trkpt>
      <trkpt lat="42.88242" lon="-0.17288">
        <ele>2269</ele>
        <time>2015-12-03T09:14:06Z</time>
      </trkpt>
      <trkpt lat="42.8824" lon="-0.17297">
        <ele>2272</ele>
        <time>2015-12-03T09:14:08Z</time>
      </trkpt>
      <trkpt lat="42.88238" lon="-0.17311">
        <ele>2278</ele>
        <time>2015-12-03T09:14:11Z</time>
      </trkpt>
      <trkpt lat="42.88236" lon="-0.17319">
        <ele>2281</ele>
        <time>2015-12-03T09:14:13Z</time>
      </trkpt>
      <trkpt lat="42.88234" lon="-0.17333">
        <ele>2287</ele>
        <time>2015-12-03T09:14:16Z</time>
      </trkpt>
      <trkpt lat="42.88232" lon="-0.17345">
        <ele>2292</ele>
        <time>2015-12-03T09:14:19Z</time>
      </trkpt>
      <trkpt lat="42.88231" lon="-0.17357">
        <ele>2297</ele>
        <time>2015-12-03T09:14:22Z</time>
      </trkpt>
      <trkpt lat="42.88229" lon="-0.17371">
        <ele>2303</ele>
        <time>2015-12-03T09:14:25Z</time>
      </trkpt>
      <trkpt lat="42.88227" lon="-0.17387">
        <ele>2309</ele>
        <time>2015-12-03T09:14:29Z</time>
      </trkpt>
      <trkpt lat="42.88226" lon="-0.17394">
        <ele>2312</ele>
        <time>2015-12-03T09:14:31Z</time>
      </trkpt>
      <trkpt lat="42.88224" lon="-0.17402">
        <ele>2315</ele>
        <time>2015-12-03T09:14:34Z</time>
      </trkpt>
      <trkpt lat="42.88225" lon="-0.17419">
        <ele>2319</ele>
        <time>2015-12-03T09:14:38Z</time>
      </trkpt>
      <trkpt lat="42.88224" lon="-0.17426">
        <ele>2322</ele>
        <time>2015-12-03T09:14:40Z</time>
      </trkpt>
      <trkpt lat="42.88226" lon="-0.17432">
        <ele>2323</ele>
        <time>2015-12-03T09:14:43Z</time>
      </trkpt>
      <trkpt lat="42.88226" lon="-0.17438">
        <ele>2325</ele>
        <time>2015-12-03T09:14:48Z</time>
      </trkpt>
      <trkpt lat="42.88224" lon="-0.17439">
        <ele>2326</ele>
        <time>2015-12-03T09:14:50Z</time>
      </trkpt>
      <trkpt lat="42.88215" lon="-0.17441">
        <ele>2329</ele>
        <time>2015-12-03T09:14:54Z</time>
      </trkpt>
      <trkpt lat="42.88202" lon="-0.17439">
        <ele>2330</ele>
        <time>2015-12-03T09:14:57Z</time>
      </trkpt>
      <trkpt lat="42.88192" lon="-0.17431">
        <ele>2328</ele>
        <time>2015-12-03T09:15:00Z</time>
      </trkpt>
      <trkpt lat="42.88189" lon="-0.17429">
        <ele>2327</ele>
        <time>2015-12-03T09:15:01Z</time>
      </trkpt>
      <trkpt lat="42.88182" lon="-0.17416">
        <ele>2324</ele>
        <time>2015-12-03T09:15:04Z</time>
      </trkpt>
      <trkpt lat="42.8817" lon="-0.17397">
        <ele>2319</ele>
        <time>2015-12-03T09:15:07Z</time>
      </trkpt>
      <trkpt lat="42.87989" lon="-0.16782">
        <ele>2206</ele>
        <time>2015-12-03T09:16:25Z</time>
      </trkpt>
      <trkpt lat="42.88003" lon="-0.16778">
        <ele>2198</ele>
        <time>2015-12-03T09:16:28Z</time>
      </trkpt>
      <trkpt lat="42.88014" lon="-0.16775">
        <ele>2192</ele>
        <time>2015-12-03T09:16:31Z</time>
      </trkpt>
      <trkpt lat="42.88085" lon="-0.16663">
        <ele>2129</ele>
        <time>2015-12-03T09:16:51Z</time>
      </trkpt>
      <trkpt lat="42.88064" lon="-0.16643">
        <ele>2127</ele>
        <time>2015-12-03T09:16:55Z</time>
      </trkpt>
      <trkpt lat="42.88062" lon="-0.16637">
        <ele>2126</ele>
        <time>2015-12-03T09:16:58Z</time>
      </trkpt>
      <trkpt lat="42.88063" lon="-0.16633">
        <ele>2124</ele>
        <time>2015-12-03T09:17:02Z</time>
      </trkpt>
      <trkpt lat="42.88063" lon="-0.16632">
        <ele>2123</ele>
        <time>2015-12-03T09:17:04Z</time>
      </trkpt>
      <trkpt lat="42.88062" lon="-0.1663">
        <ele>2123</ele>
        <time>2015-12-03T09:17:08Z</time>
      </trkpt>
      <trkpt lat="42.88062" lon="-0.1663">
        <ele>2123</ele>
        <time>2015-12-03T09:17:10Z</time>
      </trkpt>
      <trkpt lat="42.88063" lon="-0.16624">
        <ele>2120</ele>
        <time>2015-12-03T09:17:14Z</time>
      </trkpt>
      <trkpt lat="42.88064" lon="-0.16614">
        <ele>2115</ele>
        <time>2015-12-03T09:17:16Z</time>
      </trkpt>
      <trkpt lat="42.88064" lon="-0.16595">
        <ele>2106</ele>
        <time>2015-12-03T09:17:19Z</time>
      </trkpt>
      <trkpt lat="42.88065" lon="-0.16577">
        <ele>2097</ele>
        <time>2015-12-03T09:17:22Z</time>
      </trkpt>
      <trkpt lat="42.88062" lon="-0.1655">
        <ele>2084</ele>
        <time>2015-12-03T09:17:27Z</time>
      </trkpt>
      <trkpt lat="42.88062" lon="-0.16544">
        <ele>2081</ele>
        <time>2015-12-03T09:17:28Z</time>
      </trkpt>
      <trkpt lat="42.88066" lon="-0.16523">
        <ele>2071</ele>
        <time>2015-12-03T09:17:31Z</time>
      </trkpt>
      <trkpt lat="42.88069" lon="-0.16446">
        <ele>2039</ele>
        <time>2015-12-03T09:17:40Z</time>
      </trkpt>
      <trkpt lat="42.88068" lon="-0.16424">
        <ele>2031</ele>
        <time>2015-12-03T09:17:43Z</time>
      </trkpt>
      <trkpt lat="42.88068" lon="-0.16401">
        <ele>2021</ele>
        <time>2015-12-03T09:17:46Z</time>
      </trkpt>
      <trkpt lat="42.88075" lon="-0.16373">
        <ele>2010</ele>
        <time>2015-12-03T09:17:50Z</time>
      </trkpt>
      <trkpt lat="42.88079" lon="-0.1618">
        <ele>1939</ele>
        <time>2015-12-03T09:18:17Z</time>
      </trkpt>
      <trkpt lat="42.88522" lon="-0.15312">
        <ele>1743</ele>
        <time>2015-12-03T09:20:24Z</time>
      </trkpt>
      <trkpt lat="42.88519" lon="-0.15331">
        <ele>1745</ele>
        <time>2015-12-03T09:20:27Z</time>
      </trkpt>
      <trkpt lat="42.88516" lon="-0.15349">
        <ele>1748</ele>
        <time>2015-12-03T09:20:30Z</time>
      </trkpt>
      <trkpt lat="42.88514" lon="-0.15359">
        <ele>1748</ele>
        <time>2015-12-03T09:20:32Z</time>
      </trkpt>
      <trkpt lat="42.88511" lon="-0.15379">
        <ele>1749</ele>
        <time>2015-12-03T09:20:36Z</time>
      </trkpt>
      <trkpt lat="42.88509" lon="-0.15394">
        <ele>1750</ele>
        <time>2015-12-03T09:20:39Z</time>
      </trkpt>
      <trkpt lat="42.88509" lon="-0.15398">
        <ele>1750</ele>
        <time>2015-12-03T09:20:40Z</time>
      </trkpt>
      <trkpt lat="42.88507" lon="-0.15413">
        <ele>1752</ele>
        <time>2015-12-03T09:20:43Z</time>
      </trkpt>
      <trkpt lat="42.88506" lon="-0.15427">
        <ele>1753</ele>
        <time>2015-12-03T09:20:46Z</time>
      </trkpt>
      <trkpt lat="42.88505" lon="-0.15437">
        <ele>1754</ele>
        <time>2015-12-03T09:20:48Z</time>
      </trkpt>
      <trkpt lat="42.88504" lon="-0.15451">
        <ele>1757</ele>
        <time>2015-12-03T09:20:51Z</time>
      </trkpt>
      <trkpt lat="42.88503" lon="-0.15461">
        <ele>1760</ele>
        <time>2015-12-03T09:20:53Z</time>
      </trkpt>
      <trkpt lat="42.88501" lon="-0.15474">
        <ele>1762</ele>
        <time>2015-12-03T09:20:56Z</time>
      </trkpt>
      <trkpt lat="42.885" lon="-0.15488">
        <ele>1762</ele>
        <time>2015-12-03T09:20:59Z</time>
      </trkpt>
      <trkpt lat="42.88499" lon="-0.15502">
        <ele>1763</ele>
        <time>2015-12-03T09:21:02Z</time>
      </trkpt>
      <trkpt lat="42.88498" lon="-0.15511">
        <ele>1763</ele>
        <time>2015-12-03T09:21:04Z</time>
      </trkpt>
      <trkpt lat="42.88496" lon="-0.15525">
        <ele>1765</ele>
        <time>2015-12-03T09:21:07Z</time>
      </trkpt>
      <trkpt lat="42.88495" lon="-0.15538">
        <ele>1768</ele>
        <time>2015-12-03T09:21:10Z</time>
      </trkpt>
      <trkpt lat="42.88493" lon="-0.15549">
        <ele>1771</ele>
        <time>2015-12-03T09:21:13Z</time>
      </trkpt>
      <trkpt lat="42.88491" lon="-0.15563">
        <ele>1776</ele>
        <time>2015-12-03T09:21:16Z</time>
      </trkpt>
      <trkpt lat="42.88489" lon="-0.15577">
        <ele>1782</ele>
        <time>2015-12-03T09:21:19Z</time>
      </trkpt>
      <trkpt lat="42.88487" lon="-0.15592">
        <ele>1789</ele>
        <time>2015-12-03T09:21:22Z</time>
      </trkpt>
      <trkpt lat="42.88486" lon="-0.15603">
        <ele>1794</ele>
        <time>2015-12-03T09:21:25Z</time>
      </trkpt>
      <trkpt lat="42.88485" lon="-0.15617">
        <ele>1800</ele>
        <time>2015-12-03T09:21:28Z</time>
      </trkpt>
      <trkpt lat="42.88483" lon="-0.15635">
        <ele>1806</ele>
        <time>2015-12-03T09:21:32Z</time>
      </trkpt>
      <trkpt lat="42.88482" lon="-0.15642">
        <ele>1809</ele>
        <time>2015-12-03T09:21:34Z</time>
      </trkpt>
      <trkpt lat="42.88481" lon="-0.15656">
        <ele>1813</ele>
        <time>2015-12-03T09:21:37Z</time>
      </trkpt>
      <trkpt lat="42.88479" lon="-0.15674">
        <ele>1819</ele>
        <time>2015-12-03T09:21:41Z</time>
      </trkpt>
      <trkpt lat="42.88477" lon="-0.15684">
        <ele>1823</ele>
        <time>2015-12-03T09:21:43Z</time>
      </trkpt>
      <trkpt lat="42.88475" lon="-0.15698">
        <ele>1827</ele>
        <time>2015-12-03T09:21:46Z</time>
      </trkpt>
      <trkpt lat="42.88473" lon="-0.15711">
        <ele>1831</ele>
        <time>2015-12-03T09:21:49Z</time>
      </trkpt>
      <trkpt lat="42.88471" lon="-0.15723">
        <ele>1835</ele>
        <time>2015-12-03T09:21:52Z</time>
      </trkpt>
      <trkpt lat="42.8847" lon="-0.15731">
        <ele>1837</ele>
        <time>2015-12-03T09:21:54Z</time>
      </trkpt>
      <trkpt lat="42.88469" lon="-0.15745">
        <ele>1841</ele>
        <time>2015-12-03T09:21:57Z</time>
      </trkpt>
      <trkpt lat="42.88468" lon="-0.15754">
        <ele>1843</ele>
        <time>2015-12-03T09:21:59Z</time>
      </trkpt>
      <trkpt lat="42.88466" lon="-0.15768">
        <ele>1846</ele>
        <time>2015-12-03T09:22:02Z</time>
      </trkpt>
      <trkpt lat="42.88463" lon="-0.15786">
        <ele>1851</ele>
        <time>2015-12-03T09:22:06Z</time>
      </trkpt>
      <trkpt lat="42.88461" lon="-0.15796">
        <ele>1854</ele>
        <time>2015-12-03T09:22:08Z</time>
      </trkpt>
      <trkpt lat="42.88459" lon="-0.15805">
        <ele>1857</ele>
        <time>2015-12-03T09:22:10Z</time>
      </trkpt>
      <trkpt lat="42.88458" lon="-0.15813">
        <ele>1859</ele>
        <time>2015-12-03T09:22:12Z</time>
      </trkpt>
      <trkpt lat="42.88457" lon="-0.15826">
        <ele>1864</ele>
        <time>2015-12-03T09:22:15Z</time>
      </trkpt>
      <trkpt lat="42.88455" lon="-0.15836">
        <ele>1868</ele>
        <time>2015-12-03T09:22:17Z</time>
      </trkpt>
      <trkpt lat="42.88453" lon="-0.15858">
        <ele>1876</ele>
        <time>2015-12-03T09:22:22Z</time>
      </trkpt>
      <trkpt lat="42.88452" lon="-0.15862">
        <ele>1877</ele>
        <time>2015-12-03T09:22:23Z</time>
      </trkpt>
      <trkpt lat="42.8845" lon="-0.15874">
        <ele>1881</ele>
        <time>2015-12-03T09:22:26Z</time>
      </trkpt>
      <trkpt lat="42.88447" lon="-0.15888">
        <ele>1885</ele>
        <time>2015-12-03T09:22:29Z</time>
      </trkpt>
      <trkpt lat="42.88446" lon="-0.15895">
        <ele>1888</ele>
        <time>2015-12-03T09:22:31Z</time>
      </trkpt>
      <trkpt lat="42.88443" lon="-0.15909">
        <ele>1892</ele>
        <time>2015-12-03T09:22:34Z</time>
      </trkpt>
      <trkpt lat="42.88442" lon="-0.15919">
        <ele>1895</ele>
        <time>2015-12-03T09:22:36Z</time>
      </trkpt>
      <trkpt lat="42.8844" lon="-0.15928">
        <ele>1898</ele>
        <time>2015-12-03T09:22:38Z</time>
      </trkpt>
      <trkpt lat="42.88438" lon="-0.15941">
        <ele>1902</ele>
        <time>2015-12-03T09:22:41Z</time>
      </trkpt>
      <trkpt lat="42.88436" lon="-0.15954">
        <ele>1907</ele>
        <time>2015-12-03T09:22:44Z</time>
      </trkpt>
      <trkpt lat="42.88433" lon="-0.15973">
        <ele>1914</ele>
        <time>2015-12-03T09:22:48Z</time>
      </trkpt>
      <trkpt lat="42.88432" lon="-0.15982">
        <ele>1918</ele>
        <time>2015-12-03T09:22:50Z</time>
      </trkpt>
      <trkpt lat="42.88431" lon="-0.15991">
        <ele>1922</ele>
        <time>2015-12-03T09:22:52Z</time>
      </trkpt>
      <trkpt lat="42.8843" lon="-0.16001">
        <ele>1926</ele>
        <time>2015-12-03T09:22:54Z</time>
      </trkpt>
      <trkpt lat="42.88428" lon="-0.16015">
        <ele>1932</ele>
        <time>2015-12-03T09:22:57Z</time>
      </trkpt>
      <trkpt lat="42.88427" lon="-0.16024">
        <ele>1936</ele>
        <time>2015-12-03T09:22:59Z</time>
      </trkpt>
      <trkpt lat="42.88424" lon="-0.16039">
        <ele>1941</ele>
        <time>2015-12-03T09:23:02Z</time>
      </trkpt>
      <trkpt lat="42.88422" lon="-0.16052">
        <ele>1946</ele>
        <time>2015-12-03T09:23:05Z</time>
      </trkpt>
      <trkpt lat="42.88421" lon="-0.16065">
        <ele>1950</ele>
        <time>2015-12-03T09:23:08Z</time>
      </trkpt>
      <trkpt lat="42.88418" lon="-0.16079">
        <ele>1954</ele>
        <time>2015-12-03T09:23:11Z</time>
      </trkpt>
      <trkpt lat="42.88416" lon="-0.16088">
        <ele>1957</ele>
        <time>2015-12-03T09:23:13Z</time>
      </trkpt>
      <trkpt lat="42.88415" lon="-0.16102">
        <ele>1961</ele>
        <time>2015-12-03T09:23:16Z</time>
      </trkpt>
      <trkpt lat="42.88413" lon="-0.1611">
        <ele>1963</ele>
        <time>2015-12-03T09:23:18Z</time>
      </trkpt>
      <trkpt lat="42.88412" lon="-0.16121">
        <ele>1966</ele>
        <time>2015-12-03T09:23:21Z</time>
      </trkpt>
      <trkpt lat="42.8841" lon="-0.16133">
        <ele>1969</ele>
        <time>2015-12-03T09:23:24Z</time>
      </trkpt>
      <trkpt lat="42.88409" lon="-0.16145">
        <ele>1972</ele>
        <time>2015-12-03T09:23:27Z</time>
      </trkpt>
      <trkpt lat="42.88407" lon="-0.16159">
        <ele>1977</ele>
        <time>2015-12-03T09:23:30Z</time>
      </trkpt>
      <trkpt lat="42.88405" lon="-0.16168">
        <ele>1981</ele>
        <time>2015-12-03T09:23:32Z</time>
      </trkpt>
      <trkpt lat="42.88404" lon="-0.16179">
        <ele>1984</ele>
        <time>2015-12-03T09:23:35Z</time>
      </trkpt>
      <trkpt lat="42.88403" lon="-0.16188">
        <ele>1987</ele>
        <time>2015-12-03T09:23:37Z</time>
      </trkpt>
      <trkpt lat="42.88401" lon="-0.16201">
        <ele>1992</ele>
        <time>2015-12-03T09:23:40Z</time>
      </trkpt>
      <trkpt lat="42.884" lon="-0.16209">
        <ele>1994</ele>
        <time>2015-12-03T09:23:42Z</time>
      </trkpt>
      <trkpt lat="42.88397" lon="-0.16221">
        <ele>1999</ele>
        <time>2015-12-03T09:23:45Z</time>
      </trkpt>
      <trkpt lat="42.88396" lon="-0.16229">
        <ele>2001</ele>
        <time>2015-12-03T09:23:47Z</time>
      </trkpt>
      <trkpt lat="42.88394" lon="-0.16243">
        <ele>2004</ele>
        <time>2015-12-03T09:23:50Z</time>
      </trkpt>
      <trkpt lat="42.88393" lon="-0.16253">
        <ele>2006</ele>
        <time>2015-12-03T09:23:52Z</time>
      </trkpt>
      <trkpt lat="42.88391" lon="-0.16267">
        <ele>2010</ele>
        <time>2015-12-03T09:23:55Z</time>
      </trkpt>
      <trkpt lat="42.88389" lon="-0.16285">
        <ele>2015</ele>
        <time>2015-12-03T09:23:59Z</time>
      </trkpt>
      <trkpt lat="42.88388" lon="-0.16294">
        <ele>2018</ele>
        <time>2015-12-03T09:24:01Z</time>
      </trkpt>
      <trkpt lat="42.88386" lon="-0.16309">
        <ele>2022</ele>
        <time>2015-12-03T09:24:04Z</time>
      </trkpt>
      <trkpt lat="42.88384" lon="-0.16322">
        <ele>2026</ele>
        <time>2015-12-03T09:24:07Z</time>
      </trkpt>
      <trkpt lat="42.88382" lon="-0.16331">
        <ele>2029</ele>
        <time>2015-12-03T09:24:09Z</time>
      </trkpt>
      <trkpt lat="42.8838" lon="-0.16345">
        <ele>2034</ele>
        <time>2015-12-03T09:24:12Z</time>
      </trkpt>
      <trkpt lat="42.88379" lon="-0.16354">
        <ele>2036</ele>
        <time>2015-12-03T09:24:14Z</time>
      </trkpt>
      <trkpt lat="42.88376" lon="-0.16369">
        <ele>2041</ele>
        <time>2015-12-03T09:24:17Z</time>
      </trkpt>
      <trkpt lat="42.88375" lon="-0.16378">
        <ele>2044</ele>
        <time>2015-12-03T09:24:19Z</time>
      </trkpt>
      <trkpt lat="42.88374" lon="-0.16394">
        <ele>2047</ele>
        <time>2015-12-03T09:24:23Z</time>
      </trkpt>
      <trkpt lat="42.88373" lon="-0.16399">
        <ele>2049</ele>
        <time>2015-12-03T09:24:24Z</time>
      </trkpt>
      <trkpt lat="42.88371" lon="-0.16412">
        <ele>2052</ele>
        <time>2015-12-03T09:24:27Z</time>
      </trkpt>
      <trkpt lat="42.88369" lon="-0.16422">
        <ele>2054</ele>
        <time>2015-12-03T09:24:29Z</time>
      </trkpt>
      <trkpt lat="42.88368" lon="-0.16434">
        <ele>2057</ele>
        <time>2015-12-03T09:24:32Z</time>
      </trkpt>
      <trkpt lat="42.88366" lon="-0.16443">
        <ele>2059</ele>
        <time>2015-12-03T09:24:34Z</time>
      </trkpt>
      <trkpt lat="42.88364" lon="-0.16457">
        <ele>2062</ele>
        <time>2015-12-03T09:24:37Z</time>
      </trkpt>
      <trkpt lat="42.88361" lon="-0.16471">
        <ele>2066</ele>
        <time>2015-12-03T09:24:40Z</time>
      </trkpt>
      <trkpt lat="42.88359" lon="-0.16485">
        <ele>2069</ele>
        <time>2015-12-03T09:24:43Z</time>
      </trkpt>
      <trkpt lat="42.88357" lon="-0.16495">
        <ele>2072</ele>
        <time>2015-12-03T09:24:46Z</time>
      </trkpt>
      <trkpt lat="42.88355" lon="-0.1651">
        <ele>2076</ele>
        <time>2015-12-03T09:24:49Z</time>
      </trkpt>
      <trkpt lat="42.88353" lon="-0.16525">
        <ele>2080</ele>
        <time>2015-12-03T09:24:52Z</time>
      </trkpt>
      <trkpt lat="42.88351" lon="-0.16539">
        <ele>2083</ele>
        <time>2015-12-03T09:24:55Z</time>
      </trkpt>
      <trkpt lat="42.88349" lon="-0.16553">
        <ele>2086</ele>
        <time>2015-12-03T09:24:58Z</time>
      </trkpt>
      <trkpt lat="42.88347" lon="-0.16567">
        <ele>2089</ele>
        <time>2015-12-03T09:25:01Z</time>
      </trkpt>
      <trkpt lat="42.88343" lon="-0.1659">
        <ele>2094</ele>
        <time>2015-12-03T09:25:06Z</time>
      </trkpt>
      <trkpt lat="42.88342" lon="-0.16595">
        <ele>2096</ele>
        <time>2015-12-03T09:25:07Z</time>
      </trkpt>
      <trkpt lat="42.88339" lon="-0.16614">
        <ele>2101</ele>
        <time>2015-12-03T09:25:11Z</time>
      </trkpt>
      <trkpt lat="42.88339" lon="-0.16619">
        <ele>2102</ele>
        <time>2015-12-03T09:25:12Z</time>
      </trkpt>
      <trkpt lat="42.88337" lon="-0.16633">
        <ele>2106</ele>
        <time>2015-12-03T09:25:15Z</time>
      </trkpt>
      <trkpt lat="42.88335" lon="-0.16647">
        <ele>2111</ele>
        <time>2015-12-03T09:25:18Z</time>
      </trkpt>
      <trkpt lat="42.88332" lon="-0.1667">
        <ele>2118</ele>
        <time>2015-12-03T09:25:23Z</time>
      </trkpt>
      <trkpt lat="42.88329" lon="-0.16684">
        <ele>2122</ele>
        <time>2015-12-03T09:25:26Z</time>
      </trkpt>
      <trkpt lat="42.88327" lon="-0.16694">
        <ele>2123</ele>
        <time>2015-12-03T09:25:28Z</time>
      </trkpt>
      <trkpt lat="42.88325" lon="-0.16704">
        <ele>2125</ele>
        <time>2015-12-03T09:25:30Z</time>
      </trkpt>
      <trkpt lat="42.88323" lon="-0.16719">
        <ele>2127</ele>
        <time>2015-12-03T09:25:33Z</time>
      </trkpt>
      <trkpt lat="42.88321" lon="-0.16733">
        <ele>2129</ele>
        <time>2015-12-03T09:25:36Z</time>
      </trkpt>
      <trkpt lat="42.88319" lon="-0.16747">
        <ele>2130</ele>
        <time>2015-12-03T09:25:39Z</time>
      </trkpt>
      <trkpt lat="42.88317" lon="-0.16761">
        <ele>2132</ele>
        <time>2015-12-03T09:25:42Z</time>
      </trkpt>
      <trkpt lat="42.88315" lon="-0.16774">
        <ele>2134</ele>
        <time>2015-12-03T09:25:45Z</time>
      </trkpt>
      <trkpt lat="42.88313" lon="-0.16788">
        <ele>2137</ele>
        <time>2015-12-03T09:25:48Z</time>
      </trkpt>
      <trkpt lat="42.8831" lon="-0.16802">
        <ele>2140</ele>
        <time>2015-12-03T09:25:51Z</time>
      </trkpt>
      <trkpt lat="42.88309" lon="-0.16817">
        <ele>2143</ele>
        <time>2015-12-03T09:25:54Z</time>
      </trkpt>
      <trkpt lat="42.88306" lon="-0.1683">
        <ele>2147</ele>
        <time>2015-12-03T09:25:57Z</time>
      </trkpt>
      <trkpt lat="42.88304" lon="-0.16844">
        <ele>2150</ele>
        <time>2015-12-03T09:26:00Z</time>
      </trkpt>
      <trkpt lat="42.88303" lon="-0.16857">
        <ele>2154</ele>
        <time>2015-12-03T09:26:03Z</time>
      </trkpt>
      <trkpt lat="42.88301" lon="-0.16866">
        <ele>2156</ele>
        <time>2015-12-03T09:26:05Z</time>
      </trkpt>
      <trkpt lat="42.88299" lon="-0.16874">
        <ele>2158</ele>
        <time>2015-12-03T09:26:07Z</time>
      </trkpt>
      <trkpt lat="42.88298" lon="-0.16888">
        <ele>2162</ele>
        <time>2015-12-03T09:26:10Z</time>
      </trkpt>
      <trkpt lat="42.88296" lon="-0.16902">
        <ele>2165</ele>
        <time>2015-12-03T09:26:13Z</time>
      </trkpt>
      <trkpt lat="42.88293" lon="-0.16915">
        <ele>2168</ele>
        <time>2015-12-03T09:26:16Z</time>
      </trkpt>
      <trkpt lat="42.88291" lon="-0.16924">
        <ele>2170</ele>
        <time>2015-12-03T09:26:18Z</time>
      </trkpt>
      <trkpt lat="42.8829" lon="-0.16943">
        <ele>2174</ele>
        <time>2015-12-03T09:26:22Z</time>
      </trkpt>
      <trkpt lat="42.88289" lon="-0.16948">
        <ele>2176</ele>
        <time>2015-12-03T09:26:23Z</time>
      </trkpt>
      <trkpt lat="42.88287" lon="-0.16964">
        <ele>2179</ele>
        <time>2015-12-03T09:26:26Z</time>
      </trkpt>
      <trkpt lat="42.88285" lon="-0.16971">
        <ele>2181</ele>
        <time>2015-12-03T09:26:28Z</time>
      </trkpt>
      <trkpt lat="42.88284" lon="-0.16985">
        <ele>2184</ele>
        <time>2015-12-03T09:26:31Z</time>
      </trkpt>
      <trkpt lat="42.88283" lon="-0.16997">
        <ele>2187</ele>
        <time>2015-12-03T09:26:34Z</time>
      </trkpt>
      <trkpt lat="42.8828" lon="-0.17012">
        <ele>2191</ele>
        <time>2015-12-03T09:26:37Z</time>
      </trkpt>
      <trkpt lat="42.88278" lon="-0.17027">
        <ele>2196</ele>
        <time>2015-12-03T09:26:40Z</time>
      </trkpt>
      <trkpt lat="42.88275" lon="-0.17042">
        <ele>2200</ele>
        <time>2015-12-03T09:26:43Z</time>
      </trkpt>
      <trkpt lat="42.88273" lon="-0.17051">
        <ele>2202</ele>
        <time>2015-12-03T09:26:45Z</time>
      </trkpt>
      <trkpt lat="42.88271" lon="-0.17071">
        <ele>2208</ele>
        <time>2015-12-03T09:26:49Z</time>
      </trkpt>
      <trkpt lat="42.8827" lon="-0.1708">
        <ele>2210</ele>
        <time>2015-12-03T09:26:51Z</time>
      </trkpt>
      <trkpt lat="42.88268" lon="-0.1709">
        <ele>2213</ele>
        <time>2015-12-03T09:26:53Z</time>
      </trkpt>
      <trkpt lat="42.88267" lon="-0.17103">
        <ele>2216</ele>
        <time>2015-12-03T09:26:56Z</time>
      </trkpt>
      <trkpt lat="42.88265" lon="-0.17112">
        <ele>2219</ele>
        <time>2015-12-03T09:26:58Z</time>
      </trkpt>
      <trkpt lat="42.88263" lon="-0.17125">
        <ele>2222</ele>
        <time>2015-12-03T09:27:01Z</time>
      </trkpt>
      <trkpt lat="42.88261" lon="-0.17135">
        <ele>2225</ele>
        <time>2015-12-03T09:27:03Z</time>
      </trkpt>
      <trkpt lat="42.8826" lon="-0.17149">
        <ele>2229</ele>
        <time>2015-12-03T09:27:06Z</time>
      </trkpt>
      <trkpt lat="42.88257" lon="-0.17162">
        <ele>2232</ele>
        <time>2015-12-03T09:27:09Z</time>
      </trkpt>
      <trkpt lat="42.88255" lon="-0.17177">
        <ele>2235</ele>
        <time>2015-12-03T09:27:12Z</time>
      </trkpt>
      <trkpt lat="42.88254" lon="-0.17186">
        <ele>2237</ele>
        <time>2015-12-03T09:27:14Z</time>
      </trkpt>
      <trkpt lat="42.8825" lon="-0.17198">
        <ele>2241</ele>
        <time>2015-12-03T09:27:17Z</time>
      </trkpt>
      <trkpt lat="42.88249" lon="-0.17206">
        <ele>2243</ele>
        <time>2015-12-03T09:27:19Z</time>
      </trkpt>
      <trkpt lat="42.88246" lon="-0.17224">
        <ele>2249</ele>
        <time>2015-12-03T09:27:23Z</time>
      </trkpt>
      <trkpt lat="42.88246" lon="-0.17228">
        <ele>2251</ele>
        <time>2015-12-03T09:27:24Z</time>
      </trkpt>
      <trkpt lat="42.88244" lon="-0.17243">
        <ele>2255</ele>
        <time>2015-12-03T09:27:27Z</time>
      </trkpt>
      <trkpt lat="42.88242" lon="-0.17258">
        <ele>2260</ele>
        <time>2015-12-03T09:27:30Z</time>
      </trkpt>
      <trkpt lat="42.8824" lon="-0.17272">
        <ele>2264</ele>
        <time>2015-12-03T09:27:33Z</time>
      </trkpt>
      <trkpt lat="42.88238" lon="-0.17285">
        <ele>2268</ele>
        <time>2015-12-03T09:27:36Z</time>
      </trkpt>
      <trkpt lat="42.88236" lon="-0.17294">
        <ele>2272</ele>
        <time>2015-12-03T09:27:38Z</time>
      </trkpt>
      <trkpt lat="42.88235" lon="-0.17306">
        <ele>2277</ele>
        <time>2015-12-03T09:27:41Z</time>
      </trkpt>
      <trkpt lat="42.88234" lon="-0.17315">
        <ele>2280</ele>
        <time>2015-12-03T09:27:43Z</time>
      </trkpt>
      <trkpt lat="42.88233" lon="-0.17328">
        <ele>2286</ele>
        <time>2015-12-03T09:27:46Z</time>
      </trkpt>
      <trkpt lat="42.88232" lon="-0.17341">
        <ele>2291</ele>
        <time>2015-12-03T09:27:49Z</time>
      </trkpt>
      <trkpt lat="42.88231" lon="-0.17351">
        <ele>2295</ele>
        <time>2015-12-03T09:27:52Z</time>
      </trkpt>
      <trkpt lat="42.8823" lon="-0.17359">
        <ele>2298</ele>
        <time>2015-12-03T09:27:54Z</time>
      </trkpt>
      <trkpt lat="42.88229" lon="-0.17372">
        <ele>2303</ele>
        <time>2015-12-03T09:27:57Z</time>
      </trkpt>
      <trkpt lat="42.88228" lon="-0.17379">
        <ele>2306</ele>
        <time>2015-12-03T09:27:59Z</time>
      </trkpt>
      <trkpt lat="42.88225" lon="-0.17392">
        <ele>2311</ele>
        <time>2015-12-03T09:28:02Z</time>
      </trkpt>
      <trkpt lat="42.88223" lon="-0.17406">
        <ele>2317</ele>
        <time>2015-12-03T09:28:05Z</time>
      </trkpt>
      <trkpt lat="42.8822" lon="-0.1742">
        <ele>2322</ele>
        <time>2015-12-03T09:28:08Z</time>
      </trkpt>
      <trkpt lat="42.88218" lon="-0.17435">
        <ele>2327</ele>
        <time>2015-12-03T09:28:11Z</time>
      </trkpt>
      <trkpt lat="42.88216" lon="-0.17445">
        <ele>2330</ele>
        <time>2015-12-03T09:28:16Z</time>
      </trkpt>
      <trkpt lat="42.88216" lon="-0.17446">
        <ele>2331</ele>
        <time>2015-12-03T09:28:18Z</time>
      </trkpt>
      <trkpt lat="42.88214" lon="-0.1745">
        <ele>2332</ele>
        <time>2015-12-03T09:28:22Z</time>
      </trkpt>
      <trkpt lat="42.88207" lon="-0.17449">
        <ele>2332</ele>
        <time>2015-12-03T09:28:24Z</time>
      </trkpt>
      <trkpt lat="42.88197" lon="-0.17439">
        <ele>2330</ele>
        <time>2015-12-03T09:28:28Z</time>
      </trkpt>
      <trkpt lat="42.88195" lon="-0.17435">
        <ele>2329</ele>
        <time>2015-12-03T09:28:29Z</time>
      </trkpt>
      <trkpt lat="42.88183" lon="-0.17415">
        <ele>2324</ele>
        <time>2015-12-03T09:28:33Z</time>
      </trkpt>
      <trkpt lat="42.88174" lon="-0.17404">
        <ele>2321</ele>
        <time>2015-12-03T09:28:35Z</time>
      </trkpt>
      <trkpt lat="42.87863" lon="-0.16611">
        <ele>2155</ele>
        <time>2015-12-03T09:30:20Z</time>
      </trkpt>
      <trkpt lat="42.87871" lon="-0.1657">
        <ele>2136</ele>
        <time>2015-12-03T09:30:25Z</time>
      </trkpt>
      <trkpt lat="42.87879" lon="-0.16523">
        <ele>2115</ele>
        <time>2015-12-03T09:30:31Z</time>
      </trkpt>
      <trkpt lat="42.87885" lon="-0.16491">
        <ele>2103</ele>
        <time>2015-12-03T09:30:35Z</time>
      </trkpt>
      <trkpt lat="42.87902" lon="-0.16435">
        <ele>2079</ele>
        <time>2015-12-03T09:30:44Z</time>
      </trkpt>
      <trkpt lat="42.87897" lon="-0.16422">
        <ele>2074</ele>
        <time>2015-12-03T09:30:47Z</time>
      </trkpt>
      <trkpt lat="42.88532" lon="-0.15273">
        <ele>1736</ele>
        <time>2015-12-03T09:33:35Z</time>
      </trkpt>
      <trkpt lat="42.88533" lon="-0.15273">
        <ele>1736</ele>
        <time>2015-12-03T09:33:38Z</time>
      </trkpt>
      <trkpt lat="42.88532" lon="-0.15278">
        <ele>1737</ele>
        <time>2015-12-03T09:33:43Z</time>
      </trkpt>
      <trkpt lat="42.88532" lon="-0.15278">
        <ele>1737</ele>
        <time>2015-12-03T09:33:44Z</time>
      </trkpt>
      <trkpt lat="42.88532" lon="-0.15278">
        <ele>1737</ele>
        <time>2015-12-03T09:33:47Z</time>
      </trkpt>
      <trkpt lat="42.88532" lon="-0.15279">
        <ele>1737</ele>
        <time>2015-12-03T09:33:50Z</time>
      </trkpt>
      <trkpt lat="42.8853" lon="-0.1529">
        <ele>1738</ele>
        <time>2015-12-03T09:33:55Z</time>
      </trkpt>
      <trkpt lat="42.88528" lon="-0.15296">
        <ele>1739</ele>
        <time>2015-12-03T09:33:56Z</time>
      </trkpt>
      <trkpt lat="42.88527" lon="-0.15324">
        <ele>1743</ele>
        <time>2015-12-03T09:34:01Z</time>
      </trkpt>
      <trkpt lat="42.88526" lon="-0.15343">
        <ele>1745</ele>
        <time>2015-12-03T09:34:04Z</time>
      </trkpt>
      <trkpt lat="42.88523" lon="-0.15354">
        <ele>1746</ele>
        <time>2015-12-03T09:34:06Z</time>
      </trkpt>
      <trkpt lat="42.88522" lon="-0.15363">
        <ele>1746</ele>
        <time>2015-12-03T09:34:08Z</time>
      </trkpt>
      <trkpt lat="42.88519" lon="-0.15382">
        <ele>1747</ele>
        <time>2015-12-03T09:34:12Z</time>
      </trkpt>
      <trkpt lat="42.88517" lon="-0.15393">
        <ele>1748</ele>
        <time>2015-12-03T09:34:14Z</time>
      </trkpt>
      <trkpt lat="42.88515" lon="-0.15407">
        <ele>1750</ele>
        <time>2015-12-03T09:34:17Z</time>
      </trkpt>
      <trkpt lat="42.88512" lon="-0.15422">
        <ele>1751</ele>
        <time>2015-12-03T09:34:20Z</time>
      </trkpt>
      <trkpt lat="42.8851" lon="-0.15435">
        <ele>1753</ele>
        <time>2015-12-03T09:34:23Z</time>
      </trkpt>
      <trkpt lat="42.88508" lon="-0.15448">
        <ele>1756</ele>
        <time>2015-12-03T09:34:26Z</time>
      </trkpt>
      <trkpt lat="42.88507" lon="-0.15462">
        <ele>1759</ele>
        <time>2015-12-03T09:34:29Z</time>
      </trkpt>
      <trkpt lat="42.88505" lon="-0.15476">
        <ele>1761</ele>
        <time>2015-12-03T09:34:32Z</time>
      </trkpt>
      <trkpt lat="42.88502" lon="-0.15492">
        <ele>1762</ele>
        <time>2015-12-03T09:34:35Z</time>
      </trkpt>
      <trkpt lat="42.88502" lon="-0.15504">
        <ele>1762</ele>
        <time>2015-12-03T09:34:38Z</time>
      </trkpt>
      <trkpt lat="42.885" lon="-0.15517">
        <ele>1764</ele>
        <time>2015-12-03T09:34:41Z</time>
      </trkpt>
      <trkpt lat="42.88496" lon="-0.15535">
        <ele>1767</ele>
        <time>2015-12-03T09:34:45Z</time>
      </trkpt>
      <trkpt lat="42.88493" lon="-0.15543">
        <ele>1769</ele>
        <time>2015-12-03T09:34:47Z</time>
      </trkpt>
      <trkpt lat="42.88491" lon="-0.15556">
        <ele>1774</ele>
        <time>2015-12-03T09:34:50Z</time>
      </trkpt>
      <trkpt lat="42.88488" lon="-0.15569">
        <ele>1779</ele>
        <time>2015-12-03T09:34:53Z</time>
      </trkpt>
      <trkpt lat="42.88486" lon="-0.15582">
        <ele>1784</ele>
        <time>2015-12-03T09:34:56Z</time>
      </trkpt>
      <trkpt lat="42.88485" lon="-0.15592">
        <ele>1789</ele>
        <time>2015-12-03T09:34:58Z</time>
      </trkpt>
      <trkpt lat="42.88482" lon="-0.15607">
        <ele>1796</ele>
        <time>2015-12-03T09:35:01Z</time>
      </trkpt>
      <trkpt lat="42.8848" lon="-0.15631">
        <ele>1805</ele>
        <time>2015-12-03T09:35:06Z</time>
      </trkpt>
      <trkpt lat="42.88479" lon="-0.15635">
        <ele>1807</ele>
        <time>2015-12-03T09:35:07Z</time>
      </trkpt>
      <trkpt lat="42.88477" lon="-0.15645">
        <ele>1810</ele>
        <time>2015-12-03T09:35:09Z</time>
      </trkpt>
      <trkpt lat="42.88475" lon="-0.1566">
        <ele>1815</ele>
        <time>2015-12-03T09:35:12Z</time>
      </trkpt>
      <trkpt lat="42.88474" lon="-0.15679">
        <ele>1821</ele>
        <time>2015-12-03T09:35:16Z</time>
      </trkpt>
      <trkpt lat="42.88473" lon="-0.15683">
        <ele>1823</ele>
        <time>2015-12-03T09:35:17Z</time>
      </trkpt>
      <trkpt lat="42.88472" lon="-0.15696">
        <ele>1827</ele>
        <time>2015-12-03T09:35:20Z</time>
      </trkpt>
      <trkpt lat="42.88471" lon="-0.15703">
        <ele>1828</ele>
        <time>2015-12-03T09:35:22Z</time>
      </trkpt>
      <trkpt lat="42.88469" lon="-0.15716">
        <ele>1832</ele>
        <time>2015-12-03T09:35:25Z</time>
      </trkpt>
      <trkpt lat="42.88465" lon="-0.15736">
        <ele>1838</ele>
        <time>2015-12-03T09:35:30Z</time>
      </trkpt>
      <trkpt lat="42.88465" lon="-0.15741">
        <ele>1839</ele>
        <time>2015-12-03T09:35:31Z</time>
      </trkpt>
      <trkpt lat="42.88463" lon="-0.15759">
        <ele>1844</ele>
        <time>2015-12-03T09:35:35Z</time>
      </trkpt>
      <trkpt lat="42.88462" lon="-0.15768">
        <ele>1846</ele>
        <time>2015-12-03T09:35:37Z</time>
      </trkpt>
      <trkpt lat="42.88461" lon="-0.15776">
        <ele>1848</ele>
        <time>2015-12-03T09:35:39Z</time>
      </trkpt>
      <trkpt lat="42.88458" lon="-0.15791">
        <ele>1852</ele>
        <time>2015-12-03T09:35:42Z</time>
      </trkpt>
      <trkpt lat="42.88457" lon="-0.15804">
        <ele>1856</ele>
        <time>2015-12-03T09:35:45Z</time>
      </trkpt>
      <trkpt lat="42.88456" lon="-0.15818">
        <ele>1861</ele>
        <time>2015-12-03T09:35:48Z</time>
      </trkpt>
      <trkpt lat="42.88454" lon="-0.15828">
        <ele>1865</ele>
        <time>2015-12-03T09:35:50Z</time>
      </trkpt>
      <trkpt lat="42.88453" lon="-0.15841">
        <ele>1870</ele>
        <time>2015-12-03T09:35:53Z</time>
      </trkpt>
      <trkpt lat="42.88451" lon="-0.15857">
        <ele>1875</ele>
        <time>2015-12-03T09:35:57Z</time>
      </trkpt>
      <trkpt lat="42.88451" lon="-0.15861">
        <ele>1877</ele>
        <time>2015-12-03T09:35:58Z</time>
      </trkpt>
      <trkpt lat="42.8845" lon="-0.15873">
        <ele>1880</ele>
        <time>2015-12-03T09:36:01Z</time>
      </trkpt>
      <trkpt lat="42.8845" lon="-0.15885">
        <ele>1884</ele>
        <time>2015-12-03T09:36:04Z</time>
      </trkpt>
      <trkpt lat="42.88446" lon="-0.15905">
        <ele>1890</ele>
        <time>2015-12-03T09:36:08Z</time>
      </trkpt>
      <trkpt lat="42.88443" lon="-0.15923">
        <ele>1896</ele>
        <time>2015-12-03T09:36:12Z</time>
      </trkpt>
      <trkpt lat="42.88442" lon="-0.15927">
        <ele>1897</ele>
        <time>2015-12-03T09:36:13Z</time>
      </trkpt>
      <trkpt lat="42.88439" lon="-0.1594">
        <ele>1902</ele>
        <time>2015-12-03T09:36:16Z</time>
      </trkpt>
      <trkpt lat="42.88438" lon="-0.15948">
        <ele>1905</ele>
        <time>2015-12-03T09:36:18Z</time>
      </trkpt>
      <trkpt lat="42.88436" lon="-0.15963">
        <ele>1910</ele>
        <time>2015-12-03T09:36:21Z</time>
      </trkpt>
      <trkpt lat="42.88435" lon="-0.15972">
        <ele>1914</ele>
        <time>2015-12-03T09:36:23Z</time>
      </trkpt>
      <trkpt lat="42.88434" lon="-0.15983">
        <ele>1918</ele>
        <time>2015-12-03T09:36:26Z</time>
      </trkpt>
      <trkpt lat="42.88432" lon="-0.15997">
        <ele>1924</ele>
        <time>2015-12-03T09:36:29Z</time>
      </trkpt>
      <trkpt lat="42.8843" lon="-0.16009">
        <ele>1930</ele>
        <time>2015-12-03T09:36:32Z</time>
      </trkpt>
      <trkpt lat="42.88428" lon="-0.1602">
        <ele>1934</ele>
        <time>2015-12-03T09:36:34Z</time>
      </trkpt>
      <trkpt lat="42.88426" lon="-0.16032">
        <ele>1938</ele>
        <time>2015-12-03T09:36:37Z</time>
      </trkpt>
      <trkpt lat="42.88425" lon="-0.16044">
        <ele>1943</ele>
        <time>2015-12-03T09:36:40Z</time>
      </trkpt>
      <trkpt lat="42.88423" lon="-0.16055">
        <ele>1946</ele>
        <time>2015-12-03T09:36:43Z</time>
      </trkpt>
      <trkpt lat="42.88421" lon="-0.16068">
        <ele>1951</ele>
        <time>2015-12-03T09:36:46Z</time>
      </trkpt>
      <trkpt lat="42.88417" lon="-0.1609">
        <ele>1957</ele>
        <time>2015-12-03T09:36:51Z</time>
      </trkpt>
      <trkpt lat="42.88414" lon="-0.16104">
        <ele>1961</ele>
        <time>2015-12-03T09:36:54Z</time>
      </trkpt>
      <trkpt lat="42.88412" lon="-0.16118">
        <ele>1965</ele>
        <time>2015-12-03T09:36:57Z</time>
      </trkpt>
      <trkpt lat="42.8841" lon="-0.1613">
        <ele>1968</ele>
        <time>2015-12-03T09:37:00Z</time>
      </trkpt>
      <trkpt lat="42.88409" lon="-0.16133">
        <ele>1969</ele>
        <time>2015-12-03T09:37:01Z</time>
      </trkpt>
      <trkpt lat="42.88407" lon="-0.16148">
        <ele>1974</ele>
        <time>2015-12-03T09:37:04Z</time>
      </trkpt>
      <trkpt lat="42.88403" lon="-0.16173">
        <ele>1983</ele>
        <time>2015-12-03T09:37:09Z</time>
      </trkpt>
      <trkpt lat="42.88403" lon="-0.16178">
        <ele>1984</ele>
        <time>2015-12-03T09:37:10Z</time>
      </trkpt>
      <trkpt lat="42.884" lon="-0.16193">
        <ele>1989</ele>
        <time>2015-12-03T09:37:13Z</time>
      </trkpt>
      <trkpt lat="42.88399" lon="-0.16206">
        <ele>1994</ele>
        <time>2015-12-03T09:37:16Z</time>
      </trkpt>
      <trkpt lat="42.88396" lon="-0.16217">
        <ele>1998</ele>
        <time>2015-12-03T09:37:19Z</time>
      </trkpt>
      <trkpt lat="42.88393" lon="-0.16232">
        <ele>2002</ele>
        <time>2015-12-03T09:37:22Z</time>
      </trkpt>
      <trkpt lat="42.88392" lon="-0.16241">
        <ele>2004</ele>
        <time>2015-12-03T09:37:24Z</time>
      </trkpt>
      <trkpt lat="42.88389" lon="-0.16256">
        <ele>2008</ele>
        <time>2015-12-03T09:37:27Z</time>
      </trkpt>
      <trkpt lat="42.88387" lon="-0.16266">
        <ele>2011</ele>
        <time>2015-12-03T09:37:30Z</time>
      </trkpt>
      <trkpt lat="42.88383" lon="-0.16286">
        <ele>2016</ele>
        <time>2015-12-03T09:37:35Z</time>
      </trkpt>
      <trkpt lat="42.88382" lon="-0.16291">
        <ele>2017</ele>
        <time>2015-12-03T09:37:36Z</time>
      </trkpt>
      <trkpt lat="42.88382" lon="-0.163">
        <ele>2020</ele>
        <time>2015-12-03T09:37:38Z</time>
      </trkpt>
      <trkpt lat="42.88379" lon="-0.16314">
        <ele>2025</ele>
        <time>2015-12-03T09:37:41Z</time>
      </trkpt>
      <trkpt lat="42.88378" lon="-0.16326">
        <ele>2028</ele>
        <time>2015-12-03T09:37:43Z</time>
      </trkpt>
      <trkpt lat="42.88375" lon="-0.16341">
        <ele>2033</ele>
        <time>2015-12-03T09:37:46Z</time>
      </trkpt>
      <trkpt lat="42.88374" lon="-0.1635">
        <ele>2036</ele>
        <time>2015-12-03T09:37:48Z</time>
      </trkpt>
      <trkpt lat="42.88371" lon="-0.16363">
        <ele>2040</ele>
        <time>2015-12-03T09:37:51Z</time>
      </trkpt>
      <trkpt lat="42.8837" lon="-0.16373">
        <ele>2043</ele>
        <time>2015-12-03T09:37:53Z</time>
      </trkpt>
      <trkpt lat="42.88368" lon="-0.16385">
        <ele>2046</ele>
        <time>2015-12-03T09:37:56Z</time>
      </trkpt>
      <trkpt lat="42.88366" lon="-0.16393">
        <ele>2048</ele>
        <time>2015-12-03T09:37:59Z</time>
      </trkpt>
      <trkpt lat="42.88364" lon="-0.16416">
        <ele>2053</ele>
        <time>2015-12-03T09:38:04Z</time>
      </trkpt>
      <trkpt lat="42.88364" lon="-0.16422">
        <ele>2054</ele>
        <time>2015-12-03T09:38:05Z</time>
      </trkpt>
      <trkpt lat="42.88362" lon="-0.16441">
        <ele>2059</ele>
        <time>2015-12-03T09:38:09Z</time>
      </trkpt>
      <trkpt lat="42.8836" lon="-0.16459">
        <ele>2063</ele>
        <time>2015-12-03T09:38:13Z</time>
      </trkpt>
      <trkpt lat="42.88358" lon="-0.16474">
        <ele>2067</ele>
        <time>2015-12-03T09:38:16Z</time>
      </trkpt>
      <trkpt lat="42.88357" lon="-0.16479">
        <ele>2068</ele>
        <time>2015-12-03T09:38:17Z</time>
      </trkpt>
      <trkpt lat="42.88356" lon="-0.16485">
        <ele>2070</ele>
        <time>2015-12-03T09:38:19Z</time>
      </trkpt>
      <trkpt lat="42.88354" lon="-0.16498">
        <ele>2073</ele>
        <time>2015-12-03T09:38:22Z</time>
      </trkpt>
      <trkpt lat="42.88351" lon="-0.16517">
        <ele>2078</ele>
        <time>2015-12-03T09:38:26Z</time>
      </trkpt>
      <trkpt lat="42.8835" lon="-0.16522">
        <ele>2080</ele>
        <time>2015-12-03T09:38:27Z</time>
      </trkpt>
      <trkpt lat="42.88349" lon="-0.16532">
        <ele>2082</ele>
        <time>2015-12-03T09:38:29Z</time>
      </trkpt>
      <trkpt lat="42.88347" lon="-0.16543">
        <ele>2084</ele>
        <time>2015-12-03T09:38:32Z</time>
      </trkpt>
      <trkpt lat="42.88343" lon="-0.16568">
        <ele>2089</ele>
        <time>2015-12-03T09:38:37Z</time>
      </trkpt>
      <trkpt lat="42.88341" lon="-0.1658">
        <ele>2092</ele>
        <time>2015-12-03T09:38:40Z</time>
      </trkpt>
      <trkpt lat="42.8834" lon="-0.16585">
        <ele>2094</ele>
        <time>2015-12-03T09:38:41Z</time>
      </trkpt>
      <trkpt lat="42.88337" lon="-0.16599">
        <ele>2098</ele>
        <time>2015-12-03T09:38:44Z</time>
      </trkpt>
      <trkpt lat="42.88333" lon="-0.16618">
        <ele>2103</ele>
        <time>2015-12-03T09:38:48Z</time>
      </trkpt>
      <trkpt lat="42.88331" lon="-0.16632">
        <ele>2108</ele>
        <time>2015-12-03T09:38:52Z</time>
      </trkpt>
      <trkpt lat="42.8833" lon="-0.16636">
        <ele>2109</ele>
        <time>2015-12-03T09:38:53Z</time>
      </trkpt>
      <trkpt lat="42.88327" lon="-0.16649">
        <ele>2114</ele>
        <time>2015-12-03T09:38:56Z</time>
      </trkpt>
      <trkpt lat="42.88325" lon="-0.16664">
        <ele>2118</ele>
        <time>2015-12-03T09:38:59Z</time>
      </trkpt>
      <trkpt lat="42.88323" lon="-0.16685">
        <ele>2123</ele>
        <time>2015-12-03T09:39:03Z</time>
      </trkpt>
      <trkpt lat="42.8832" lon="-0.16705">
        <ele>2126</ele>
        <time>2015-12-03T09:39:07Z</time>
      </trkpt>
      <trkpt lat="42.88317" lon="-0.16719">
        <ele>2128</ele>
        <time>2015-12-03T09:39:10Z</time>
      </trkpt>
      <trkpt lat="42.88315" lon="-0.1673">
        <ele>2130</ele>
        <time>2015-12-03T09:39:12Z</time>
      </trkpt>
      <trkpt lat="42.88313" lon="-0.16745">
        <ele>2131</ele>
        <time>2015-12-03T09:39:15Z</time>
      </trkpt>
      <trkpt lat="42.88311" lon="-0.16758">
        <ele>2133</ele>
        <time>2015-12-03T09:39:18Z</time>
      </trkpt>
      <trkpt lat="42.88309" lon="-0.16769">
        <ele>2135</ele>
        <time>2015-12-03T09:39:20Z</time>
      </trkpt>
      <trkpt lat="42.88307" lon="-0.16782">
        <ele>2137</ele>
        <time>2015-12-03T09:39:23Z</time>
      </trkpt>
      <trkpt lat="42.88306" lon="-0.16796">
        <ele>2140</ele>
        <time>2015-12-03T09:39:26Z</time>
      </trkpt>
      <trkpt lat="42.88304" lon="-0.16811">
        <ele>2144</ele>
        <time>2015-12-03T09:39:29Z</time>
      </trkpt>
      <trkpt lat="42.88303" lon="-0.16824">
        <ele>2147</ele>
        <time>2015-12-03T09:39:32Z</time>
      </trkpt>
      <trkpt lat="42.88301" lon="-0.16836">
        <ele>2150</ele>
        <time>2015-12-03T09:39:35Z</time>
      </trkpt>
      <trkpt lat="42.88298" lon="-0.16849">
        <ele>2153</ele>
        <time>2015-12-03T09:39:38Z</time>
      </trkpt>
      <trkpt lat="42.88296" lon="-0.16859">
        <ele>2156</ele>
        <time>2015-12-03T09:39:41Z</time>
      </trkpt>
      <trkpt lat="42.88294" lon="-0.16876">
        <ele>2160</ele>
        <time>2015-12-03T09:39:44Z</time>
      </trkpt>
      <trkpt lat="42.88292" lon="-0.1689">
        <ele>2164</ele>
        <time>2015-12-03T09:39:47Z</time>
      </trkpt>
      <trkpt lat="42.88289" lon="-0.16915">
        <ele>2169</ele>
        <time>2015-12-03T09:39:52Z</time>
      </trkpt>
      <trkpt lat="42.88289" lon="-0.16919">
        <ele>2170</ele>
        <time>2015-12-03T09:39:53Z</time>
      </trkpt>
      <trkpt lat="42.88286" lon="-0.1694">
        <ele>2174</ele>
        <time>2015-12-03T09:39:57Z</time>
      </trkpt>
      <trkpt lat="42.88285" lon="-0.16951">
        <ele>2177</ele>
        <time>2015-12-03T09:39:59Z</time>
      </trkpt>
      <trkpt lat="42.88282" lon="-0.16974">
        <ele>2182</ele>
        <time>2015-12-03T09:40:04Z</time>
      </trkpt>
      <trkpt lat="42.88281" lon="-0.16979">
        <ele>2184</ele>
        <time>2015-12-03T09:40:05Z</time>
      </trkpt>
      <trkpt lat="42.88277" lon="-0.16995">
        <ele>2188</ele>
        <time>2015-12-03T09:40:09Z</time>
      </trkpt>
      <trkpt lat="42.88276" lon="-0.17006">
        <ele>2191</ele>
        <time>2015-12-03T09:40:11Z</time>
      </trkpt>
      <trkpt lat="42.88275" lon="-0.17016">
        <ele>2193</ele>
        <time>2015-12-03T09:40:13Z</time>
      </trkpt>
      <trkpt lat="42.88273" lon="-0.17028">
        <ele>2197</ele>
        <time>2015-12-03T09:40:16Z</time>
      </trkpt>
      <trkpt lat="42.88271" lon="-0.17036">
        <ele>2199</ele>
        <time>2015-12-03T09:40:18Z</time>
      </trkpt>
      <trkpt lat="42.88269" lon="-0.17048">
        <ele>2202</ele>
        <time>2015-12-03T09:40:21Z</time>
      </trkpt>
      <trkpt lat="42.88267" lon="-0.17061">
        <ele>2206</ele>
        <time>2015-12-03T09:40:24Z</time>
      </trkpt>
      <trkpt lat="42.88265" lon="-0.17076">
        <ele>2210</ele>
        <time>2015-12-03T09:40:27Z</time>
      </trkpt>
      <trkpt lat="42.88264" lon="-0.17086">
        <ele>2213</ele>
        <time>2015-12-03T09:40:29Z</time>
      </trkpt>
      <trkpt lat="42.88261" lon="-0.17111">
        <ele>2220</ele>
        <time>2015-12-03T09:40:34Z</time>
      </trkpt>
      <trkpt lat="42.8826" lon="-0.17116">
        <ele>2221</ele>
        <time>2015-12-03T09:40:35Z</time>
      </trkpt>
      <trkpt lat="42.88258" lon="-0.17127">
        <ele>2224</ele>
        <time>2015-12-03T09:40:38Z</time>
      </trkpt>
      <trkpt lat="42.88255" lon="-0.17146">
        <ele>2229</ele>
        <time>2015-12-03T09:40:42Z</time>
      </trkpt>
      <trkpt lat="42.88254" lon="-0.1715">
        <ele>2230</ele>
        <time>2015-12-03T09:40:43Z</time>
      </trkpt>
      <trkpt lat="42.88252" lon="-0.17165">
        <ele>2233</ele>
        <time>2015-12-03T09:40:46Z</time>
      </trkpt>
      <trkpt lat="42.88251" lon="-0.17175">
        <ele>2235</ele>
        <time>2015-12-03T09:40:48Z</time>
      </trkpt>
      <trkpt lat="42.8825" lon="-0.17188">
        <ele>2239</ele>
        <time>2015-12-03T09:40:51Z</time>
      </trkpt>
      <trkpt lat="42.88248" lon="-0.17203">
        <ele>2243</ele>
        <time>2015-12-03T09:40:54Z</time>
      </trkpt>
      <trkpt lat="42.88246" lon="-0.17217">
        <ele>2247</ele>
        <time>2015-12-03T09:40:57Z</time>
      </trkpt>
      <trkpt lat="42.88244" lon="-0.17223">
        <ele>2250</ele>
        <time>2015-12-03T09:40:59Z</time>
      </trkpt>
      <trkpt lat="42.88242" lon="-0.17237">
        <ele>2254</ele>
        <time>2015-12-03T09:41:02Z</time>
      </trkpt>
      <trkpt lat="42.8824" lon="-0.17252">
        <ele>2258</ele>
        <time>2015-12-03T09:41:05Z</time>
      </trkpt>
      <trkpt lat="42.88238" lon="-0.17261">
        <ele>2261</ele>
        <time>2015-12-03T09:41:07Z</time>
      </trkpt>
      <trkpt lat="42.88235" lon="-0.17273">
        <ele>2265</ele>
        <time>2015-12-03T09:41:10Z</time>
      </trkpt>
      <trkpt lat="42.88233" lon="-0.17294">
        <ele>2273</ele>
        <time>2015-12-03T09:41:14Z</time>
      </trkpt>
      <trkpt lat="42.88231" lon="-0.17306">
        <ele>2278</ele>
        <time>2015-12-03T09:41:17Z</time>
      </trkpt>
      <trkpt lat="42.8823" lon="-0.17319">
        <ele>2283</ele>
        <time>2015-12-03T09:41:20Z</time>
      </trkpt>
      <trkpt lat="42.88228" lon="-0.17327">
        <ele>2287</ele>
        <time>2015-12-03T09:41:22Z</time>
      </trkpt>
      <trkpt lat="42.88227" lon="-0.17335">
        <ele>2291</ele>
        <time>2015-12-03T09:41:24Z</time>
      </trkpt>
      <trkpt lat="42.88226" lon="-0.17348">
        <ele>2296</ele>
        <time>2015-12-03T09:41:27Z</time>
      </trkpt>
      <trkpt lat="42.88223" lon="-0.17367">
        <ele>2304</ele>
        <time>2015-12-03T09:41:31Z</time>
      </trkpt>
      <trkpt lat="42.88222" lon="-0.17376">
        <ele>2307</ele>
        <time>2015-12-03T09:41:33Z</time>
      </trkpt>
      <trkpt lat="42.88221" lon="-0.17389">
        <ele>2312</ele>
        <time>2015-12-03T09:41:36Z</time>
      </trkpt>
      <trkpt lat="42.88219" lon="-0.17397">
        <ele>2315</ele>
        <time>2015-12-03T09:41:38Z</time>
      </trkpt>
      <trkpt lat="42.88216" lon="-0.17414">
        <ele>2322</ele>
        <time>2015-12-03T09:41:41Z</time>
      </trkpt>
      <trkpt lat="42.88215" lon="-0.17423">
        <ele>2324</ele>
        <time>2015-12-03T09:41:43Z</time>
      </trkpt>
      <trkpt lat="42.88214" lon="-0.17429">
        <ele>2327</ele>
        <time>2015-12-03T09:41:46Z</time>
      </trkpt>
      <trkpt lat="42.88214" lon="-0.17433">
        <ele>2328</ele>
        <time>2015-12-03T09:41:50Z</time>
      </trkpt>
      <trkpt lat="42.88214" lon="-0.17434">
        <ele>2328</ele>
        <time>2015-12-03T09:41:52Z</time>
      </trkpt>
      <trkpt lat="42.88213" lon="-0.17444">
        <ele>2331</ele>
        <time>2015-12-03T09:41:55Z</time>
      </trkpt>
      <trkpt lat="42.88203" lon="-0.17439">
        <ele>2330</ele>
        <time>2015-12-03T09:42:00Z</time>
      </trkpt>
      <trkpt lat="42.88197" lon="-0.17432">
        <ele>2329</ele>
        <time>2015-12-03T09:42:02Z</time>
      </trkpt>
      <trkpt lat="42.88187" lon="-0.17418">
        <ele>2325</ele>
        <time>2015-12-03T09:42:06Z</time>
      </trkpt>
      <trkpt lat="42.88183" lon="-0.17413">
        <ele>2324</ele>
        <time>2015-12-03T09:42:07Z</time>
      </trkpt>
      <trkpt lat="42.8817" lon="-0.174">
        <ele>2319</ele>
        <time>2015-12-03T09:42:10Z</time>
      </trkpt>
      <trkpt lat="42.87975" lon="-0.16781">
        <ele>2211</ele>
        <time>2015-12-03T09:43:31Z</time>
      </trkpt>
      <trkpt lat="42.8799" lon="-0.16773">
        <ele>2201</ele>
        <time>2015-12-03T09:43:34Z</time>
      </trkpt>
      <trkpt lat="42.88024" lon="-0.16755">
        <ele>2179</ele>
        <time>2015-12-03T09:43:40Z</time>
      </trkpt>
      <trkpt lat="42.88083" lon="-0.16625">
        <ele>2116</ele>
        <time>2015-12-03T09:44:02Z</time>
      </trkpt>
      <trkpt lat="42.88057" lon="-0.16602">
        <ele>2111</ele>
        <time>2015-12-03T09:44:07Z</time>
      </trkpt>
      <trkpt lat="42.88055" lon="-0.16569">
        <ele>2095</ele>
        <time>2015-12-03T09:44:12Z</time>
      </trkpt>
      <trkpt lat="42.88055" lon="-0.16563">
        <ele>2092</ele>
        <time>2015-12-03T09:44:13Z</time>
      </trkpt>
      <trkpt lat="42.88049" lon="-0.16534">
        <ele>2080</ele>
        <time>2015-12-03T09:44:17Z</time>
      </trkpt>
      <trkpt lat="42.8805" lon="-0.16518">
        <ele>2072</ele>
        <time>2015-12-03T09:44:19Z</time>
      </trkpt>
      <trkpt lat="42.88073" lon="-0.16098">
        <ele>1909</ele>
        <time>2015-12-03T09:45:09Z</time>
      </trkpt>
      <trkpt lat="42.88537" lon="-0.15298">
        <ele>1738</ele>
        <time>2015-12-03T09:47:09Z</time>
      </trkpt>
      <trkpt lat="42.88533" lon="-0.15311">
        <ele>1740</ele>
        <time>2015-12-03T09:47:11Z</time>
      </trkpt>
      <trkpt lat="42.88531" lon="-0.15333">
        <ele>1742</ele>
        <time>2015-12-03T09:47:15Z</time>
      </trkpt>
      <trkpt lat="42.88529" lon="-0.15343">
        <ele>1744</ele>
        <time>2015-12-03T09:47:17Z</time>
      </trkpt>
      <trkpt lat="42.88526" lon="-0.15352">
        <ele>1745</ele>
        <time>2015-12-03T09:47:19Z</time>
      </trkpt>
      <trkpt lat="42.88524" lon="-0.15366">
        <ele>1745</ele>
        <time>2015-12-03T09:47:22Z</time>
      </trkpt>
      <trkpt lat="42.88522" lon="-0.15381">
        <ele>1746</ele>
        <time>2015-12-03T09:47:25Z</time>
      </trkpt>
      <trkpt lat="42.8852" lon="-0.15395">
        <ele>1748</ele>
        <time>2015-12-03T09:47:28Z</time>
      </trkpt>
      <trkpt lat="42.88517" lon="-0.1541">
        <ele>1750</ele>
        <time>2015-12-03T09:47:31Z</time>
      </trkpt>
      <trkpt lat="42.88515" lon="-0.15426">
        <ele>1751</ele>
        <time>2015-12-03T09:47:34Z</time>
      </trkpt>
      <trkpt lat="42.88513" lon="-0.15439">
        <ele>1753</ele>
        <time>2015-12-03T09:47:37Z</time>
      </trkpt>
      <trkpt lat="42.88511" lon="-0.15461">
        <ele>1758</ele>
        <time>2015-12-03T09:47:42Z</time>
      </trkpt>
      <trkpt lat="42.8851" lon="-0.15466">
        <ele>1759</ele>
        <time>2015-12-03T09:47:43Z</time>
      </trkpt>
      <trkpt lat="42.88507" lon="-0.1548">
        <ele>1760</ele>
        <time>2015-12-03T09:47:46Z</time>
      </trkpt>
      <trkpt lat="42.88504" lon="-0.15498">
        <ele>1762</ele>
        <time>2015-12-03T09:47:50Z</time>
      </trkpt>
      <trkpt lat="42.88503" lon="-0.15507">
        <ele>1762</ele>
        <time>2015-12-03T09:47:52Z</time>
      </trkpt>
      <trkpt lat="42.88501" lon="-0.15521">
        <ele>1764</ele>
        <time>2015-12-03T09:47:55Z</time>
      </trkpt>
      <trkpt lat="42.88499" lon="-0.15533">
        <ele>1765</ele>
        <time>2015-12-03T09:47:58Z</time>
      </trkpt>
      <trkpt lat="42.88498" lon="-0.15545">
        <ele>1768</ele>
        <time>2015-12-03T09:48:01Z</time>
      </trkpt>
      <trkpt lat="42.88494" lon="-0.15558">
        <ele>1773</ele>
        <time>2015-12-03T09:48:04Z</time>
      </trkpt>
      <trkpt lat="42.88492" lon="-0.15567">
        <ele>1777</ele>
        <time>2015-12-03T09:48:06Z</time>
      </trkpt>
      <trkpt lat="42.8849" lon="-0.15581">
        <ele>1783</ele>
        <time>2015-12-03T09:48:09Z</time>
      </trkpt>
      <trkpt lat="42.88489" lon="-0.15594">
        <ele>1789</ele>
        <time>2015-12-03T09:48:12Z</time>
      </trkpt>
      <trkpt lat="42.88486" lon="-0.15613">
        <ele>1798</ele>
        <time>2015-12-03T09:48:16Z</time>
      </trkpt>
      <trkpt lat="42.88484" lon="-0.15623">
        <ele>1802</ele>
        <time>2015-12-03T09:48:18Z</time>
      </trkpt>
      <trkpt lat="42.88481" lon="-0.1564">
        <ele>1808</ele>
        <time>2015-12-03T09:48:22Z</time>
      </trkpt>
      <trkpt lat="42.8848" lon="-0.15648">
        <ele>1811</ele>
        <time>2015-12-03T09:48:24Z</time>
      </trkpt>
      <trkpt lat="42.88478" lon="-0.15666">
        <ele>1817</ele>
        <time>2015-12-03T09:48:28Z</time>
      </trkpt>
      <trkpt lat="42.88477" lon="-0.15677">
        <ele>1821</ele>
        <time>2015-12-03T09:48:30Z</time>
      </trkpt>
      <trkpt lat="42.88473" lon="-0.157">
        <ele>1828</ele>
        <time>2015-12-03T09:48:35Z</time>
      </trkpt>
      <trkpt lat="42.88473" lon="-0.15704">
        <ele>1829</ele>
        <time>2015-12-03T09:48:36Z</time>
      </trkpt>
      <trkpt lat="42.88469" lon="-0.15726">
        <ele>1835</ele>
        <time>2015-12-03T09:48:41Z</time>
      </trkpt>
      <trkpt lat="42.88468" lon="-0.1573">
        <ele>1836</ele>
        <time>2015-12-03T09:48:42Z</time>
      </trkpt>
      <trkpt lat="42.88466" lon="-0.15745">
        <ele>1840</ele>
        <time>2015-12-03T09:48:45Z</time>
      </trkpt>
      <trkpt lat="42.88464" lon="-0.15755">
        <ele>1843</ele>
        <time>2015-12-03T09:48:47Z</time>
      </trkpt>
      <trkpt lat="42.88462" lon="-0.15768">
        <ele>1846</ele>
        <time>2015-12-03T09:48:50Z</time>
      </trkpt>
      <trkpt lat="42.88461" lon="-0.15776">
        <ele>1848</ele>
        <time>2015-12-03T09:48:52Z</time>
      </trkpt>
      <trkpt lat="42.88458" lon="-0.15791">
        <ele>1852</ele>
        <time>2015-12-03T09:48:55Z</time>
      </trkpt>
      <trkpt lat="42.88458" lon="-0.158">
        <ele>1855</ele>
        <time>2015-12-03T09:48:57Z</time>
      </trkpt>
      <trkpt lat="42.88456" lon="-0.15811">
        <ele>1858</ele>
        <time>2015-12-03T09:49:00Z</time>
      </trkpt>
      <trkpt lat="42.88455" lon="-0.15817">
        <ele>1861</ele>
        <time>2015-12-03T09:49:02Z</time>
      </trkpt>
      <trkpt lat="42.88453" lon="-0.15834">
        <ele>1867</ele>
        <time>2015-12-03T09:49:06Z</time>
      </trkpt>
      <trkpt lat="42.88452" lon="-0.15854">
        <ele>1874</ele>
        <time>2015-12-03T09:49:10Z</time>
      </trkpt>
      <trkpt lat="42.8845" lon="-0.1586">
        <ele>1876</ele>
        <time>2015-12-03T09:49:11Z</time>
      </trkpt>
      <trkpt lat="42.88448" lon="-0.15883">
        <ele>1884</ele>
        <time>2015-12-03T09:49:16Z</time>
      </trkpt>
      <trkpt lat="42.88447" lon="-0.15886">
        <ele>1885</ele>
        <time>2015-12-03T09:49:17Z</time>
      </trkpt>
      <trkpt lat="42.88446" lon="-0.159">
        <ele>1889</ele>
        <time>2015-12-03T09:49:20Z</time>
      </trkpt>
      <trkpt lat="42.88444" lon="-0.15915">
        <ele>1894</ele>
        <time>2015-12-03T09:49:23Z</time>
      </trkpt>
      <trkpt lat="42.88442" lon="-0.15929">
        <ele>1898</ele>
        <time>2015-12-03T09:49:26Z</time>
      </trkpt>
      <trkpt lat="42.8844" lon="-0.15942">
        <ele>1902</ele>
        <time>2015-12-03T09:49:29Z</time>
      </trkpt>
      <trkpt lat="42.88438" lon="-0.15958">
        <ele>1908</ele>
        <time>2015-12-03T09:49:33Z</time>
      </trkpt>
      <trkpt lat="42.88436" lon="-0.15965">
        <ele>1911</ele>
        <time>2015-12-03T09:49:35Z</time>
      </trkpt>
      <trkpt lat="42.88434" lon="-0.15977">
        <ele>1916</ele>
        <time>2015-12-03T09:49:38Z</time>
      </trkpt>
      <trkpt lat="42.88432" lon="-0.15987">
        <ele>1920</ele>
        <time>2015-12-03T09:49:40Z</time>
      </trkpt>
      <trkpt lat="42.88431" lon="-0.16003">
        <ele>1927</ele>
        <time>2015-12-03T09:49:43Z</time>
      </trkpt>
      <trkpt lat="42.88426" lon="-0.16024">
        <ele>1935</ele>
        <time>2015-12-03T09:49:48Z</time>
      </trkpt>
      <trkpt lat="42.88426" lon="-0.16031">
        <ele>1938</ele>
        <time>2015-12-03T09:49:50Z</time>
      </trkpt>
      <trkpt lat="42.88424" lon="-0.1604">
        <ele>1942</ele>
        <time>2015-12-03T09:49:52Z</time>
      </trkpt>
      <trkpt lat="42.88419" lon="-0.16061">
        <ele>1949</ele>
        <time>2015-12-03T09:49:57Z</time>
      </trkpt>
      <trkpt lat="42.88418" lon="-0.16065">
        <ele>1950</ele>
        <time>2015-12-03T09:49:58Z</time>
      </trkpt>
      <trkpt lat="42.88415" lon="-0.1608">
        <ele>1955</ele>
        <time>2015-12-03T09:50:02Z</time>
      </trkpt>
      <trkpt lat="42.88413" lon="-0.16089">
        <ele>1958</ele>
        <time>2015-12-03T09:50:04Z</time>
      </trkpt>
      <trkpt lat="42.88412" lon="-0.16101">
        <ele>1961</ele>
        <time>2015-12-03T09:50:07Z</time>
      </trkpt>
      <trkpt lat="42.8841" lon="-0.16115">
        <ele>1965</ele>
        <time>2015-12-03T09:50:10Z</time>
      </trkpt>
      <trkpt lat="42.88408" lon="-0.16126">
        <ele>1968</ele>
        <time>2015-12-03T09:50:13Z</time>
      </trkpt>
      <trkpt lat="42.88406" lon="-0.16134">
        <ele>1970</ele>
        <time>2015-12-03T09:50:15Z</time>
      </trkpt>
      <trkpt lat="42.88404" lon="-0.16154">
        <ele>1977</ele>
        <time>2015-12-03T09:50:19Z</time>
      </trkpt>
      <trkpt lat="42.88403" lon="-0.16164">
        <ele>1980</ele>
        <time>2015-12-03T09:50:21Z</time>
      </trkpt>
      <trkpt lat="42.884" lon="-0.16179">
        <ele>1985</ele>
        <time>2015-12-03T09:50:24Z</time>
      </trkpt>
      <trkpt lat="42.88398" lon="-0.16193">
        <ele>1990</ele>
        <time>2015-12-03T09:50:27Z</time>
      </trkpt>
      <trkpt lat="42.88396" lon="-0.16208">
        <ele>1995</ele>
        <time>2015-12-03T09:50:30Z</time>
      </trkpt>
      <trkpt lat="42.88394" lon="-0.16222">
        <ele>2000</ele>
        <time>2015-12-03T09:50:33Z</time>
      </trkpt>
      <trkpt lat="42.88392" lon="-0.16238">
        <ele>2003</ele>
        <time>2015-12-03T09:50:37Z</time>
      </trkpt>
      <trkpt lat="42.88392" lon="-0.16243">
        <ele>2005</ele>
        <time>2015-12-03T09:50:38Z</time>
      </trkpt>
      <trkpt lat="42.88391" lon="-0.16256">
        <ele>2007</ele>
        <time>2015-12-03T09:50:41Z</time>
      </trkpt>
      <trkpt lat="42.88387" lon="-0.1627">
        <ele>2012</ele>
        <time>2015-12-03T09:50:44Z</time>
      </trkpt>
      <trkpt lat="42.88383" lon="-0.16291">
        <ele>2017</ele>
        <time>2015-12-03T09:50:48Z</time>
      </trkpt>
      <trkpt lat="42.88381" lon="-0.16306">
        <ele>2022</ele>
        <time>2015-12-03T09:50:51Z</time>
      </trkpt>
      <trkpt lat="42.88381" lon="-0.16309">
        <ele>2023</ele>
        <time>2015-12-03T09:50:52Z</time>
      </trkpt>
      <trkpt lat="42.88378" lon="-0.16322">
        <ele>2027</ele>
        <time>2015-12-03T09:50:55Z</time>
      </trkpt>
      <trkpt lat="42.88376" lon="-0.16334">
        <ele>2031</ele>
        <time>2015-12-03T09:50:58Z</time>
      </trkpt>
      <trkpt lat="42.88374" lon="-0.16349">
        <ele>2035</ele>
        <time>2015-12-03T09:51:01Z</time>
      </trkpt>
      <trkpt lat="42.88373" lon="-0.16362">
        <ele>2039</ele>
        <time>2015-12-03T09:51:04Z</time>
      </trkpt>
      <trkpt lat="42.88371" lon="-0.16376">
        <ele>2043</ele>
        <time>2015-12-03T09:51:07Z</time>
      </trkpt>
      <trkpt lat="42.88369" lon="-0.1639">
        <ele>2047</ele>
        <time>2015-12-03T09:51:10Z</time>
      </trkpt>
      <trkpt lat="42.88367" lon="-0.16405">
        <ele>2050</ele>
        <time>2015-12-03T09:51:13Z</time>
      </trkpt>
      <trkpt lat="42.88365" lon="-0.16419">
        <ele>2054</ele>
        <time>2015-12-03T09:51:16Z</time>
      </trkpt>
      <trkpt lat="42.88363" lon="-0.16431">
        <ele>2057</ele>
        <time>2015-12-03T09:51:19Z</time>
      </trkpt>
      <trkpt lat="42.88361" lon="-0.16446">
        <ele>2060</ele>
        <time>2015-12-03T09:51:22Z</time>
      </trkpt>
      <trkpt lat="42.88359" lon="-0.16454">
        <ele>2062</ele>
        <time>2015-12-03T09:51:24Z</time>
      </trkpt>
      <trkpt lat="42.88357" lon="-0.16466">
        <ele>2065</ele>
        <time>2015-12-03T09:51:27Z</time>
      </trkpt>
      <trkpt lat="42.88356" lon="-0.16473">
        <ele>2067</ele>
        <time>2015-12-03T09:51:29Z</time>
      </trkpt>
      <trkpt lat="42.88354" lon="-0.16488">
        <ele>2071</ele>
        <time>2015-12-03T09:51:32Z</time>
      </trkpt>
      <trkpt lat="42.88351" lon="-0.16512">
        <ele>2077</ele>
        <time>2015-12-03T09:51:37Z</time>
      </trkpt>
      <trkpt lat="42.8835" lon="-0.16517">
        <ele>2078</ele>
        <time>2015-12-03T09:51:38Z</time>
      </trkpt>
      <trkpt lat="42.88348" lon="-0.16527">
        <ele>2081</ele>
        <time>2015-12-03T09:51:40Z</time>
      </trkpt>
      <trkpt lat="42.88345" lon="-0.16553">
        <ele>2086</ele>
        <time>2015-12-03T09:51:45Z</time>
      </trkpt>
      <trkpt lat="42.88344" lon="-0.16565">
        <ele>2089</ele>
        <time>2015-12-03T09:51:48Z</time>
      </trkpt>
      <trkpt lat="42.88343" lon="-0.1657">
        <ele>2090</ele>
        <time>2015-12-03T09:51:49Z</time>
      </trkpt>
      <trkpt lat="42.88341" lon="-0.16582">
        <ele>2093</ele>
        <time>2015-12-03T09:51:52Z</time>
      </trkpt>
      <trkpt lat="42.88338" lon="-0.16605">
        <ele>2099</ele>
        <time>2015-12-03T09:51:57Z</time>
      </trkpt>
      <trkpt lat="42.88337" lon="-0.16609">
        <ele>2100</ele>
        <time>2015-12-03T09:51:58Z</time>
      </trkpt>
      <trkpt lat="42.88335" lon="-0.1663">
        <ele>2106</ele>
        <time>2015-12-03T09:52:02Z</time>
      </trkpt>
      <trkpt lat="42.88334" lon="-0.16634">
        <ele>2107</ele>
        <time>2015-12-03T09:52:03Z</time>
      </trkpt>
      <trkpt lat="42.88332" lon="-0.16647">
        <ele>2112</ele>
        <time>2015-12-03T09:52:06Z</time>
      </trkpt>
      <trkpt lat="42.8833" lon="-0.16661">
        <ele>2116</ele>
        <time>2015-12-03T09:52:09Z</time>
      </trkpt>
      <trkpt lat="42.88327" lon="-0.16673">
        <ele>2120</ele>
        <time>2015-12-03T09:52:12Z</time>
      </trkpt>
      <trkpt lat="42.88325" lon="-0.16691">
        <ele>2124</ele>
        <time>2015-12-03T09:52:16Z</time>
      </trkpt>
      <trkpt lat="42.88324" lon="-0.16702">
        <ele>2125</ele>
        <time>2015-12-03T09:52:18Z</time>
      </trkpt>
      <trkpt lat="42.88322" lon="-0.16718">
        <ele>2127</ele>
        <time>2015-12-03T09:52:21Z</time>
      </trkpt>
      <trkpt lat="42.8832" lon="-0.16738">
        <ele>2129</ele>
        <time>2015-12-03T09:52:25Z</time>
      </trkpt>
      <trkpt lat="42.88318" lon="-0.16753">
        <ele>2131</ele>
        <time>2015-12-03T09:52:28Z</time>
      </trkpt>
      <trkpt lat="42.88317" lon="-0.16761">
        <ele>2132</ele>
        <time>2015-12-03T09:52:30Z</time>
      </trkpt>
      <trkpt lat="42.88315" lon="-0.16772">
        <ele>2134</ele>
        <time>2015-12-03T09:52:32Z</time>
      </trkpt>
      <trkpt lat="42.88311" lon="-0.16795">
        <ele>2139</ele>
        <time>2015-12-03T09:52:37Z</time>
      </trkpt>
      <trkpt lat="42.88311" lon="-0.16805">
        <ele>2140</ele>
        <time>2015-12-03T09:52:39Z</time>
      </trkpt>
      <trkpt lat="42.88309" lon="-0.16814">
        <ele>2143</ele>
        <time>2015-12-03T09:52:41Z</time>
      </trkpt>
      <trkpt lat="42.88308" lon="-0.16823">
        <ele>2145</ele>
        <time>2015-12-03T09:52:43Z</time>
      </trkpt>
      <trkpt lat="42.88304" lon="-0.16845">
        <ele>2151</ele>
        <time>2015-12-03T09:52:48Z</time>
      </trkpt>
      <trkpt lat="42.88303" lon="-0.16849">
        <ele>2152</ele>
        <time>2015-12-03T09:52:49Z</time>
      </trkpt>
      <trkpt lat="42.88301" lon="-0.16863">
        <ele>2156</ele>
        <time>2015-12-03T09:52:52Z</time>
      </trkpt>
      <trkpt lat="42.88299" lon="-0.16877">
        <ele>2159</ele>
        <time>2015-12-03T09:52:55Z</time>
      </trkpt>
      <trkpt lat="42.88295" lon="-0.16897">
        <ele>2164</ele>
        <time>2015-12-03T09:53:00Z</time>
      </trkpt>
      <trkpt lat="42.88294" lon="-0.16903">
        <ele>2166</ele>
        <time>2015-12-03T09:53:01Z</time>
      </trkpt>
      <trkpt lat="42.88293" lon="-0.16915">
        <ele>2168</ele>
        <time>2015-12-03T09:53:04Z</time>
      </trkpt>
      <trkpt lat="42.8829" lon="-0.16927">
        <ele>2171</ele>
        <time>2015-12-03T09:53:07Z</time>
      </trkpt>
      <trkpt lat="42.88286" lon="-0.16947">
        <ele>2176</ele>
        <time>2015-12-03T09:53:12Z</time>
      </trkpt>
      <trkpt lat="42.88285" lon="-0.16952">
        <ele>2177</ele>
        <time>2015-12-03T09:53:13Z</time>
      </trkpt>
      <trkpt lat="42.88282" lon="-0.16973">
        <ele>2182</ele>
        <time>2015-12-03T09:53:17Z</time>
      </trkpt>
      <trkpt lat="42.88281" lon="-0.16982">
        <ele>2184</ele>
        <time>2015-12-03T09:53:19Z</time>
      </trkpt>
      <trkpt lat="42.88278" lon="-0.16998">
        <ele>2189</ele>
        <time>2015-12-03T09:53:23Z</time>
      </trkpt>
      <trkpt lat="42.88277" lon="-0.17008">
        <ele>2191</ele>
        <time>2015-12-03T09:53:25Z</time>
      </trkpt>
      <trkpt lat="42.88274" lon="-0.17017">
        <ele>2194</ele>
        <time>2015-12-03T09:53:27Z</time>
      </trkpt>
      <trkpt lat="42.88273" lon="-0.17025">
        <ele>2196</ele>
        <time>2015-12-03T09:53:29Z</time>
      </trkpt>
      <trkpt lat="42.88272" lon="-0.17036">
        <ele>2199</ele>
        <time>2015-12-03T09:53:32Z</time>
      </trkpt>
      <trkpt lat="42.8827" lon="-0.17049">
        <ele>2202</ele>
        <time>2015-12-03T09:53:35Z</time>
      </trkpt>
      <trkpt lat="42.88268" lon="-0.17061">
        <ele>2206</ele>
        <time>2015-12-03T09:53:38Z</time>
      </trkpt>
      <trkpt lat="42.88267" lon="-0.17075">
        <ele>2210</ele>
        <time>2015-12-03T09:53:41Z</time>
      </trkpt>
      <trkpt lat="42.88264" lon="-0.17097">
        <ele>2215</ele>
        <time>2015-12-03T09:53:45Z</time>
      </trkpt>
      <trkpt lat="42.88263" lon="-0.17106">
        <ele>2218</ele>
        <time>2015-12-03T09:53:47Z</time>
      </trkpt>
      <trkpt lat="42.88262" lon="-0.17115">
        <ele>2220</ele>
        <time>2015-12-03T09:53:49Z</time>
      </trkpt>
      <trkpt lat="42.88259" lon="-0.17131">
        <ele>2225</ele>
        <time>2015-12-03T09:53:52Z</time>
      </trkpt>
      <trkpt lat="42.88259" lon="-0.17142">
        <ele>2227</ele>
        <time>2015-12-03T09:53:55Z</time>
      </trkpt>
      <trkpt lat="42.88257" lon="-0.17156">
        <ele>2231</ele>
        <time>2015-12-03T09:53:58Z</time>
      </trkpt>
      <trkpt lat="42.88254" lon="-0.17181">
        <ele>2236</ele>
        <time>2015-12-03T09:54:03Z</time>
      </trkpt>
      <trkpt lat="42.88253" lon="-0.17186">
        <ele>2237</ele>
        <time>2015-12-03T09:54:04Z</time>
      </trkpt>
      <trkpt lat="42.88249" lon="-0.1721">
        <ele>2245</ele>
        <time>2015-12-03T09:54:09Z</time>
      </trkpt>
      <trkpt lat="42.88248" lon="-0.17216">
        <ele>2247</ele>
        <time>2015-12-03T09:54:10Z</time>
      </trkpt>
      <trkpt lat="42.88247" lon="-0.17227">
        <ele>2250</ele>
        <time>2015-12-03T09:54:13Z</time>
      </trkpt>
      <trkpt lat="42.88244" lon="-0.17247">
        <ele>2256</ele>
        <time>2015-12-03T09:54:17Z</time>
      </trkpt>
      <trkpt lat="42.88243" lon="-0.17255">
        <ele>2259</ele>
        <time>2015-12-03T09:54:19Z</time>
      </trkpt>
      <trkpt lat="42.8824" lon="-0.17271">
        <ele>2264</ele>
        <time>2015-12-03T09:54:23Z</time>
      </trkpt>
      <trkpt lat="42.88239" lon="-0.17277">
        <ele>2266</ele>
        <time>2015-12-03T09:54:25Z</time>
      </trkpt>
      <trkpt lat="42.88236" lon="-0.17296">
        <ele>2273</ele>
        <time>2015-12-03T09:54:29Z</time>
      </trkpt>
      <trkpt lat="42.88235" lon="-0.17306">
        <ele>2277</ele>
        <time>2015-12-03T09:54:31Z</time>
      </trkpt>
      <trkpt lat="42.88232" lon="-0.17325">
        <ele>2285</ele>
        <time>2015-12-03T09:54:35Z</time>
      </trkpt>
      <trkpt lat="42.88231" lon="-0.17335">
        <ele>2289</ele>
        <time>2015-12-03T09:54:37Z</time>
      </trkpt>
      <trkpt lat="42.8823" lon="-0.17341">
        <ele>2292</ele>
        <time>2015-12-03T09:54:39Z</time>
      </trkpt>
      <trkpt lat="42.88228" lon="-0.17355">
        <ele>2298</ele>
        <time>2015-12-03T09:54:42Z</time>
      </trkpt>
      <trkpt lat="42.88226" lon="-0.17367">
        <ele>2303</ele>
        <time>2015-12-03T09:54:44Z</time>
      </trkpt>
      <trkpt lat="42.88224" lon="-0.1738">
        <ele>2308</ele>
        <time>2015-12-03T09:54:47Z</time>
      </trkpt>
      <trkpt lat="42.88222" lon="-0.17392">
        <ele>2313</ele>
        <time>2015-12-03T09:54:50Z</time>
      </trkpt>
      <trkpt lat="42.8822" lon="-0.17402">
        <ele>2317</ele>
        <time>2015-12-03T09:54:53Z</time>
      </trkpt>
      <trkpt lat="42.88218" lon="-0.1741">
        <ele>2319</ele>
        <time>2015-12-03T09:54:56Z</time>
      </trkpt>
      <trkpt lat="42.88216" lon="-0.17423">
        <ele>2324</ele>
        <time>2015-12-03T09:54:59Z</time>
      </trkpt>
      <trkpt lat="42.88215" lon="-0.17429">
        <ele>2326</ele>
        <time>2015-12-03T09:55:04Z</time>
      </trkpt>
      <trkpt lat="42.88214" lon="-0.17428">
        <ele>2326</ele>
        <time>2015-12-03T09:55:05Z</time>
      </trkpt>
      <trkpt lat="42.88213" lon="-0.17433">
        <ele>2328</ele>
        <time>2015-12-03T09:55:08Z</time>
      </trkpt>
      <trkpt lat="42.882" lon="-0.17443">
        <ele>2331</ele>
        <time>2015-12-03T09:55:13Z</time>
      </trkpt>
      <trkpt lat="42.88194" lon="-0.17441">
        <ele>2329</ele>
        <time>2015-12-03T09:55:15Z</time>
      </trkpt>
      <trkpt lat="42.88189" lon="-0.17436">
        <ele>2327</ele>
        <time>2015-12-03T09:55:17Z</time>
      </trkpt>
      <trkpt lat="42.88184" lon="-0.17425">
        <ele>2325</ele>
        <time>2015-12-03T09:55:20Z</time>
      </trkpt>
      <trkpt lat="42.88178" lon="-0.17415">
        <ele>2323</ele>
        <time>2015-12-03T09:55:23Z</time>
      </trkpt>
      <trkpt lat="42.88137" lon="-0.17306">
        <ele>2295</ele>
        <time>2015-12-03T09:55:44Z</time>
      </trkpt>
      <trkpt lat="42.88658" lon="-0.16567">
        <ele>2040</ele>
        <time>2015-12-03T09:57:44Z</time>
      </trkpt>
      <trkpt lat="42.88658" lon="-0.16574">
        <ele>2043</ele>
        <time>2015-12-03T09:57:47Z</time>
      </trkpt>
      <trkpt lat="42.88658" lon="-0.16583">
        <ele>2048</ele>
        <time>2015-12-03T09:57:52Z</time>
      </trkpt>
      <trkpt lat="42.88658" lon="-0.16586">
        <ele>2049</ele>
        <time>2015-12-03T09:57:53Z</time>
      </trkpt>
      <trkpt lat="42.88658" lon="-0.16593">
        <ele>2052</ele>
        <time>2015-12-03T09:57:56Z</time>
      </trkpt>
      <trkpt lat="42.88658" lon="-0.166">
        <ele>2056</ele>
        <time>2015-12-03T09:57:59Z</time>
      </trkpt>
      <trkpt lat="42.88658" lon="-0.16607">
        <ele>2059</ele>
        <time>2015-12-03T09:58:02Z</time>
      </trkpt>
      <trkpt lat="42.88659" lon="-0.16617">
        <ele>2064</ele>
        <time>2015-12-03T09:58:06Z</time>
      </trkpt>
      <trkpt lat="42.8866" lon="-0.16622">
        <ele>2067</ele>
        <time>2015-12-03T09:58:08Z</time>
      </trkpt>
      <trkpt lat="42.8866" lon="-0.16628">
        <ele>2069</ele>
        <time>2015-12-03T09:58:11Z</time>
      </trkpt>
      <trkpt lat="42.88661" lon="-0.16634">
        <ele>2073</ele>
        <time>2015-12-03T09:58:14Z</time>
      </trkpt>
      <trkpt lat="42.8866" lon="-0.16641">
        <ele>2076</ele>
        <time>2015-12-03T09:58:17Z</time>
      </trkpt>
      <trkpt lat="42.88661" lon="-0.16647">
        <ele>2079</ele>
        <time>2015-12-03T09:58:20Z</time>
      </trkpt>
      <trkpt lat="42.8866" lon="-0.16655">
        <ele>2083</ele>
        <time>2015-12-03T09:58:23Z</time>
      </trkpt>
      <trkpt lat="42.8866" lon="-0.16663">
        <ele>2086</ele>
        <time>2015-12-03T09:58:26Z</time>
      </trkpt>
      <trkpt lat="42.8866" lon="-0.16675">
        <ele>2092</ele>
        <time>2015-12-03T09:58:31Z</time>
      </trkpt>
      <trkpt lat="42.8866" lon="-0.16677">
        <ele>2093</ele>
        <time>2015-12-03T09:58:32Z</time>
      </trkpt>
      <trkpt lat="42.8866" lon="-0.16687">
        <ele>2097</ele>
        <time>2015-12-03T09:58:36Z</time>
      </trkpt>
      <trkpt lat="42.88662" lon="-0.16691">
        <ele>2099</ele>
        <time>2015-12-03T09:58:38Z</time>
      </trkpt>
      <trkpt lat="42.88663" lon="-0.16705">
        <ele>2105</ele>
        <time>2015-12-03T09:58:43Z</time>
      </trkpt>
      <trkpt lat="42.88664" lon="-0.16711">
        <ele>2108</ele>
        <time>2015-12-03T09:58:46Z</time>
      </trkpt>
      <trkpt lat="42.88663" lon="-0.16714">
        <ele>2109</ele>
        <time>2015-12-03T09:58:47Z</time>
      </trkpt>
      <trkpt lat="42.88663" lon="-0.1672">
        <ele>2111</ele>
        <time>2015-12-03T09:58:50Z</time>
      </trkpt>
      <trkpt lat="42.88664" lon="-0.16726">
        <ele>2114</ele>
        <time>2015-12-03T09:58:53Z</time>
      </trkpt>
      <trkpt lat="42.88664" lon="-0.16732">
        <ele>2116</ele>
        <time>2015-12-03T09:58:56Z</time>
      </trkpt>
      <trkpt lat="42.88664" lon="-0.16739">
        <ele>2119</ele>
        <time>2015-12-03T09:58:59Z</time>
      </trkpt>
      <trkpt lat="42.88664" lon="-0.16747">
        <ele>2121</ele>
        <time>2015-12-03T09:59:02Z</time>
      </trkpt>
      <trkpt lat="42.88665" lon="-0.16758">
        <ele>2126</ele>
        <time>2015-12-03T09:59:07Z</time>
      </trkpt>
      <trkpt lat="42.88665" lon="-0.16761">
        <ele>2127</ele>
        <time>2015-12-03T09:59:08Z</time>
      </trkpt>
      <trkpt lat="42.88666" lon="-0.16766">
        <ele>2129</ele>
        <time>2015-12-03T09:59:11Z</time>
      </trkpt>
      <trkpt lat="42.88666" lon="-0.16773">
        <ele>2132</ele>
        <time>2015-12-03T09:59:14Z</time>
      </trkpt>
      <trkpt lat="42.88666" lon="-0.16779">
        <ele>2135</ele>
        <time>2015-12-03T09:59:17Z</time>
      </trkpt>
      <trkpt lat="42.88666" lon="-0.16786">
        <ele>2138</ele>
        <time>2015-12-03T09:59:20Z</time>
      </trkpt>
      <trkpt lat="42.88667" lon="-0.16794">
        <ele>2142</ele>
        <time>2015-12-03T09:59:23Z</time>
      </trkpt>
      <trkpt lat="42.88667" lon="-0.16802">
        <ele>2147</ele>
        <time>2015-12-03T09:59:26Z</time>
      </trkpt>
      <trkpt lat="42.88668" lon="-0.16809">
        <ele>2151</ele>
        <time>2015-12-03T09:59:29Z</time>
      </trkpt>
      <trkpt lat="42.88668" lon="-0.16816">
        <ele>2155</ele>
        <time>2015-12-03T09:59:32Z</time>
      </trkpt>
      <trkpt lat="42.88668" lon="-0.16824">
        <ele>2160</ele>
        <time>2015-12-03T09:59:35Z</time>
      </trkpt>
      <trkpt lat="42.88668" lon="-0.16831">
        <ele>2164</ele>
        <time>2015-12-03T09:59:38Z</time>
      </trkpt>
      <trkpt lat="42.88668" lon="-0.1684">
        <ele>2169</ele>
        <time>2015-12-03T09:59:41Z</time>
      </trkpt>
      <trkpt lat="42.88668" lon="-0.16848">
        <ele>2174</ele>
        <time>2015-12-03T09:59:44Z</time>
      </trkpt>
      <trkpt lat="42.88668" lon="-0.16854">
        <ele>2178</ele>
        <time>2015-12-03T09:59:47Z</time>
      </trkpt>
      <trkpt lat="42.88669" lon="-0.16861">
        <ele>2182</ele>
        <time>2015-12-03T09:59:50Z</time>
      </trkpt>
      <trkpt lat="42.88669" lon="-0.16868">
        <ele>2185</ele>
        <time>2015-12-03T09:59:53Z</time>
      </trkpt>
      <trkpt lat="42.88669" lon="-0.16874">
        <ele>2188</ele>
        <time>2015-12-03T09:59:56Z</time>
      </trkpt>
      <trkpt lat="42.88669" lon="-0.16881">
        <ele>2191</ele>
        <time>2015-12-03T09:59:59Z</time>
      </trkpt>
      <trkpt lat="42.88669" lon="-0.16888">
        <ele>2195</ele>
        <time>2015-12-03T10:00:02Z</time>
      </trkpt>
      <trkpt lat="42.88669" lon="-0.16896">
        <ele>2199</ele>
        <time>2015-12-03T10:00:05Z</time>
      </trkpt>
      <trkpt lat="42.8867" lon="-0.16901">
        <ele>2202</ele>
        <time>2015-12-03T10:00:08Z</time>
      </trkpt>
      <trkpt lat="42.8867" lon="-0.16909">
        <ele>2206</ele>
        <time>2015-12-03T10:00:11Z</time>
      </trkpt>
      <trkpt lat="42.88671" lon="-0.16915">
        <ele>2209</ele>
        <time>2015-12-03T10:00:14Z</time>
      </trkpt>
      <trkpt lat="42.88671" lon="-0.16921">
        <ele>2211</ele>
        <time>2015-12-03T10:00:17Z</time>
      </trkpt>
      <trkpt lat="42.88671" lon="-0.16932">
        <ele>2216</ele>
        <time>2015-12-03T10:00:21Z</time>
      </trkpt>
      <trkpt lat="42.88671" lon="-0.16937">
        <ele>2218</ele>
        <time>2015-12-03T10:00:23Z</time>
      </trkpt>
      <trkpt lat="42.88671" lon="-0.16943">
        <ele>2220</ele>
        <time>2015-12-03T10:00:26Z</time>
      </trkpt>
      <trkpt lat="42.88672" lon="-0.1695">
        <ele>2224</ele>
        <time>2015-12-03T10:00:29Z</time>
      </trkpt>
      <trkpt lat="42.8867" lon="-0.16959">
        <ele>2229</ele>
        <time>2015-12-03T10:00:32Z</time>
      </trkpt>
      <trkpt lat="42.88671" lon="-0.16966">
        <ele>2234</ele>
        <time>2015-12-03T10:00:35Z</time>
      </trkpt>
      <trkpt lat="42.88671" lon="-0.16974">
        <ele>2238</ele>
        <time>2015-12-03T10:00:38Z</time>
      </trkpt>
      <trkpt lat="42.88672" lon="-0.16981">
        <ele>2242</ele>
        <time>2015-12-03T10:00:41Z</time>
      </trkpt>
      <trkpt lat="42.88672" lon="-0.16988">
        <ele>2245</ele>
        <time>2015-12-03T10:00:44Z</time>
      </trkpt>
      <trkpt lat="42.88672" lon="-0.16996">
        <ele>2248</ele>
        <time>2015-12-03T10:00:47Z</time>
      </trkpt>
      <trkpt lat="42.88671" lon="-0.17007">
        <ele>2252</ele>
        <time>2015-12-03T10:00:51Z</time>
      </trkpt>
      <trkpt lat="42.88671" lon="-0.17012">
        <ele>2254</ele>
        <time>2015-12-03T10:00:53Z</time>
      </trkpt>
      <trkpt lat="42.88671" lon="-0.17018">
        <ele>2257</ele>
        <time>2015-12-03T10:00:56Z</time>
      </trkpt>
      <trkpt lat="42.88671" lon="-0.17025">
        <ele>2259</ele>
        <time>2015-12-03T10:00:59Z</time>
      </trkpt>
      <trkpt lat="42.88671" lon="-0.17033">
        <ele>2262</ele>
        <time>2015-12-03T10:01:02Z</time>
      </trkpt>
      <trkpt lat="42.88671" lon="-0.17041">
        <ele>2266</ele>
        <time>2015-12-03T10:01:05Z</time>
      </trkpt>
      <trkpt lat="42.88671" lon="-0.1705">
        <ele>2269</ele>
        <time>2015-12-03T10:01:08Z</time>
      </trkpt>
      <trkpt lat="42.88671" lon="-0.17058">
        <ele>2272</ele>
        <time>2015-12-03T10:01:11Z</time>
      </trkpt>
      <trkpt lat="42.88672" lon="-0.17065">
        <ele>2275</ele>
        <time>2015-12-03T10:01:14Z</time>
      </trkpt>
      <trkpt lat="42.88671" lon="-0.17074">
        <ele>2279</ele>
        <time>2015-12-03T10:01:17Z</time>
      </trkpt>
      <trkpt lat="42.88671" lon="-0.17082">
        <ele>2282</ele>
        <time>2015-12-03T10:01:20Z</time>
      </trkpt>
      <trkpt lat="42.88671" lon="-0.1709">
        <ele>2285</ele>
        <time>2015-12-03T10:01:23Z</time>
      </trkpt>
      <trkpt lat="42.88672" lon="-0.17098">
        <ele>2288</ele>
        <time>2015-12-03T10:01:26Z</time>
      </trkpt>
      <trkpt lat="42.88672" lon="-0.17106">
        <ele>2291</ele>
        <time>2015-12-03T10:01:29Z</time>
      </trkpt>
      <trkpt lat="42.88673" lon="-0.17112">
        <ele>2294</ele>
        <time>2015-12-03T10:01:32Z</time>
      </trkpt>
      <trkpt lat="42.88674" lon="-0.17117">
        <ele>2296</ele>
        <time>2015-12-03T10:01:35Z</time>
      </trkpt>
      <trkpt lat="42.88675" lon="-0.17123">
        <ele>2298</ele>
        <time>2015-12-03T10:01:38Z</time>
      </trkpt>
      <trkpt lat="42.88674" lon="-0.17133">
        <ele>2301</ele>
        <time>2015-12-03T10:01:42Z</time>
      </trkpt>
      <trkpt lat="42.88674" lon="-0.1714">
        <ele>2304</ele>
        <time>2015-12-03T10:01:45Z</time>
      </trkpt>
      <trkpt lat="42.88675" lon="-0.17144">
        <ele>2306</ele>
        <time>2015-12-03T10:01:47Z</time>
      </trkpt>
      <trkpt lat="42.88675" lon="-0.17152">
        <ele>2309</ele>
        <time>2015-12-03T10:01:50Z</time>
      </trkpt>
      <trkpt lat="42.88676" lon="-0.17159">
        <ele>2312</ele>
        <time>2015-12-03T10:01:53Z</time>
      </trkpt>
      <trkpt lat="42.88676" lon="-0.17167">
        <ele>2316</ele>
        <time>2015-12-03T10:01:56Z</time>
      </trkpt>
      <trkpt lat="42.88677" lon="-0.17176">
        <ele>2319</ele>
        <time>2015-12-03T10:01:59Z</time>
      </trkpt>
      <trkpt lat="42.88677" lon="-0.17185">
        <ele>2322</ele>
        <time>2015-12-03T10:02:02Z</time>
      </trkpt>
      <trkpt lat="42.88677" lon="-0.17193">
        <ele>2325</ele>
        <time>2015-12-03T10:02:05Z</time>
      </trkpt>
      <trkpt lat="42.88677" lon="-0.17201">
        <ele>2328</ele>
        <time>2015-12-03T10:02:08Z</time>
      </trkpt>
      <trkpt lat="42.88677" lon="-0.17209">
        <ele>2330</ele>
        <time>2015-12-03T10:02:11Z</time>
      </trkpt>
      <trkpt lat="42.88677" lon="-0.17216">
        <ele>2333</ele>
        <time>2015-12-03T10:02:14Z</time>
      </trkpt>
      <trkpt lat="42.88678" lon="-0.17224">
        <ele>2334</ele>
        <time>2015-12-03T10:02:17Z</time>
      </trkpt>
      <trkpt lat="42.88678" lon="-0.17231">
        <ele>2336</ele>
        <time>2015-12-03T10:02:20Z</time>
      </trkpt>
      <trkpt lat="42.88678" lon="-0.17243">
        <ele>2337</ele>
        <time>2015-12-03T10:02:25Z</time>
      </trkpt>
      <trkpt lat="42.88678" lon="-0.17246">
        <ele>2338</ele>
        <time>2015-12-03T10:02:26Z</time>
      </trkpt>
      <trkpt lat="42.88679" lon="-0.17254">
        <ele>2339</ele>
        <time>2015-12-03T10:02:29Z</time>
      </trkpt>
      <trkpt lat="42.88679" lon="-0.17261">
        <ele>2339</ele>
        <time>2015-12-03T10:02:32Z</time>
      </trkpt>
      <trkpt lat="42.88679" lon="-0.1727">
        <ele>2340</ele>
        <time>2015-12-03T10:02:35Z</time>
      </trkpt>
      <trkpt lat="42.8868" lon="-0.17278">
        <ele>2341</ele>
        <time>2015-12-03T10:02:38Z</time>
      </trkpt>
      <trkpt lat="42.8868" lon="-0.17286">
        <ele>2343</ele>
        <time>2015-12-03T10:02:41Z</time>
      </trkpt>
      <trkpt lat="42.88679" lon="-0.17301">
        <ele>2348</ele>
        <time>2015-12-03T10:02:46Z</time>
      </trkpt>
      <trkpt lat="42.88679" lon="-0.17303">
        <ele>2348</ele>
        <time>2015-12-03T10:02:47Z</time>
      </trkpt>
      <trkpt lat="42.88679" lon="-0.17313">
        <ele>2352</ele>
        <time>2015-12-03T10:02:50Z</time>
      </trkpt>
      <trkpt lat="42.88679" lon="-0.1732">
        <ele>2355</ele>
        <time>2015-12-03T10:02:53Z</time>
      </trkpt>
      <trkpt lat="42.88679" lon="-0.17327">
        <ele>2359</ele>
        <time>2015-12-03T10:02:56Z</time>
      </trkpt>
      <trkpt lat="42.88679" lon="-0.17336">
        <ele>2362</ele>
        <time>2015-12-03T10:02:59Z</time>
      </trkpt>
      <trkpt lat="42.88679" lon="-0.17351">
        <ele>2368</ele>
        <time>2015-12-03T10:03:04Z</time>
      </trkpt>
      <trkpt lat="42.8868" lon="-0.17354">
        <ele>2368</ele>
        <time>2015-12-03T10:03:05Z</time>
      </trkpt>
      <trkpt lat="42.8868" lon="-0.17362">
        <ele>2371</ele>
        <time>2015-12-03T10:03:08Z</time>
      </trkpt>
      <trkpt lat="42.8868" lon="-0.1737">
        <ele>2373</ele>
        <time>2015-12-03T10:03:11Z</time>
      </trkpt>
      <trkpt lat="42.88681" lon="-0.17383">
        <ele>2375</ele>
        <time>2015-12-03T10:03:16Z</time>
      </trkpt>
      <trkpt lat="42.88681" lon="-0.17386">
        <ele>2376</ele>
        <time>2015-12-03T10:03:17Z</time>
      </trkpt>
      <trkpt lat="42.88682" lon="-0.17394">
        <ele>2377</ele>
        <time>2015-12-03T10:03:20Z</time>
      </trkpt>
      <trkpt lat="42.88682" lon="-0.17404">
        <ele>2378</ele>
        <time>2015-12-03T10:03:23Z</time>
      </trkpt>
      <trkpt lat="42.88683" lon="-0.17411">
        <ele>2378</ele>
        <time>2015-12-03T10:03:26Z</time>
      </trkpt>
      <trkpt lat="42.88682" lon="-0.17419">
        <ele>2379</ele>
        <time>2015-12-03T10:03:29Z</time>
      </trkpt>
      <trkpt lat="42.88682" lon="-0.17426">
        <ele>2380</ele>
        <time>2015-12-03T10:03:32Z</time>
      </trkpt>
      <trkpt lat="42.88681" lon="-0.17446">
        <ele>2381</ele>
        <time>2015-12-03T10:03:36Z</time>
      </trkpt>
      <trkpt lat="42.88685" lon="-0.17456">
        <ele>2380</ele>
        <time>2015-12-03T10:03:38Z</time>
      </trkpt>
      <trkpt lat="42.88689" lon="-0.17455">
        <ele>2378</ele>
        <time>2015-12-03T10:03:41Z</time>
      </trkpt>
      <trkpt lat="42.88691" lon="-0.17449">
        <ele>2377</ele>
        <time>2015-12-03T10:03:45Z</time>
      </trkpt>
      <trkpt lat="42.88691" lon="-0.17449">
        <ele>2377</ele>
        <time>2015-12-03T10:03:48Z</time>
      </trkpt>
      <trkpt lat="42.88691" lon="-0.17448">
        <ele>2377</ele>
        <time>2015-12-03T10:03:50Z</time>
      </trkpt>
      <trkpt lat="42.88691" lon="-0.17447">
        <ele>2377</ele>
        <time>2015-12-03T10:03:53Z</time>
      </trkpt>
      <trkpt lat="42.88691" lon="-0.17447">
        <ele>2377</ele>
        <time>2015-12-03T10:03:56Z</time>
      </trkpt>
      <trkpt lat="42.88691" lon="-0.17446">
        <ele>2377</ele>
        <time>2015-12-03T10:03:59Z</time>
      </trkpt>
      <trkpt lat="42.88695" lon="-0.17438">
        <ele>2374</ele>
        <time>2015-12-03T10:04:02Z</time>
      </trkpt>
      <trkpt lat="42.887" lon="-0.17418">
        <ele>2370</ele>
        <time>2015-12-03T10:04:05Z</time>
      </trkpt>
      <trkpt lat="42.88934" lon="-0.17135">
        <ele>2298</ele>
        <time>2015-12-03T10:04:55Z</time>
      </trkpt>
      <trkpt lat="42.88933" lon="-0.17134">
        <ele>2298</ele>
        <time>2015-12-03T10:04:56Z</time>
      </trkpt>
      <trkpt lat="42.88922" lon="-0.17127">
        <ele>2294</ele>
        <time>2015-12-03T10:04:59Z</time>
      </trkpt>
      <trkpt lat="42.88809" lon="-0.1676">
        <ele>2164</ele>
        <time>2015-12-03T10:05:47Z</time>
      </trkpt>
      <trkpt lat="42.888" lon="-0.16752">
        <ele>2161</ele>
        <time>2015-12-03T10:05:51Z</time>
      </trkpt>
      <trkpt lat="42.88779" lon="-0.16714">
        <ele>2145</ele>
        <time>2015-12-03T10:05:57Z</time>
      </trkpt>
      <trkpt lat="42.8875" lon="-0.16648">
        <ele>2114</ele>
        <time>2015-12-03T10:06:06Z</time>
      </trkpt>
      <trkpt lat="42.88748" lon="-0.16642">
        <ele>2111</ele>
        <time>2015-12-03T10:06:08Z</time>
      </trkpt>
      <trkpt lat="42.88747" lon="-0.16634">
        <ele>2107</ele>
        <time>2015-12-03T10:06:11Z</time>
      </trkpt>
      <trkpt lat="42.88575" lon="-0.16629">
        <ele>2049</ele>
        <time>2015-12-03T10:06:43Z</time>
      </trkpt>
      <trkpt lat="42.88655" lon="-0.16516">
        <ele>2018</ele>
        <time>2015-12-03T10:07:03Z</time>
      </trkpt>
      <trkpt lat="42.88654" lon="-0.16518">
        <ele>2018</ele>
        <time>2015-12-03T10:07:07Z</time>
      </trkpt>
      <trkpt lat="42.88655" lon="-0.16518">
        <ele>2018</ele>
        <time>2015-12-03T10:07:08Z</time>
      </trkpt>
      <trkpt lat="42.88654" lon="-0.16519">
        <ele>2019</ele>
        <time>2015-12-03T10:07:11Z</time>
      </trkpt>
      <trkpt lat="42.88654" lon="-0.16524">
        <ele>2021</ele>
        <time>2015-12-03T10:07:14Z</time>
      </trkpt>
      <trkpt lat="42.88654" lon="-0.16528">
        <ele>2022</ele>
        <time>2015-12-03T10:07:17Z</time>
      </trkpt>
      <trkpt lat="42.88654" lon="-0.1653">
        <ele>2023</ele>
        <time>2015-12-03T10:07:21Z</time>
      </trkpt>
      <trkpt lat="42.88654" lon="-0.16537">
        <ele>2026</ele>
        <time>2015-12-03T10:07:23Z</time>
      </trkpt>
      <trkpt lat="42.88654" lon="-0.1655">
        <ele>2031</ele>
        <time>2015-12-03T10:07:28Z</time>
      </trkpt>
      <trkpt lat="42.88654" lon="-0.16553">
        <ele>2033</ele>
        <time>2015-12-03T10:07:29Z</time>
      </trkpt>
      <trkpt lat="42.88655" lon="-0.16561">
        <ele>2037</ele>
        <time>2015-12-03T10:07:32Z</time>
      </trkpt>
      <trkpt lat="42.88656" lon="-0.16571">
        <ele>2042</ele>
        <time>2015-12-03T10:07:36Z</time>
      </trkpt>
      <trkpt lat="42.88656" lon="-0.16575">
        <ele>2043</ele>
        <time>2015-12-03T10:07:38Z</time>
      </trkpt>
      <trkpt lat="42.88657" lon="-0.16582">
        <ele>2047</ele>
        <time>2015-12-03T10:07:41Z</time>
      </trkpt>
      <trkpt lat="42.88657" lon="-0.16589">
        <ele>2050</ele>
        <time>2015-12-03T10:07:44Z</time>
      </trkpt>
      <trkpt lat="42.88657" lon="-0.16597">
        <ele>2054</ele>
        <time>2015-12-03T10:07:47Z</time>
      </trkpt>
      <trkpt lat="42.88658" lon="-0.16603">
        <ele>2057</ele>
        <time>2015-12-03T10:07:50Z</time>
      </trkpt>
      <trkpt lat="42.88658" lon="-0.1661">
        <ele>2061</ele>
        <time>2015-12-03T10:07:53Z</time>
      </trkpt>
      <trkpt lat="42.88658" lon="-0.16616">
        <ele>2063</ele>
        <time>2015-12-03T10:07:56Z</time>
      </trkpt>
      <trkpt lat="42.88658" lon="-0.16629">
        <ele>2070</ele>
        <time>2015-12-03T10:08:01Z</time>
      </trkpt>
      <trkpt lat="42.88658" lon="-0.16634">
        <ele>2072</ele>
        <time>2015-12-03T10:08:03Z</time>
      </trkpt>
      <trkpt lat="42.88658" lon="-0.16638">
        <ele>2074</ele>
        <time>2015-12-03T10:08:05Z</time>
      </trkpt>
      <trkpt lat="42.88658" lon="-0.16645">
        <ele>2077</ele>
        <time>2015-12-03T10:08:08Z</time>
      </trkpt>
      <trkpt lat="42.88659" lon="-0.16651">
        <ele>2080</ele>
        <time>2015-12-03T10:08:11Z</time>
      </trkpt>
      <trkpt lat="42.88659" lon="-0.16659">
        <ele>2084</ele>
        <time>2015-12-03T10:08:14Z</time>
      </trkpt>
      <trkpt lat="42.8866" lon="-0.16666">
        <ele>2087</ele>
        <time>2015-12-03T10:08:17Z</time>
      </trkpt>
      <trkpt lat="42.8866" lon="-0.16673">
        <ele>2090</ele>
        <time>2015-12-03T10:08:20Z</time>
      </trkpt>
      <trkpt lat="42.88661" lon="-0.16684">
        <ele>2096</ele>
        <time>2015-12-03T10:08:25Z</time>
      </trkpt>
      <trkpt lat="42.88661" lon="-0.16689">
        <ele>2098</ele>
        <time>2015-12-03T10:08:27Z</time>
      </trkpt>
      <trkpt lat="42.88661" lon="-0.16694">
        <ele>2100</ele>
        <time>2015-12-03T10:08:29Z</time>
      </trkpt>
      <trkpt lat="42.88662" lon="-0.16704">
        <ele>2104</ele>
        <time>2015-12-03T10:08:33Z</time>
      </trkpt>
      <trkpt lat="42.88662" lon="-0.16708">
        <ele>2106</ele>
        <time>2015-12-03T10:08:35Z</time>
      </trkpt>
      <trkpt lat="42.88662" lon="-0.16714">
        <ele>2109</ele>
        <time>2015-12-03T10:08:38Z</time>
      </trkpt>
      <trkpt lat="42.88662" lon="-0.16719">
        <ele>2110</ele>
        <time>2015-12-03T10:08:40Z</time>
      </trkpt>
      <trkpt lat="42.88663" lon="-0.16725">
        <ele>2113</ele>
        <time>2015-12-03T10:08:43Z</time>
      </trkpt>
      <trkpt lat="42.88663" lon="-0.16731">
        <ele>2115</ele>
        <time>2015-12-03T10:08:45Z</time>
      </trkpt>
      <trkpt lat="42.88663" lon="-0.16738">
        <ele>2118</ele>
        <time>2015-12-03T10:08:48Z</time>
      </trkpt>
      <trkpt lat="42.88663" lon="-0.16745">
        <ele>2120</ele>
        <time>2015-12-03T10:08:51Z</time>
      </trkpt>
      <trkpt lat="42.88663" lon="-0.16752">
        <ele>2122</ele>
        <time>2015-12-03T10:08:54Z</time>
      </trkpt>
      <trkpt lat="42.88663" lon="-0.16765">
        <ele>2128</ele>
        <time>2015-12-03T10:08:59Z</time>
      </trkpt>
      <trkpt lat="42.88663" lon="-0.16773">
        <ele>2130</ele>
        <time>2015-12-03T10:09:02Z</time>
      </trkpt>
      <trkpt lat="42.88663" lon="-0.16774">
        <ele>2131</ele>
        <time>2015-12-03T10:09:03Z</time>
      </trkpt>
      <trkpt lat="42.88664" lon="-0.16783">
        <ele>2136</ele>
        <time>2015-12-03T10:09:07Z</time>
      </trkpt>
      <trkpt lat="42.88665" lon="-0.16788">
        <ele>2138</ele>
        <time>2015-12-03T10:09:09Z</time>
      </trkpt>
      <trkpt lat="42.88666" lon="-0.16796">
        <ele>2143</ele>
        <time>2015-12-03T10:09:12Z</time>
      </trkpt>
      <trkpt lat="42.88665" lon="-0.16804">
        <ele>2147</ele>
        <time>2015-12-03T10:09:15Z</time>
      </trkpt>
      <trkpt lat="42.88665" lon="-0.16812">
        <ele>2151</ele>
        <time>2015-12-03T10:09:18Z</time>
      </trkpt>
      <trkpt lat="42.88665" lon="-0.16817">
        <ele>2154</ele>
        <time>2015-12-03T10:09:20Z</time>
      </trkpt>
      <trkpt lat="42.88664" lon="-0.16824">
        <ele>2158</ele>
        <time>2015-12-03T10:09:23Z</time>
      </trkpt>
      <trkpt lat="42.88664" lon="-0.16829">
        <ele>2161</ele>
        <time>2015-12-03T10:09:25Z</time>
      </trkpt>
      <trkpt lat="42.88665" lon="-0.16835">
        <ele>2165</ele>
        <time>2015-12-03T10:09:28Z</time>
      </trkpt>
      <trkpt lat="42.88666" lon="-0.16842">
        <ele>2170</ele>
        <time>2015-12-03T10:09:31Z</time>
      </trkpt>
      <trkpt lat="42.88665" lon="-0.16851">
        <ele>2175</ele>
        <time>2015-12-03T10:09:34Z</time>
      </trkpt>
      <trkpt lat="42.88664" lon="-0.16862">
        <ele>2181</ele>
        <time>2015-12-03T10:09:38Z</time>
      </trkpt>
      <trkpt lat="42.88663" lon="-0.16871">
        <ele>2185</ele>
        <time>2015-12-03T10:09:41Z</time>
      </trkpt>
      <trkpt lat="42.88663" lon="-0.16873">
        <ele>2186</ele>
        <time>2015-12-03T10:09:42Z</time>
      </trkpt>
      <trkpt lat="42.88662" lon="-0.16882">
        <ele>2190</ele>
        <time>2015-12-03T10:09:45Z</time>
      </trkpt>
      <trkpt lat="42.88663" lon="-0.1689">
        <ele>2195</ele>
        <time>2015-12-03T10:09:50Z</time>
      </trkpt>
      <trkpt lat="42.88663" lon="-0.16892">
        <ele>2196</ele>
        <time>2015-12-03T10:09:51Z</time>
      </trkpt>
      <trkpt lat="42.88663" lon="-0.16897">
        <ele>2199</ele>
        <time>2015-12-03T10:09:54Z</time>
      </trkpt>
      <trkpt lat="42.88658" lon="-0.1691">
        <ele>2204</ele>
        <time>2015-12-03T10:09:59Z</time>
      </trkpt>
      <trkpt lat="42.88661" lon="-0.16915">
        <ele>2207</ele>
        <time>2015-12-03T10:10:01Z</time>
      </trkpt>
      <trkpt lat="42.8866" lon="-0.16918">
        <ele>2207</ele>
        <time>2015-12-03T10:10:03Z</time>
      </trkpt>
      <trkpt lat="42.8866" lon="-0.1692">
        <ele>2208</ele>
        <time>2015-12-03T10:10:05Z</time>
      </trkpt>
      <trkpt lat="42.8866" lon="-0.16928">
        <ele>2210</ele>
        <time>2015-12-03T10:10:08Z</time>
      </trkpt>
      <trkpt lat="42.8866" lon="-0.16932">
        <ele>2212</ele>
        <time>2015-12-03T10:10:10Z</time>
      </trkpt>
      <trkpt lat="42.88661" lon="-0.1694">
        <ele>2215</ele>
        <time>2015-12-03T10:10:13Z</time>
      </trkpt>
      <trkpt lat="42.88661" lon="-0.16945">
        <ele>2218</ele>
        <time>2015-12-03T10:10:15Z</time>
      </trkpt>
      <trkpt lat="42.88662" lon="-0.16951">
        <ele>2222</ele>
        <time>2015-12-03T10:10:18Z</time>
      </trkpt>
      <trkpt lat="42.88663" lon="-0.16959">
        <ele>2227</ele>
        <time>2015-12-03T10:10:21Z</time>
      </trkpt>
      <trkpt lat="42.88664" lon="-0.16963">
        <ele>2230</ele>
        <time>2015-12-03T10:10:24Z</time>
      </trkpt>
      <trkpt lat="42.88665" lon="-0.16968">
        <ele>2233</ele>
        <time>2015-12-03T10:10:26Z</time>
      </trkpt>
      <trkpt lat="42.88665" lon="-0.16977">
        <ele>2239</ele>
        <time>2015-12-03T10:10:29Z</time>
      </trkpt>
      <trkpt lat="42.88666" lon="-0.16986">
        <ele>2243</ele>
        <time>2015-12-03T10:10:33Z</time>
      </trkpt>
      <trkpt lat="42.88666" lon="-0.16988">
        <ele>2244</ele>
        <time>2015-12-03T10:10:34Z</time>
      </trkpt>
      <trkpt lat="42.88667" lon="-0.16999">
        <ele>2249</ele>
        <time>2015-12-03T10:10:39Z</time>
      </trkpt>
      <trkpt lat="42.88667" lon="-0.17001">
        <ele>2250</ele>
        <time>2015-12-03T10:10:40Z</time>
      </trkpt>
      <trkpt lat="42.88669" lon="-0.17008">
        <ele>2252</ele>
        <time>2015-12-03T10:10:43Z</time>
      </trkpt>
      <trkpt lat="42.88669" lon="-0.17013">
        <ele>2255</ele>
        <time>2015-12-03T10:10:45Z</time>
      </trkpt>
      <trkpt lat="42.88669" lon="-0.17023">
        <ele>2258</ele>
        <time>2015-12-03T10:10:49Z</time>
      </trkpt>
      <trkpt lat="42.88669" lon="-0.17028">
        <ele>2260</ele>
        <time>2015-12-03T10:10:51Z</time>
      </trkpt>
      <trkpt lat="42.88668" lon="-0.17043">
        <ele>2266</ele>
        <time>2015-12-03T10:10:56Z</time>
      </trkpt>
      <trkpt lat="42.88668" lon="-0.17053">
        <ele>2270</ele>
        <time>2015-12-03T10:10:59Z</time>
      </trkpt>
      <trkpt lat="42.88668" lon="-0.17063">
        <ele>2274</ele>
        <time>2015-12-03T10:11:02Z</time>
      </trkpt>
      <trkpt lat="42.88668" lon="-0.17066">
        <ele>2275</ele>
        <time>2015-12-03T10:11:03Z</time>
      </trkpt>
      <trkpt lat="42.88669" lon="-0.17078">
        <ele>2280</ele>
        <time>2015-12-03T10:11:07Z</time>
      </trkpt>
      <trkpt lat="42.8867" lon="-0.17083">
        <ele>2282</ele>
        <time>2015-12-03T10:11:09Z</time>
      </trkpt>
      <trkpt lat="42.88671" lon="-0.17092">
        <ele>2286</ele>
        <time>2015-12-03T10:11:13Z</time>
      </trkpt>
      <trkpt lat="42.88671" lon="-0.17098">
        <ele>2288</ele>
        <time>2015-12-03T10:11:15Z</time>
      </trkpt>
      <trkpt lat="42.88672" lon="-0.17105">
        <ele>2290</ele>
        <time>2015-12-03T10:11:18Z</time>
      </trkpt>
      <trkpt lat="42.88672" lon="-0.17112">
        <ele>2293</ele>
        <time>2015-12-03T10:11:21Z</time>
      </trkpt>
      <trkpt lat="42.88672" lon="-0.1712">
        <ele>2296</ele>
        <time>2015-12-03T10:11:24Z</time>
      </trkpt>
      <trkpt lat="42.88672" lon="-0.17128">
        <ele>2299</ele>
        <time>2015-12-03T10:11:27Z</time>
      </trkpt>
      <trkpt lat="42.88672" lon="-0.17135">
        <ele>2301</ele>
        <time>2015-12-03T10:11:30Z</time>
      </trkpt>
      <trkpt lat="42.88673" lon="-0.1714">
        <ele>2304</ele>
        <time>2015-12-03T10:11:32Z</time>
      </trkpt>
      <trkpt lat="42.88673" lon="-0.17147">
        <ele>2306</ele>
        <time>2015-12-03T10:11:35Z</time>
      </trkpt>
      <trkpt lat="42.88673" lon="-0.17154">
        <ele>2309</ele>
        <time>2015-12-03T10:11:38Z</time>
      </trkpt>
      <trkpt lat="42.88674" lon="-0.17159">
        <ele>2311</ele>
        <time>2015-12-03T10:11:41Z</time>
      </trkpt>
      <trkpt lat="42.88674" lon="-0.17164">
        <ele>2313</ele>
        <time>2015-12-03T10:11:43Z</time>
      </trkpt>
      <trkpt lat="42.88674" lon="-0.17172">
        <ele>2316</ele>
        <time>2015-12-03T10:11:46Z</time>
      </trkpt>
      <trkpt lat="42.88675" lon="-0.1718">
        <ele>2320</ele>
        <time>2015-12-03T10:11:49Z</time>
      </trkpt>
      <trkpt lat="42.88675" lon="-0.17185">
        <ele>2322</ele>
        <time>2015-12-03T10:11:51Z</time>
      </trkpt>
      <trkpt lat="42.88676" lon="-0.17193">
        <ele>2325</ele>
        <time>2015-12-03T10:11:54Z</time>
      </trkpt>
      <trkpt lat="42.88676" lon="-0.172">
        <ele>2327</ele>
        <time>2015-12-03T10:11:57Z</time>
      </trkpt>
      <trkpt lat="42.88676" lon="-0.17212">
        <ele>2331</ele>
        <time>2015-12-03T10:12:02Z</time>
      </trkpt>
      <trkpt lat="42.88677" lon="-0.1722">
        <ele>2333</ele>
        <time>2015-12-03T10:12:05Z</time>
      </trkpt>
      <trkpt lat="42.88677" lon="-0.17228">
        <ele>2335</ele>
        <time>2015-12-03T10:12:08Z</time>
      </trkpt>
      <trkpt lat="42.88677" lon="-0.1723">
        <ele>2335</ele>
        <time>2015-12-03T10:12:09Z</time>
      </trkpt>
      <trkpt lat="42.88677" lon="-0.17238">
        <ele>2337</ele>
        <time>2015-12-03T10:12:12Z</time>
      </trkpt>
      <trkpt lat="42.88678" lon="-0.17247">
        <ele>2338</ele>
        <time>2015-12-03T10:12:15Z</time>
      </trkpt>
      <trkpt lat="42.88678" lon="-0.17254">
        <ele>2339</ele>
        <time>2015-12-03T10:12:18Z</time>
      </trkpt>
      <trkpt lat="42.88678" lon="-0.17263">
        <ele>2339</ele>
        <time>2015-12-03T10:12:21Z</time>
      </trkpt>
      <trkpt lat="42.88679" lon="-0.17269">
        <ele>2340</ele>
        <time>2015-12-03T10:12:24Z</time>
      </trkpt>
      <trkpt lat="42.88679" lon="-0.17276">
        <ele>2341</ele>
        <time>2015-12-03T10:12:27Z</time>
      </trkpt>
      <trkpt lat="42.8868" lon="-0.17285">
        <ele>2343</ele>
        <time>2015-12-03T10:12:30Z</time>
      </trkpt>
      <trkpt lat="42.88679" lon="-0.17293">
        <ele>2345</ele>
        <time>2015-12-03T10:12:33Z</time>
      </trkpt>
      <trkpt lat="42.88679" lon="-0.173">
        <ele>2347</ele>
        <time>2015-12-03T10:12:36Z</time>
      </trkpt>
      <trkpt lat="42.8868" lon="-0.17307">
        <ele>2350</ele>
        <time>2015-12-03T10:12:39Z</time>
      </trkpt>
      <trkpt lat="42.8868" lon="-0.17316">
        <ele>2354</ele>
        <time>2015-12-03T10:12:42Z</time>
      </trkpt>
      <trkpt lat="42.8868" lon="-0.17329">
        <ele>2359</ele>
        <time>2015-12-03T10:12:47Z</time>
      </trkpt>
      <trkpt lat="42.8868" lon="-0.17337">
        <ele>2363</ele>
        <time>2015-12-03T10:12:50Z</time>
      </trkpt>
      <trkpt lat="42.88681" lon="-0.17343">
        <ele>2365</ele>
        <time>2015-12-03T10:12:52Z</time>
      </trkpt>
      <trkpt lat="42.88681" lon="-0.17354">
        <ele>2368</ele>
        <time>2015-12-03T10:12:56Z</time>
      </trkpt>
      <trkpt lat="42.88681" lon="-0.17357">
        <ele>2369</ele>
        <time>2015-12-03T10:12:57Z</time>
      </trkpt>
      <trkpt lat="42.88681" lon="-0.17366">
        <ele>2371</ele>
        <time>2015-12-03T10:13:00Z</time>
      </trkpt>
      <trkpt lat="42.88682" lon="-0.17373">
        <ele>2373</ele>
        <time>2015-12-03T10:13:03Z</time>
      </trkpt>
      <trkpt lat="42.88682" lon="-0.17381">
        <ele>2374</ele>
        <time>2015-12-03T10:13:06Z</time>
      </trkpt>
      <trkpt lat="42.88683" lon="-0.17388">
        <ele>2375</ele>
        <time>2015-12-03T10:13:09Z</time>
      </trkpt>
      <trkpt lat="42.88683" lon="-0.17394">
        <ele>2376</ele>
        <time>2015-12-03T10:13:11Z</time>
      </trkpt>
      <trkpt lat="42.88683" lon="-0.17402">
        <ele>2377</ele>
        <time>2015-12-03T10:13:14Z</time>
      </trkpt>
      <trkpt lat="42.88682" lon="-0.17412">
        <ele>2379</ele>
        <time>2015-12-03T10:13:19Z</time>
      </trkpt>
      <trkpt lat="42.88682" lon="-0.17415">
        <ele>2379</ele>
        <time>2015-12-03T10:13:20Z</time>
      </trkpt>
      <trkpt lat="42.88681" lon="-0.17424">
        <ele>2380</ele>
        <time>2015-12-03T10:13:23Z</time>
      </trkpt>
      <trkpt lat="42.88682" lon="-0.17448">
        <ele>2380</ele>
        <time>2015-12-03T10:13:28Z</time>
      </trkpt>
      <trkpt lat="42.88682" lon="-0.17461">
        <ele>2381</ele>
        <time>2015-12-03T10:13:30Z</time>
      </trkpt>
      <trkpt lat="42.88682" lon="-0.1747">
        <ele>2381</ele>
        <time>2015-12-03T10:13:32Z</time>
      </trkpt>
      <trkpt lat="42.88682" lon="-0.17471">
        <ele>2381</ele>
        <time>2015-12-03T10:13:35Z</time>
      </trkpt>
      <trkpt lat="42.88684" lon="-0.17474">
        <ele>2381</ele>
        <time>2015-12-03T10:13:38Z</time>
      </trkpt>
      <trkpt lat="42.88688" lon="-0.17479">
        <ele>2380</ele>
        <time>2015-12-03T10:13:41Z</time>
      </trkpt>
      <trkpt lat="42.88698" lon="-0.17487">
        <ele>2378</ele>
        <time>2015-12-03T10:13:44Z</time>
      </trkpt>
      <trkpt lat="42.88681" lon="-0.16664">
        <ele>2095</ele>
        <time>2015-12-03T10:15:24Z</time>
      </trkpt>
      <trkpt lat="42.88551" lon="-0.16617">
        <ele>2042</ele>
        <time>2015-12-03T10:15:49Z</time>
      </trkpt>
      <trkpt lat="42.88534" lon="-0.15281">
        <ele>1737</ele>
        <time>2015-12-03T10:18:26Z</time>
      </trkpt>
      <trkpt lat="42.88534" lon="-0.15282">
        <ele>1737</ele>
        <time>2015-12-03T10:18:29Z</time>
      </trkpt>
      <trkpt lat="42.88535" lon="-0.15283">
        <ele>1737</ele>
        <time>2015-12-03T10:18:32Z</time>
      </trkpt>
      <trkpt lat="42.88535" lon="-0.15284">
        <ele>1737</ele>
        <time>2015-12-03T10:18:35Z</time>
      </trkpt>
      <trkpt lat="42.88535" lon="-0.15286">
        <ele>1737</ele>
        <time>2015-12-03T10:18:38Z</time>
      </trkpt>
      <trkpt lat="42.88536" lon="-0.15285">
        <ele>1737</ele>
        <time>2015-12-03T10:18:41Z</time>
      </trkpt>
      <trkpt lat="42.88535" lon="-0.15286">
        <ele>1737</ele>
        <time>2015-12-03T10:18:44Z</time>
      </trkpt>
      <trkpt lat="42.88536" lon="-0.15289">
        <ele>1737</ele>
        <time>2015-12-03T10:18:47Z</time>
      </trkpt>
      <trkpt lat="42.88535" lon="-0.15293">
        <ele>1738</ele>
        <time>2015-12-03T10:18:50Z</time>
      </trkpt>
      <trkpt lat="42.88535" lon="-0.15291">
        <ele>1737</ele>
        <time>2015-12-03T10:18:54Z</time>
      </trkpt>
      <trkpt lat="42.88535" lon="-0.15291">
        <ele>1737</ele>
        <time>2015-12-03T10:18:56Z</time>
      </trkpt>
      <trkpt lat="42.88535" lon="-0.15292">
        <ele>1737</ele>
        <time>2015-12-03T10:18:59Z</time>
      </trkpt>
      <trkpt lat="42.88534" lon="-0.15293">
        <ele>1738</ele>
        <time>2015-12-03T10:19:02Z</time>
      </trkpt>
      <trkpt lat="42.88534" lon="-0.15317">
        <ele>1740</ele>
        <time>2015-12-03T10:19:07Z</time>
      </trkpt>
      <trkpt lat="42.8853" lon="-0.15328">
        <ele>1742</ele>
        <time>2015-12-03T10:19:09Z</time>
      </trkpt>
      <trkpt lat="42.88526" lon="-0.15349">
        <ele>1745</ele>
        <time>2015-12-03T10:19:13Z</time>
      </trkpt>
      <trkpt lat="42.88525" lon="-0.15353">
        <ele>1745</ele>
        <time>2015-12-03T10:19:14Z</time>
      </trkpt>
      <trkpt lat="42.88524" lon="-0.15367">
        <ele>1745</ele>
        <time>2015-12-03T10:19:17Z</time>
      </trkpt>
      <trkpt lat="42.8852" lon="-0.15382">
        <ele>1747</ele>
        <time>2015-12-03T10:19:20Z</time>
      </trkpt>
      <trkpt lat="42.88518" lon="-0.15398">
        <ele>1748</ele>
        <time>2015-12-03T10:19:23Z</time>
      </trkpt>
      <trkpt lat="42.88516" lon="-0.15413">
        <ele>1750</ele>
        <time>2015-12-03T10:19:26Z</time>
      </trkpt>
      <trkpt lat="42.88513" lon="-0.15427">
        <ele>1752</ele>
        <time>2015-12-03T10:19:29Z</time>
      </trkpt>
      <trkpt lat="42.88512" lon="-0.15439">
        <ele>1754</ele>
        <time>2015-12-03T10:19:32Z</time>
      </trkpt>
      <trkpt lat="42.8851" lon="-0.15453">
        <ele>1757</ele>
        <time>2015-12-03T10:19:35Z</time>
      </trkpt>
      <trkpt lat="42.88508" lon="-0.15461">
        <ele>1759</ele>
        <time>2015-12-03T10:19:37Z</time>
      </trkpt>
      <trkpt lat="42.88505" lon="-0.15476">
        <ele>1761</ele>
        <time>2015-12-03T10:19:40Z</time>
      </trkpt>
      <trkpt lat="42.88504" lon="-0.15483">
        <ele>1761</ele>
        <time>2015-12-03T10:19:42Z</time>
      </trkpt>
      <trkpt lat="42.88503" lon="-0.15496">
        <ele>1762</ele>
        <time>2015-12-03T10:19:45Z</time>
      </trkpt>
      <trkpt lat="42.88501" lon="-0.15509">
        <ele>1763</ele>
        <time>2015-12-03T10:19:48Z</time>
      </trkpt>
      <trkpt lat="42.88501" lon="-0.15517">
        <ele>1763</ele>
        <time>2015-12-03T10:19:50Z</time>
      </trkpt>
      <trkpt lat="42.88499" lon="-0.1553">
        <ele>1765</ele>
        <time>2015-12-03T10:19:53Z</time>
      </trkpt>
      <trkpt lat="42.88499" lon="-0.1554">
        <ele>1767</ele>
        <time>2015-12-03T10:19:56Z</time>
      </trkpt>
      <trkpt lat="42.88498" lon="-0.15552">
        <ele>1770</ele>
        <time>2015-12-03T10:19:59Z</time>
      </trkpt>
      <trkpt lat="42.88495" lon="-0.15568">
        <ele>1776</ele>
        <time>2015-12-03T10:20:02Z</time>
      </trkpt>
      <trkpt lat="42.88493" lon="-0.15581">
        <ele>1782</ele>
        <time>2015-12-03T10:20:05Z</time>
      </trkpt>
      <trkpt lat="42.88492" lon="-0.15586">
        <ele>1785</ele>
        <time>2015-12-03T10:20:06Z</time>
      </trkpt>
      <trkpt lat="42.88489" lon="-0.15602">
        <ele>1793</ele>
        <time>2015-12-03T10:20:09Z</time>
      </trkpt>
      <trkpt lat="42.88488" lon="-0.15611">
        <ele>1797</ele>
        <time>2015-12-03T10:20:11Z</time>
      </trkpt>
      <trkpt lat="42.88487" lon="-0.15624">
        <ele>1802</ele>
        <time>2015-12-03T10:20:14Z</time>
      </trkpt>
      <trkpt lat="42.88486" lon="-0.15631">
        <ele>1805</ele>
        <time>2015-12-03T10:20:16Z</time>
      </trkpt>
      <trkpt lat="42.88484" lon="-0.15645">
        <ele>1810</ele>
        <time>2015-12-03T10:20:19Z</time>
      </trkpt>
      <trkpt lat="42.88483" lon="-0.15657">
        <ele>1813</ele>
        <time>2015-12-03T10:20:22Z</time>
      </trkpt>
      <trkpt lat="42.8848" lon="-0.15669">
        <ele>1818</ele>
        <time>2015-12-03T10:20:25Z</time>
      </trkpt>
      <trkpt lat="42.88478" lon="-0.15682">
        <ele>1822</ele>
        <time>2015-12-03T10:20:28Z</time>
      </trkpt>
      <trkpt lat="42.88475" lon="-0.15696">
        <ele>1827</ele>
        <time>2015-12-03T10:20:31Z</time>
      </trkpt>
      <trkpt lat="42.88474" lon="-0.1571">
        <ele>1831</ele>
        <time>2015-12-03T10:20:34Z</time>
      </trkpt>
      <trkpt lat="42.88471" lon="-0.15724">
        <ele>1835</ele>
        <time>2015-12-03T10:20:37Z</time>
      </trkpt>
      <trkpt lat="42.88468" lon="-0.15739">
        <ele>1839</ele>
        <time>2015-12-03T10:20:40Z</time>
      </trkpt>
      <trkpt lat="42.88464" lon="-0.15764">
        <ele>1845</ele>
        <time>2015-12-03T10:20:45Z</time>
      </trkpt>
      <trkpt lat="42.88462" lon="-0.15775">
        <ele>1848</ele>
        <time>2015-12-03T10:20:47Z</time>
      </trkpt>
      <trkpt lat="42.88459" lon="-0.15794">
        <ele>1853</ele>
        <time>2015-12-03T10:20:51Z</time>
      </trkpt>
      <trkpt lat="42.88458" lon="-0.15799">
        <ele>1854</ele>
        <time>2015-12-03T10:20:52Z</time>
      </trkpt>
      <trkpt lat="42.88456" lon="-0.15814">
        <ele>1859</ele>
        <time>2015-12-03T10:20:55Z</time>
      </trkpt>
      <trkpt lat="42.88455" lon="-0.15828">
        <ele>1865</ele>
        <time>2015-12-03T10:20:58Z</time>
      </trkpt>
      <trkpt lat="42.88452" lon="-0.15842">
        <ele>1870</ele>
        <time>2015-12-03T10:21:01Z</time>
      </trkpt>
      <trkpt lat="42.88451" lon="-0.15855">
        <ele>1874</ele>
        <time>2015-12-03T10:21:04Z</time>
      </trkpt>
      <trkpt lat="42.88449" lon="-0.15864">
        <ele>1877</ele>
        <time>2015-12-03T10:21:06Z</time>
      </trkpt>
      <trkpt lat="42.88447" lon="-0.15878">
        <ele>1882</ele>
        <time>2015-12-03T10:21:09Z</time>
      </trkpt>
      <trkpt lat="42.88446" lon="-0.15885">
        <ele>1884</ele>
        <time>2015-12-03T10:21:11Z</time>
      </trkpt>
      <trkpt lat="42.88445" lon="-0.15895">
        <ele>1888</ele>
        <time>2015-12-03T10:21:14Z</time>
      </trkpt>
      <trkpt lat="42.88444" lon="-0.15908">
        <ele>1892</ele>
        <time>2015-12-03T10:21:17Z</time>
      </trkpt>
      <trkpt lat="42.8844" lon="-0.15933">
        <ele>1899</ele>
        <time>2015-12-03T10:21:22Z</time>
      </trkpt>
      <trkpt lat="42.88437" lon="-0.15946">
        <ele>1904</ele>
        <time>2015-12-03T10:21:25Z</time>
      </trkpt>
      <trkpt lat="42.88435" lon="-0.15958">
        <ele>1909</ele>
        <time>2015-12-03T10:21:28Z</time>
      </trkpt>
      <trkpt lat="42.88432" lon="-0.15973">
        <ele>1915</ele>
        <time>2015-12-03T10:21:31Z</time>
      </trkpt>
      <trkpt lat="42.88431" lon="-0.15983">
        <ele>1919</ele>
        <time>2015-12-03T10:21:33Z</time>
      </trkpt>
      <trkpt lat="42.8843" lon="-0.15987">
        <ele>1921</ele>
        <time>2015-12-03T10:21:34Z</time>
      </trkpt>
      <trkpt lat="42.88429" lon="-0.16">
        <ele>1926</ele>
        <time>2015-12-03T10:21:37Z</time>
      </trkpt>
      <trkpt lat="42.88427" lon="-0.16009">
        <ele>1930</ele>
        <time>2015-12-03T10:21:39Z</time>
      </trkpt>
      <trkpt lat="42.88426" lon="-0.16022">
        <ele>1935</ele>
        <time>2015-12-03T10:21:42Z</time>
      </trkpt>
      <trkpt lat="42.88422" lon="-0.16035">
        <ele>1940</ele>
        <time>2015-12-03T10:21:45Z</time>
      </trkpt>
      <trkpt lat="42.88419" lon="-0.16048">
        <ele>1945</ele>
        <time>2015-12-03T10:21:48Z</time>
      </trkpt>
      <trkpt lat="42.88417" lon="-0.16064">
        <ele>1950</ele>
        <time>2015-12-03T10:21:52Z</time>
      </trkpt>
      <trkpt lat="42.88417" lon="-0.16068">
        <ele>1951</ele>
        <time>2015-12-03T10:21:53Z</time>
      </trkpt>
      <trkpt lat="42.88416" lon="-0.16076">
        <ele>1954</ele>
        <time>2015-12-03T10:21:55Z</time>
      </trkpt>
      <trkpt lat="42.88413" lon="-0.16089">
        <ele>1958</ele>
        <time>2015-12-03T10:21:58Z</time>
      </trkpt>
      <trkpt lat="42.88413" lon="-0.16102">
        <ele>1961</ele>
        <time>2015-12-03T10:22:01Z</time>
      </trkpt>
      <trkpt lat="42.88411" lon="-0.16116">
        <ele>1965</ele>
        <time>2015-12-03T10:22:04Z</time>
      </trkpt>
      <trkpt lat="42.8841" lon="-0.16124">
        <ele>1967</ele>
        <time>2015-12-03T10:22:06Z</time>
      </trkpt>
      <trkpt lat="42.88408" lon="-0.16138">
        <ele>1971</ele>
        <time>2015-12-03T10:22:09Z</time>
      </trkpt>
      <trkpt lat="42.88404" lon="-0.16162">
        <ele>1979</ele>
        <time>2015-12-03T10:22:14Z</time>
      </trkpt>
      <trkpt lat="42.88402" lon="-0.16176">
        <ele>1984</ele>
        <time>2015-12-03T10:22:17Z</time>
      </trkpt>
      <trkpt lat="42.884" lon="-0.16191">
        <ele>1989</ele>
        <time>2015-12-03T10:22:20Z</time>
      </trkpt>
      <trkpt lat="42.88398" lon="-0.16204">
        <ele>1993</ele>
        <time>2015-12-03T10:22:23Z</time>
      </trkpt>
      <trkpt lat="42.88398" lon="-0.16208">
        <ele>1995</ele>
        <time>2015-12-03T10:22:24Z</time>
      </trkpt>
      <trkpt lat="42.88396" lon="-0.16221">
        <ele>1999</ele>
        <time>2015-12-03T10:22:27Z</time>
      </trkpt>
      <trkpt lat="42.88393" lon="-0.16235">
        <ele>2003</ele>
        <time>2015-12-03T10:22:30Z</time>
      </trkpt>
      <trkpt lat="42.88393" lon="-0.16249">
        <ele>2006</ele>
        <time>2015-12-03T10:22:33Z</time>
      </trkpt>
      <trkpt lat="42.88391" lon="-0.16258">
        <ele>2008</ele>
        <time>2015-12-03T10:22:35Z</time>
      </trkpt>
      <trkpt lat="42.88389" lon="-0.16268">
        <ele>2011</ele>
        <time>2015-12-03T10:22:38Z</time>
      </trkpt>
      <trkpt lat="42.88387" lon="-0.16285">
        <ele>2015</ele>
        <time>2015-12-03T10:22:42Z</time>
      </trkpt>
      <trkpt lat="42.88386" lon="-0.1629">
        <ele>2017</ele>
        <time>2015-12-03T10:22:43Z</time>
      </trkpt>
      <trkpt lat="42.88384" lon="-0.16305">
        <ele>2021</ele>
        <time>2015-12-03T10:22:46Z</time>
      </trkpt>
      <trkpt lat="42.88382" lon="-0.16314">
        <ele>2024</ele>
        <time>2015-12-03T10:22:48Z</time>
      </trkpt>
      <trkpt lat="42.88381" lon="-0.16323">
        <ele>2027</ele>
        <time>2015-12-03T10:22:50Z</time>
      </trkpt>
      <trkpt lat="42.88379" lon="-0.16342">
        <ele>2033</ele>
        <time>2015-12-03T10:22:54Z</time>
      </trkpt>
      <trkpt lat="42.88378" lon="-0.16345">
        <ele>2034</ele>
        <time>2015-12-03T10:22:55Z</time>
      </trkpt>
      <trkpt lat="42.88377" lon="-0.16359">
        <ele>2038</ele>
        <time>2015-12-03T10:22:58Z</time>
      </trkpt>
      <trkpt lat="42.88375" lon="-0.16372">
        <ele>2042</ele>
        <time>2015-12-03T10:23:01Z</time>
      </trkpt>
      <trkpt lat="42.88372" lon="-0.16395">
        <ele>2048</ele>
        <time>2015-12-03T10:23:06Z</time>
      </trkpt>
      <trkpt lat="42.8837" lon="-0.1641">
        <ele>2051</ele>
        <time>2015-12-03T10:23:09Z</time>
      </trkpt>
      <trkpt lat="42.88368" lon="-0.16424">
        <ele>2054</ele>
        <time>2015-12-03T10:23:12Z</time>
      </trkpt>
      <trkpt lat="42.88368" lon="-0.16428">
        <ele>2055</ele>
        <time>2015-12-03T10:23:13Z</time>
      </trkpt>
      <trkpt lat="42.88366" lon="-0.16442">
        <ele>2059</ele>
        <time>2015-12-03T10:23:16Z</time>
      </trkpt>
      <trkpt lat="42.88363" lon="-0.16456">
        <ele>2062</ele>
        <time>2015-12-03T10:23:19Z</time>
      </trkpt>
      <trkpt lat="42.88362" lon="-0.16468">
        <ele>2065</ele>
        <time>2015-12-03T10:23:22Z</time>
      </trkpt>
      <trkpt lat="42.88359" lon="-0.1648">
        <ele>2068</ele>
        <time>2015-12-03T10:23:25Z</time>
      </trkpt>
      <trkpt lat="42.88357" lon="-0.16494">
        <ele>2072</ele>
        <time>2015-12-03T10:23:28Z</time>
      </trkpt>
      <trkpt lat="42.88355" lon="-0.16508">
        <ele>2075</ele>
        <time>2015-12-03T10:23:31Z</time>
      </trkpt>
      <trkpt lat="42.88352" lon="-0.16527">
        <ele>2081</ele>
        <time>2015-12-03T10:23:35Z</time>
      </trkpt>
      <trkpt lat="42.88351" lon="-0.16536">
        <ele>2083</ele>
        <time>2015-12-03T10:23:37Z</time>
      </trkpt>
      <trkpt lat="42.88349" lon="-0.1655">
        <ele>2086</ele>
        <time>2015-12-03T10:23:40Z</time>
      </trkpt>
      <trkpt lat="42.88347" lon="-0.16565">
        <ele>2088</ele>
        <time>2015-12-03T10:23:43Z</time>
      </trkpt>
      <trkpt lat="42.88345" lon="-0.1658">
        <ele>2092</ele>
        <time>2015-12-03T10:23:46Z</time>
      </trkpt>
      <trkpt lat="42.88343" lon="-0.16594">
        <ele>2095</ele>
        <time>2015-12-03T10:23:49Z</time>
      </trkpt>
      <trkpt lat="42.88341" lon="-0.16608">
        <ele>2099</ele>
        <time>2015-12-03T10:23:52Z</time>
      </trkpt>
      <trkpt lat="42.88339" lon="-0.16622">
        <ele>2103</ele>
        <time>2015-12-03T10:23:55Z</time>
      </trkpt>
      <trkpt lat="42.88337" lon="-0.16636">
        <ele>2107</ele>
        <time>2015-12-03T10:23:58Z</time>
      </trkpt>
      <trkpt lat="42.88335" lon="-0.1665">
        <ele>2111</ele>
        <time>2015-12-03T10:24:01Z</time>
      </trkpt>
      <trkpt lat="42.88333" lon="-0.16664">
        <ele>2116</ele>
        <time>2015-12-03T10:24:04Z</time>
      </trkpt>
      <trkpt lat="42.88331" lon="-0.16677">
        <ele>2120</ele>
        <time>2015-12-03T10:24:07Z</time>
      </trkpt>
      <trkpt lat="42.88329" lon="-0.16691">
        <ele>2123</ele>
        <time>2015-12-03T10:24:10Z</time>
      </trkpt>
      <trkpt lat="42.88327" lon="-0.16705">
        <ele>2125</ele>
        <time>2015-12-03T10:24:13Z</time>
      </trkpt>
      <trkpt lat="42.88324" lon="-0.16719">
        <ele>2127</ele>
        <time>2015-12-03T10:24:16Z</time>
      </trkpt>
      <trkpt lat="42.88322" lon="-0.16733">
        <ele>2128</ele>
        <time>2015-12-03T10:24:19Z</time>
      </trkpt>
      <trkpt lat="42.8832" lon="-0.16747">
        <ele>2130</ele>
        <time>2015-12-03T10:24:22Z</time>
      </trkpt>
      <trkpt lat="42.88318" lon="-0.16761">
        <ele>2132</ele>
        <time>2015-12-03T10:24:25Z</time>
      </trkpt>
      <trkpt lat="42.88316" lon="-0.16775">
        <ele>2134</ele>
        <time>2015-12-03T10:24:28Z</time>
      </trkpt>
      <trkpt lat="42.88315" lon="-0.16785">
        <ele>2136</ele>
        <time>2015-12-03T10:24:30Z</time>
      </trkpt>
      <trkpt lat="42.88313" lon="-0.16799">
        <ele>2139</ele>
        <time>2015-12-03T10:24:33Z</time>
      </trkpt>
      <trkpt lat="42.88311" lon="-0.16809">
        <ele>2141</ele>
        <time>2015-12-03T10:24:35Z</time>
      </trkpt>
      <trkpt lat="42.88309" lon="-0.16823">
        <ele>2145</ele>
        <time>2015-12-03T10:24:38Z</time>
      </trkpt>
      <trkpt lat="42.88308" lon="-0.16832">
        <ele>2147</ele>
        <time>2015-12-03T10:24:40Z</time>
      </trkpt>
      <trkpt lat="42.88305" lon="-0.16846">
        <ele>2151</ele>
        <time>2015-12-03T10:24:43Z</time>
      </trkpt>
      <trkpt lat="42.88303" lon="-0.16856">
        <ele>2154</ele>
        <time>2015-12-03T10:24:45Z</time>
      </trkpt>
      <trkpt lat="42.88301" lon="-0.16871">
        <ele>2157</ele>
        <time>2015-12-03T10:24:48Z</time>
      </trkpt>
      <trkpt lat="42.88299" lon="-0.1688">
        <ele>2160</ele>
        <time>2015-12-03T10:24:50Z</time>
      </trkpt>
      <trkpt lat="42.88298" lon="-0.16892">
        <ele>2163</ele>
        <time>2015-12-03T10:24:53Z</time>
      </trkpt>
      <trkpt lat="42.88295" lon="-0.16907">
        <ele>2166</ele>
        <time>2015-12-03T10:24:56Z</time>
      </trkpt>
      <trkpt lat="42.88293" lon="-0.1692">
        <ele>2169</ele>
        <time>2015-12-03T10:24:59Z</time>
      </trkpt>
      <trkpt lat="42.88292" lon="-0.16933">
        <ele>2172</ele>
        <time>2015-12-03T10:25:02Z</time>
      </trkpt>
      <trkpt lat="42.88289" lon="-0.16952">
        <ele>2176</ele>
        <time>2015-12-03T10:25:06Z</time>
      </trkpt>
      <trkpt lat="42.88289" lon="-0.16956">
        <ele>2177</ele>
        <time>2015-12-03T10:25:07Z</time>
      </trkpt>
      <trkpt lat="42.88285" lon="-0.16975">
        <ele>2182</ele>
        <time>2015-12-03T10:25:11Z</time>
      </trkpt>
      <trkpt lat="42.88284" lon="-0.16982">
        <ele>2184</ele>
        <time>2015-12-03T10:25:13Z</time>
      </trkpt>
      <trkpt lat="42.88284" lon="-0.1699">
        <ele>2186</ele>
        <time>2015-12-03T10:25:15Z</time>
      </trkpt>
      <trkpt lat="42.88281" lon="-0.17001">
        <ele>2189</ele>
        <time>2015-12-03T10:25:18Z</time>
      </trkpt>
      <trkpt lat="42.88279" lon="-0.17015">
        <ele>2192</ele>
        <time>2015-12-03T10:25:21Z</time>
      </trkpt>
      <trkpt lat="42.88276" lon="-0.17039">
        <ele>2199</ele>
        <time>2015-12-03T10:25:26Z</time>
      </trkpt>
      <trkpt lat="42.88272" lon="-0.17055">
        <ele>2204</ele>
        <time>2015-12-03T10:25:29Z</time>
      </trkpt>
      <trkpt lat="42.8827" lon="-0.17066">
        <ele>2207</ele>
        <time>2015-12-03T10:25:31Z</time>
      </trkpt>
      <trkpt lat="42.88268" lon="-0.17085">
        <ele>2212</ele>
        <time>2015-12-03T10:25:35Z</time>
      </trkpt>
      <trkpt lat="42.88268" lon="-0.17089">
        <ele>2213</ele>
        <time>2015-12-03T10:25:36Z</time>
      </trkpt>
      <trkpt lat="42.88266" lon="-0.17104">
        <ele>2217</ele>
        <time>2015-12-03T10:25:39Z</time>
      </trkpt>
      <trkpt lat="42.88263" lon="-0.17119">
        <ele>2221</ele>
        <time>2015-12-03T10:25:42Z</time>
      </trkpt>
      <trkpt lat="42.88262" lon="-0.17132">
        <ele>2224</ele>
        <time>2015-12-03T10:25:45Z</time>
      </trkpt>
      <trkpt lat="42.88259" lon="-0.17147">
        <ele>2228</ele>
        <time>2015-12-03T10:25:48Z</time>
      </trkpt>
      <trkpt lat="42.88257" lon="-0.17161">
        <ele>2231</ele>
        <time>2015-12-03T10:25:51Z</time>
      </trkpt>
      <trkpt lat="42.88255" lon="-0.17174">
        <ele>2235</ele>
        <time>2015-12-03T10:25:54Z</time>
      </trkpt>
      <trkpt lat="42.88254" lon="-0.17183">
        <ele>2237</ele>
        <time>2015-12-03T10:25:56Z</time>
      </trkpt>
      <trkpt lat="42.8825" lon="-0.17198">
        <ele>2241</ele>
        <time>2015-12-03T10:25:59Z</time>
      </trkpt>
      <trkpt lat="42.88247" lon="-0.17212">
        <ele>2246</ele>
        <time>2015-12-03T10:26:02Z</time>
      </trkpt>
      <trkpt lat="42.88246" lon="-0.17221">
        <ele>2249</ele>
        <time>2015-12-03T10:26:04Z</time>
      </trkpt>
      <trkpt lat="42.88245" lon="-0.17229">
        <ele>2251</ele>
        <time>2015-12-03T10:26:06Z</time>
      </trkpt>
      <trkpt lat="42.88242" lon="-0.17245">
        <ele>2256</ele>
        <time>2015-12-03T10:26:09Z</time>
      </trkpt>
      <trkpt lat="42.88241" lon="-0.17252">
        <ele>2258</ele>
        <time>2015-12-03T10:26:11Z</time>
      </trkpt>
      <trkpt lat="42.88239" lon="-0.17267">
        <ele>2263</ele>
        <time>2015-12-03T10:26:14Z</time>
      </trkpt>
      <trkpt lat="42.88237" lon="-0.17275">
        <ele>2266</ele>
        <time>2015-12-03T10:26:16Z</time>
      </trkpt>
      <trkpt lat="42.88235" lon="-0.17288">
        <ele>2270</ele>
        <time>2015-12-03T10:26:19Z</time>
      </trkpt>
      <trkpt lat="42.88235" lon="-0.17296">
        <ele>2273</ele>
        <time>2015-12-03T10:26:21Z</time>
      </trkpt>
      <trkpt lat="42.88231" lon="-0.17318">
        <ele>2282</ele>
        <time>2015-12-03T10:26:26Z</time>
      </trkpt>
      <trkpt lat="42.88231" lon="-0.17331">
        <ele>2288</ele>
        <time>2015-12-03T10:26:29Z</time>
      </trkpt>
      <trkpt lat="42.8823" lon="-0.17336">
        <ele>2290</ele>
        <time>2015-12-03T10:26:30Z</time>
      </trkpt>
      <trkpt lat="42.88228" lon="-0.17349">
        <ele>2295</ele>
        <time>2015-12-03T10:26:33Z</time>
      </trkpt>
      <trkpt lat="42.88226" lon="-0.17363">
        <ele>2301</ele>
        <time>2015-12-03T10:26:36Z</time>
      </trkpt>
      <trkpt lat="42.88223" lon="-0.17384">
        <ele>2309</ele>
        <time>2015-12-03T10:26:41Z</time>
      </trkpt>
      <trkpt lat="42.88222" lon="-0.17393">
        <ele>2313</ele>
        <time>2015-12-03T10:26:43Z</time>
      </trkpt>
      <trkpt lat="42.8822" lon="-0.17399">
        <ele>2316</ele>
        <time>2015-12-03T10:26:45Z</time>
      </trkpt>
      <trkpt lat="42.88217" lon="-0.17411">
        <ele>2320</ele>
        <time>2015-12-03T10:26:48Z</time>
      </trkpt>
      <trkpt lat="42.88216" lon="-0.17422">
        <ele>2324</ele>
        <time>2015-12-03T10:26:51Z</time>
      </trkpt>
      <trkpt lat="42.88212" lon="-0.17436">
        <ele>2329</ele>
        <time>2015-12-03T10:26:54Z</time>
      </trkpt>
      <trkpt lat="42.88213" lon="-0.17449">
        <ele>2332</ele>
        <time>2015-12-03T10:26:59Z</time>
      </trkpt>
      <trkpt lat="42.88212" lon="-0.17454">
        <ele>2333</ele>
        <time>2015-12-03T10:27:01Z</time>
      </trkpt>
      <trkpt lat="42.88211" lon="-0.17458">
        <ele>2334</ele>
        <time>2015-12-03T10:27:04Z</time>
      </trkpt>
      <trkpt lat="42.88209" lon="-0.17457">
        <ele>2334</ele>
        <time>2015-12-03T10:27:06Z</time>
      </trkpt>
      <trkpt lat="42.88198" lon="-0.1745">
        <ele>2331</ele>
        <time>2015-12-03T10:27:10Z</time>
      </trkpt>
      <trkpt lat="42.88194" lon="-0.17444">
        <ele>2330</ele>
        <time>2015-12-03T10:27:12Z</time>
      </trkpt>
      <trkpt lat="42.88184" lon="-0.1743">
        <ele>2325</ele>
        <time>2015-12-03T10:27:16Z</time>
      </trkpt>
      <trkpt lat="42.88177" lon="-0.17422">
        <ele>2323</ele>
        <time>2015-12-03T10:27:18Z</time>
      </trkpt>
      <trkpt lat="42.88111" lon="-0.17259">
        <ele>2285</ele>
        <time>2015-12-03T10:27:44Z</time>
      </trkpt>
      <trkpt lat="42.88115" lon="-0.16191">
        <ele>1943</ele>
        <time>2015-12-03T10:29:50Z</time>
      </trkpt>
      <trkpt lat="42.88549" lon="-0.15319">
        <ele>1736</ele>
        <time>2015-12-03T10:31:54Z</time>
      </trkpt>
      <trkpt lat="42.88539" lon="-0.15326">
        <ele>1739</ele>
        <time>2015-12-03T10:31:56Z</time>
      </trkpt>
      <trkpt lat="42.88532" lon="-0.15344">
        <ele>1743</ele>
        <time>2015-12-03T10:32:00Z</time>
      </trkpt>
      <trkpt lat="42.88528" lon="-0.15356">
        <ele>1744</ele>
        <time>2015-12-03T10:32:03Z</time>
      </trkpt>
      <trkpt lat="42.88526" lon="-0.1536">
        <ele>1745</ele>
        <time>2015-12-03T10:32:04Z</time>
      </trkpt>
      <trkpt lat="42.88523" lon="-0.15375">
        <ele>1746</ele>
        <time>2015-12-03T10:32:07Z</time>
      </trkpt>
      <trkpt lat="42.88519" lon="-0.154">
        <ele>1748</ele>
        <time>2015-12-03T10:32:12Z</time>
      </trkpt>
      <trkpt lat="42.88518" lon="-0.15404">
        <ele>1749</ele>
        <time>2015-12-03T10:32:13Z</time>
      </trkpt>
      <trkpt lat="42.88516" lon="-0.15419">
        <ele>1751</ele>
        <time>2015-12-03T10:32:16Z</time>
      </trkpt>
      <trkpt lat="42.88514" lon="-0.15434">
        <ele>1753</ele>
        <time>2015-12-03T10:32:19Z</time>
      </trkpt>
      <trkpt lat="42.88511" lon="-0.15447">
        <ele>1755</ele>
        <time>2015-12-03T10:32:22Z</time>
      </trkpt>
      <trkpt lat="42.88509" lon="-0.15456">
        <ele>1757</ele>
        <time>2015-12-03T10:32:24Z</time>
      </trkpt>
      <trkpt lat="42.88507" lon="-0.15468">
        <ele>1760</ele>
        <time>2015-12-03T10:32:27Z</time>
      </trkpt>
      <trkpt lat="42.88508" lon="-0.15477">
        <ele>1760</ele>
        <time>2015-12-03T10:32:29Z</time>
      </trkpt>
      <trkpt lat="42.88505" lon="-0.1549">
        <ele>1761</ele>
        <time>2015-12-03T10:32:32Z</time>
      </trkpt>
      <trkpt lat="42.88502" lon="-0.15502">
        <ele>1762</ele>
        <time>2015-12-03T10:32:35Z</time>
      </trkpt>
      <trkpt lat="42.885" lon="-0.15516">
        <ele>1764</ele>
        <time>2015-12-03T10:32:38Z</time>
      </trkpt>
      <trkpt lat="42.88498" lon="-0.15529">
        <ele>1765</ele>
        <time>2015-12-03T10:32:41Z</time>
      </trkpt>
      <trkpt lat="42.88496" lon="-0.15541">
        <ele>1768</ele>
        <time>2015-12-03T10:32:44Z</time>
      </trkpt>
      <trkpt lat="42.88493" lon="-0.15558">
        <ele>1774</ele>
        <time>2015-12-03T10:32:48Z</time>
      </trkpt>
      <trkpt lat="42.88491" lon="-0.15566">
        <ele>1777</ele>
        <time>2015-12-03T10:32:50Z</time>
      </trkpt>
      <trkpt lat="42.88486" lon="-0.15587">
        <ele>1787</ele>
        <time>2015-12-03T10:32:55Z</time>
      </trkpt>
      <trkpt lat="42.88484" lon="-0.15601">
        <ele>1793</ele>
        <time>2015-12-03T10:32:58Z</time>
      </trkpt>
      <trkpt lat="42.88482" lon="-0.1561">
        <ele>1797</ele>
        <time>2015-12-03T10:33:00Z</time>
      </trkpt>
      <trkpt lat="42.88479" lon="-0.15628">
        <ele>1805</ele>
        <time>2015-12-03T10:33:04Z</time>
      </trkpt>
      <trkpt lat="42.88478" lon="-0.15632">
        <ele>1806</ele>
        <time>2015-12-03T10:33:05Z</time>
      </trkpt>
      <trkpt lat="42.88475" lon="-0.15645">
        <ele>1810</ele>
        <time>2015-12-03T10:33:08Z</time>
      </trkpt>
      <trkpt lat="42.88474" lon="-0.15668">
        <ele>1818</ele>
        <time>2015-12-03T10:33:13Z</time>
      </trkpt>
      <trkpt lat="42.88474" lon="-0.15673">
        <ele>1819</ele>
        <time>2015-12-03T10:33:14Z</time>
      </trkpt>
      <trkpt lat="42.88472" lon="-0.15686">
        <ele>1823</ele>
        <time>2015-12-03T10:33:17Z</time>
      </trkpt>
      <trkpt lat="42.8847" lon="-0.15697">
        <ele>1827</ele>
        <time>2015-12-03T10:33:20Z</time>
      </trkpt>
      <trkpt lat="42.88468" lon="-0.15708">
        <ele>1830</ele>
        <time>2015-12-03T10:33:23Z</time>
      </trkpt>
      <trkpt lat="42.88465" lon="-0.1572">
        <ele>1833</ele>
        <time>2015-12-03T10:33:26Z</time>
      </trkpt>
      <trkpt lat="42.88462" lon="-0.15733">
        <ele>1836</ele>
        <time>2015-12-03T10:33:29Z</time>
      </trkpt>
      <trkpt lat="42.8846" lon="-0.15751">
        <ele>1841</ele>
        <time>2015-12-03T10:33:33Z</time>
      </trkpt>
      <trkpt lat="42.88459" lon="-0.15766">
        <ele>1845</ele>
        <time>2015-12-03T10:33:36Z</time>
      </trkpt>
      <trkpt lat="42.88457" lon="-0.15778">
        <ele>1848</ele>
        <time>2015-12-03T10:33:39Z</time>
      </trkpt>
      <trkpt lat="42.88455" lon="-0.15786">
        <ele>1850</ele>
        <time>2015-12-03T10:33:41Z</time>
      </trkpt>
      <trkpt lat="42.88454" lon="-0.15801">
        <ele>1854</ele>
        <time>2015-12-03T10:33:44Z</time>
      </trkpt>
      <trkpt lat="42.88452" lon="-0.15812">
        <ele>1858</ele>
        <time>2015-12-03T10:33:47Z</time>
      </trkpt>
      <trkpt lat="42.88449" lon="-0.15827">
        <ele>1863</ele>
        <time>2015-12-03T10:33:50Z</time>
      </trkpt>
      <trkpt lat="42.88446" lon="-0.15835">
        <ele>1866</ele>
        <time>2015-12-03T10:33:53Z</time>
      </trkpt>
      <trkpt lat="42.88442" lon="-0.15846">
        <ele>1870</ele>
        <time>2015-12-03T10:33:56Z</time>
      </trkpt>
      <trkpt lat="42.88439" lon="-0.15858">
        <ele>1874</ele>
        <time>2015-12-03T10:33:59Z</time>
      </trkpt>
      <trkpt lat="42.8844" lon="-0.15867">
        <ele>1877</ele>
        <time>2015-12-03T10:34:01Z</time>
      </trkpt>
      <trkpt lat="42.88441" lon="-0.15886">
        <ele>1885</ele>
        <time>2015-12-03T10:34:05Z</time>
      </trkpt>
      <trkpt lat="42.88439" lon="-0.15896">
        <ele>1888</ele>
        <time>2015-12-03T10:34:07Z</time>
      </trkpt>
      <trkpt lat="42.88437" lon="-0.15911">
        <ele>1892</ele>
        <time>2015-12-03T10:34:10Z</time>
      </trkpt>
      <trkpt lat="42.88436" lon="-0.15933">
        <ele>1900</ele>
        <time>2015-12-03T10:34:14Z</time>
      </trkpt>
      <trkpt lat="42.88435" lon="-0.15938">
        <ele>1901</ele>
        <time>2015-12-03T10:34:15Z</time>
      </trkpt>
      <trkpt lat="42.88433" lon="-0.15965">
        <ele>1911</ele>
        <time>2015-12-03T10:34:20Z</time>
      </trkpt>
      <trkpt lat="42.88432" lon="-0.15974">
        <ele>1915</ele>
        <time>2015-12-03T10:34:22Z</time>
      </trkpt>
      <trkpt lat="42.88431" lon="-0.15983">
        <ele>1919</ele>
        <time>2015-12-03T10:34:24Z</time>
      </trkpt>
      <trkpt lat="42.88429" lon="-0.15993">
        <ele>1924</ele>
        <time>2015-12-03T10:34:26Z</time>
      </trkpt>
      <trkpt lat="42.88429" lon="-0.16007">
        <ele>1929</ele>
        <time>2015-12-03T10:34:29Z</time>
      </trkpt>
      <trkpt lat="42.88428" lon="-0.1602">
        <ele>1934</ele>
        <time>2015-12-03T10:34:32Z</time>
      </trkpt>
      <trkpt lat="42.88426" lon="-0.16034">
        <ele>1939</ele>
        <time>2015-12-03T10:34:35Z</time>
      </trkpt>
      <trkpt lat="42.88424" lon="-0.16047">
        <ele>1944</ele>
        <time>2015-12-03T10:34:38Z</time>
      </trkpt>
      <trkpt lat="42.88421" lon="-0.16065">
        <ele>1949</ele>
        <time>2015-12-03T10:34:42Z</time>
      </trkpt>
      <trkpt lat="42.8842" lon="-0.16083">
        <ele>1955</ele>
        <time>2015-12-03T10:34:46Z</time>
      </trkpt>
      <trkpt lat="42.88417" lon="-0.16095">
        <ele>1958</ele>
        <time>2015-12-03T10:34:49Z</time>
      </trkpt>
      <trkpt lat="42.88416" lon="-0.161">
        <ele>1960</ele>
        <time>2015-12-03T10:34:50Z</time>
      </trkpt>
      <trkpt lat="42.88415" lon="-0.16109">
        <ele>1962</ele>
        <time>2015-12-03T10:34:52Z</time>
      </trkpt>
      <trkpt lat="42.88414" lon="-0.16123">
        <ele>1966</ele>
        <time>2015-12-03T10:34:55Z</time>
      </trkpt>
      <trkpt lat="42.88412" lon="-0.16135">
        <ele>1969</ele>
        <time>2015-12-03T10:34:58Z</time>
      </trkpt>
      <trkpt lat="42.8841" lon="-0.1615">
        <ele>1974</ele>
        <time>2015-12-03T10:35:01Z</time>
      </trkpt>
      <trkpt lat="42.88406" lon="-0.16168">
        <ele>1980</ele>
        <time>2015-12-03T10:35:05Z</time>
      </trkpt>
      <trkpt lat="42.88405" lon="-0.16182">
        <ele>1985</ele>
        <time>2015-12-03T10:35:08Z</time>
      </trkpt>
      <trkpt lat="42.88403" lon="-0.16191">
        <ele>1988</ele>
        <time>2015-12-03T10:35:10Z</time>
      </trkpt>
      <trkpt lat="42.88401" lon="-0.16204">
        <ele>1993</ele>
        <time>2015-12-03T10:35:13Z</time>
      </trkpt>
      <trkpt lat="42.88397" lon="-0.16227">
        <ele>2000</ele>
        <time>2015-12-03T10:35:18Z</time>
      </trkpt>
      <trkpt lat="42.88395" lon="-0.16237">
        <ele>2003</ele>
        <time>2015-12-03T10:35:20Z</time>
      </trkpt>
      <trkpt lat="42.88395" lon="-0.16241">
        <ele>2004</ele>
        <time>2015-12-03T10:35:21Z</time>
      </trkpt>
      <trkpt lat="42.88393" lon="-0.16256">
        <ele>2007</ele>
        <time>2015-12-03T10:35:24Z</time>
      </trkpt>
      <trkpt lat="42.8839" lon="-0.1627">
        <ele>2011</ele>
        <time>2015-12-03T10:35:27Z</time>
      </trkpt>
      <trkpt lat="42.88388" lon="-0.16283">
        <ele>2015</ele>
        <time>2015-12-03T10:35:30Z</time>
      </trkpt>
      <trkpt lat="42.88387" lon="-0.16296">
        <ele>2018</ele>
        <time>2015-12-03T10:35:33Z</time>
      </trkpt>
      <trkpt lat="42.88385" lon="-0.1631">
        <ele>2023</ele>
        <time>2015-12-03T10:35:36Z</time>
      </trkpt>
      <trkpt lat="42.88381" lon="-0.16323">
        <ele>2027</ele>
        <time>2015-12-03T10:35:39Z</time>
      </trkpt>
      <trkpt lat="42.88378" lon="-0.16342">
        <ele>2033</ele>
        <time>2015-12-03T10:35:43Z</time>
      </trkpt>
      <trkpt lat="42.88378" lon="-0.16346">
        <ele>2034</ele>
        <time>2015-12-03T10:35:44Z</time>
      </trkpt>
      <trkpt lat="42.88376" lon="-0.16355">
        <ele>2037</ele>
        <time>2015-12-03T10:35:46Z</time>
      </trkpt>
      <trkpt lat="42.88374" lon="-0.16373">
        <ele>2042</ele>
        <time>2015-12-03T10:35:50Z</time>
      </trkpt>
      <trkpt lat="42.88373" lon="-0.16377">
        <ele>2044</ele>
        <time>2015-12-03T10:35:51Z</time>
      </trkpt>
      <trkpt lat="42.88372" lon="-0.1639">
        <ele>2047</ele>
        <time>2015-12-03T10:35:54Z</time>
      </trkpt>
      <trkpt lat="42.8837" lon="-0.164">
        <ele>2049</ele>
        <time>2015-12-03T10:35:56Z</time>
      </trkpt>
      <trkpt lat="42.88368" lon="-0.16414">
        <ele>2052</ele>
        <time>2015-12-03T10:35:59Z</time>
      </trkpt>
      <trkpt lat="42.88366" lon="-0.16426">
        <ele>2055</ele>
        <time>2015-12-03T10:36:02Z</time>
      </trkpt>
      <trkpt lat="42.88365" lon="-0.16435">
        <ele>2057</ele>
        <time>2015-12-03T10:36:04Z</time>
      </trkpt>
      <trkpt lat="42.88363" lon="-0.16444">
        <ele>2059</ele>
        <time>2015-12-03T10:36:06Z</time>
      </trkpt>
      <trkpt lat="42.88361" lon="-0.16456">
        <ele>2062</ele>
        <time>2015-12-03T10:36:09Z</time>
      </trkpt>
      <trkpt lat="42.88359" lon="-0.16468">
        <ele>2065</ele>
        <time>2015-12-03T10:36:12Z</time>
      </trkpt>
      <trkpt lat="42.88358" lon="-0.16481">
        <ele>2068</ele>
        <time>2015-12-03T10:36:15Z</time>
      </trkpt>
      <trkpt lat="42.88357" lon="-0.16493">
        <ele>2071</ele>
        <time>2015-12-03T10:36:18Z</time>
      </trkpt>
      <trkpt lat="42.88355" lon="-0.16508">
        <ele>2076</ele>
        <time>2015-12-03T10:36:21Z</time>
      </trkpt>
      <trkpt lat="42.88352" lon="-0.16522">
        <ele>2080</ele>
        <time>2015-12-03T10:36:24Z</time>
      </trkpt>
      <trkpt lat="42.88349" lon="-0.16539">
        <ele>2083</ele>
        <time>2015-12-03T10:36:27Z</time>
      </trkpt>
      <trkpt lat="42.88345" lon="-0.16558">
        <ele>2087</ele>
        <time>2015-12-03T10:36:31Z</time>
      </trkpt>
      <trkpt lat="42.88344" lon="-0.16567">
        <ele>2089</ele>
        <time>2015-12-03T10:36:33Z</time>
      </trkpt>
      <trkpt lat="42.88342" lon="-0.16581">
        <ele>2092</ele>
        <time>2015-12-03T10:36:36Z</time>
      </trkpt>
      <trkpt lat="42.88339" lon="-0.16604">
        <ele>2098</ele>
        <time>2015-12-03T10:36:41Z</time>
      </trkpt>
      <trkpt lat="42.88338" lon="-0.16609">
        <ele>2100</ele>
        <time>2015-12-03T10:36:42Z</time>
      </trkpt>
      <trkpt lat="42.88337" lon="-0.16626">
        <ele>2105</ele>
        <time>2015-12-03T10:36:46Z</time>
      </trkpt>
      <trkpt lat="42.88335" lon="-0.16637">
        <ele>2108</ele>
        <time>2015-12-03T10:36:48Z</time>
      </trkpt>
      <trkpt lat="42.88334" lon="-0.16651">
        <ele>2112</ele>
        <time>2015-12-03T10:36:51Z</time>
      </trkpt>
      <trkpt lat="42.8833" lon="-0.16673">
        <ele>2119</ele>
        <time>2015-12-03T10:36:56Z</time>
      </trkpt>
      <trkpt lat="42.8833" lon="-0.16677">
        <ele>2120</ele>
        <time>2015-12-03T10:36:57Z</time>
      </trkpt>
      <trkpt lat="42.88328" lon="-0.16692">
        <ele>2123</ele>
        <time>2015-12-03T10:37:00Z</time>
      </trkpt>
      <trkpt lat="42.88325" lon="-0.1671">
        <ele>2126</ele>
        <time>2015-12-03T10:37:04Z</time>
      </trkpt>
      <trkpt lat="42.88325" lon="-0.16715">
        <ele>2126</ele>
        <time>2015-12-03T10:37:05Z</time>
      </trkpt>
      <trkpt lat="42.88323" lon="-0.16724">
        <ele>2128</ele>
        <time>2015-12-03T10:37:07Z</time>
      </trkpt>
      <trkpt lat="42.88321" lon="-0.16738">
        <ele>2129</ele>
        <time>2015-12-03T10:37:10Z</time>
      </trkpt>
      <trkpt lat="42.88319" lon="-0.16751">
        <ele>2130</ele>
        <time>2015-12-03T10:37:13Z</time>
      </trkpt>
      <trkpt lat="42.88317" lon="-0.16761">
        <ele>2132</ele>
        <time>2015-12-03T10:37:15Z</time>
      </trkpt>
      <trkpt lat="42.88316" lon="-0.16773">
        <ele>2134</ele>
        <time>2015-12-03T10:37:18Z</time>
      </trkpt>
      <trkpt lat="42.88315" lon="-0.16787">
        <ele>2136</ele>
        <time>2015-12-03T10:37:21Z</time>
      </trkpt>
      <trkpt lat="42.88314" lon="-0.16799">
        <ele>2139</ele>
        <time>2015-12-03T10:37:24Z</time>
      </trkpt>
      <trkpt lat="42.8831" lon="-0.16819">
        <ele>2143</ele>
        <time>2015-12-03T10:37:28Z</time>
      </trkpt>
      <trkpt lat="42.88307" lon="-0.16833">
        <ele>2147</ele>
        <time>2015-12-03T10:37:31Z</time>
      </trkpt>
      <trkpt lat="42.88306" lon="-0.16838">
        <ele>2149</ele>
        <time>2015-12-03T10:37:32Z</time>
      </trkpt>
      <trkpt lat="42.88304" lon="-0.16852">
        <ele>2152</ele>
        <time>2015-12-03T10:37:35Z</time>
      </trkpt>
      <trkpt lat="42.88302" lon="-0.16871">
        <ele>2157</ele>
        <time>2015-12-03T10:37:39Z</time>
      </trkpt>
      <trkpt lat="42.88301" lon="-0.16875">
        <ele>2158</ele>
        <time>2015-12-03T10:37:40Z</time>
      </trkpt>
      <trkpt lat="42.88299" lon="-0.16891">
        <ele>2162</ele>
        <time>2015-12-03T10:37:43Z</time>
      </trkpt>
      <trkpt lat="42.88297" lon="-0.169">
        <ele>2164</ele>
        <time>2015-12-03T10:37:45Z</time>
      </trkpt>
      <trkpt lat="42.88295" lon="-0.16914">
        <ele>2168</ele>
        <time>2015-12-03T10:37:48Z</time>
      </trkpt>
      <trkpt lat="42.88294" lon="-0.16927">
        <ele>2170</ele>
        <time>2015-12-03T10:37:51Z</time>
      </trkpt>
      <trkpt lat="42.88291" lon="-0.16941">
        <ele>2174</ele>
        <time>2015-12-03T10:37:54Z</time>
      </trkpt>
      <trkpt lat="42.88291" lon="-0.16949">
        <ele>2175</ele>
        <time>2015-12-03T10:37:56Z</time>
      </trkpt>
      <trkpt lat="42.88288" lon="-0.16963">
        <ele>2179</ele>
        <time>2015-12-03T10:37:59Z</time>
      </trkpt>
      <trkpt lat="42.88288" lon="-0.16972">
        <ele>2181</ele>
        <time>2015-12-03T10:38:01Z</time>
      </trkpt>
      <trkpt lat="42.88286" lon="-0.16986">
        <ele>2184</ele>
        <time>2015-12-03T10:38:04Z</time>
      </trkpt>
      <trkpt lat="42.88284" lon="-0.16999">
        <ele>2188</ele>
        <time>2015-12-03T10:38:07Z</time>
      </trkpt>
      <trkpt lat="42.88282" lon="-0.17014">
        <ele>2191</ele>
        <time>2015-12-03T10:38:10Z</time>
      </trkpt>
      <trkpt lat="42.8828" lon="-0.17028">
        <ele>2195</ele>
        <time>2015-12-03T10:38:13Z</time>
      </trkpt>
      <trkpt lat="42.88279" lon="-0.17038">
        <ele>2198</ele>
        <time>2015-12-03T10:38:15Z</time>
      </trkpt>
      <trkpt lat="42.88277" lon="-0.17051">
        <ele>2202</ele>
        <time>2015-12-03T10:38:18Z</time>
      </trkpt>
      <trkpt lat="42.88276" lon="-0.17063">
        <ele>2205</ele>
        <time>2015-12-03T10:38:21Z</time>
      </trkpt>
      <trkpt lat="42.88274" lon="-0.17076">
        <ele>2208</ele>
        <time>2015-12-03T10:38:24Z</time>
      </trkpt>
      <trkpt lat="42.88272" lon="-0.1709">
        <ele>2212</ele>
        <time>2015-12-03T10:38:27Z</time>
      </trkpt>
      <trkpt lat="42.88269" lon="-0.17104">
        <ele>2216</ele>
        <time>2015-12-03T10:38:30Z</time>
      </trkpt>
      <trkpt lat="42.88267" lon="-0.17124">
        <ele>2221</ele>
        <time>2015-12-03T10:38:34Z</time>
      </trkpt>
      <trkpt lat="42.88265" lon="-0.17132">
        <ele>2224</ele>
        <time>2015-12-03T10:38:36Z</time>
      </trkpt>
      <trkpt lat="42.88263" lon="-0.1715">
        <ele>2228</ele>
        <time>2015-12-03T10:38:40Z</time>
      </trkpt>
      <trkpt lat="42.88262" lon="-0.17155">
        <ele>2229</ele>
        <time>2015-12-03T10:38:41Z</time>
      </trkpt>
      <trkpt lat="42.8826" lon="-0.17169">
        <ele>2232</ele>
        <time>2015-12-03T10:38:44Z</time>
      </trkpt>
      <trkpt lat="42.88258" lon="-0.17177">
        <ele>2235</ele>
        <time>2015-12-03T10:38:46Z</time>
      </trkpt>
      <trkpt lat="42.88255" lon="-0.1719">
        <ele>2238</ele>
        <time>2015-12-03T10:38:49Z</time>
      </trkpt>
      <trkpt lat="42.88251" lon="-0.17214">
        <ele>2246</ele>
        <time>2015-12-03T10:38:54Z</time>
      </trkpt>
      <trkpt lat="42.8825" lon="-0.17219">
        <ele>2247</ele>
        <time>2015-12-03T10:38:55Z</time>
      </trkpt>
      <trkpt lat="42.8825" lon="-0.17232">
        <ele>2251</ele>
        <time>2015-12-03T10:38:58Z</time>
      </trkpt>
      <trkpt lat="42.88247" lon="-0.1725">
        <ele>2257</ele>
        <time>2015-12-03T10:39:02Z</time>
      </trkpt>
      <trkpt lat="42.88245" lon="-0.17261">
        <ele>2260</ele>
        <time>2015-12-03T10:39:04Z</time>
      </trkpt>
      <trkpt lat="42.88243" lon="-0.17279">
        <ele>2266</ele>
        <time>2015-12-03T10:39:08Z</time>
      </trkpt>
      <trkpt lat="42.88243" lon="-0.17287">
        <ele>2268</ele>
        <time>2015-12-03T10:39:10Z</time>
      </trkpt>
      <trkpt lat="42.88242" lon="-0.17304">
        <ele>2275</ele>
        <time>2015-12-03T10:39:14Z</time>
      </trkpt>
      <trkpt lat="42.88241" lon="-0.1731">
        <ele>2277</ele>
        <time>2015-12-03T10:39:15Z</time>
      </trkpt>
      <trkpt lat="42.88239" lon="-0.17319">
        <ele>2280</ele>
        <time>2015-12-03T10:39:17Z</time>
      </trkpt>
      <trkpt lat="42.88239" lon="-0.17331">
        <ele>2285</ele>
        <time>2015-12-03T10:39:20Z</time>
      </trkpt>
      <trkpt lat="42.88237" lon="-0.17343">
        <ele>2290</ele>
        <time>2015-12-03T10:39:23Z</time>
      </trkpt>
      <trkpt lat="42.88235" lon="-0.17357">
        <ele>2296</ele>
        <time>2015-12-03T10:39:26Z</time>
      </trkpt>
      <trkpt lat="42.88233" lon="-0.17371">
        <ele>2301</ele>
        <time>2015-12-03T10:39:29Z</time>
      </trkpt>
      <trkpt lat="42.88231" lon="-0.17378">
        <ele>2304</ele>
        <time>2015-12-03T10:39:31Z</time>
      </trkpt>
      <trkpt lat="42.88229" lon="-0.17391">
        <ele>2309</ele>
        <time>2015-12-03T10:39:34Z</time>
      </trkpt>
      <trkpt lat="42.88225" lon="-0.17405">
        <ele>2316</ele>
        <time>2015-12-03T10:39:38Z</time>
      </trkpt>
      <trkpt lat="42.88224" lon="-0.1741">
        <ele>2317</ele>
        <time>2015-12-03T10:39:39Z</time>
      </trkpt>
      <trkpt lat="42.88223" lon="-0.17419">
        <ele>2320</ele>
        <time>2015-12-03T10:39:41Z</time>
      </trkpt>
      <trkpt lat="42.88221" lon="-0.17431">
        <ele>2325</ele>
        <time>2015-12-03T10:39:44Z</time>
      </trkpt>
      <trkpt lat="42.8822" lon="-0.17443">
        <ele>2328</ele>
        <time>2015-12-03T10:39:58Z</time>
      </trkpt>
      <trkpt lat="42.88203" lon="-0.1744">
        <ele>2331</ele>
        <time>2015-12-03T10:40:01Z</time>
      </trkpt>
      <trkpt lat="42.88195" lon="-0.17431">
        <ele>2328</ele>
        <time>2015-12-03T10:40:04Z</time>
      </trkpt>
      <trkpt lat="42.88188" lon="-0.17421">
        <ele>2326</ele>
        <time>2015-12-03T10:40:06Z</time>
      </trkpt>
      <trkpt lat="42.87997" lon="-0.15896">
        <ele>1902</ele>
        <time>2015-12-03T10:43:07Z</time>
      </trkpt>
      <trkpt lat="42.88237" lon="-0.15687">
        <ele>1832</ele>
        <time>2015-12-03T10:43:53Z</time>
      </trkpt>
      <trkpt lat="42.88251" lon="-0.15695">
        <ele>1826</ele>
        <time>2015-12-03T10:43:56Z</time>
      </trkpt>
      <trkpt lat="42.88531" lon="-0.15283">
        <ele>1737</ele>
        <time>2015-12-03T10:45:03Z</time>
      </trkpt>
      <trkpt lat="42.88531" lon="-0.15282">
        <ele>1737</ele>
        <time>2015-12-03T10:45:05Z</time>
      </trkpt>
      <trkpt lat="42.88531" lon="-0.15282">
        <ele>1737</ele>
        <time>2015-12-03T10:45:08Z</time>
      </trkpt>
      <trkpt lat="42.88531" lon="-0.15283">
        <ele>1737</ele>
        <time>2015-12-03T10:45:11Z</time>
      </trkpt>
      <trkpt lat="42.88531" lon="-0.15283">
        <ele>1737</ele>
        <time>2015-12-03T10:45:14Z</time>
      </trkpt>
      <trkpt lat="42.88531" lon="-0.15283">
        <ele>1737</ele>
        <time>2015-12-03T10:45:17Z</time>
      </trkpt>
      <trkpt lat="42.88531" lon="-0.15283">
        <ele>1737</ele>
        <time>2015-12-03T10:45:20Z</time>
      </trkpt>
      <trkpt lat="42.88531" lon="-0.15283">
        <ele>1737</ele>
        <time>2015-12-03T10:45:23Z</time>
      </trkpt>
      <trkpt lat="42.88532" lon="-0.15293">
        <ele>1738</ele>
        <time>2015-12-03T10:45:26Z</time>
      </trkpt>
      <trkpt lat="42.88527" lon="-0.1532">
        <ele>1742</ele>
        <time>2015-12-03T10:45:31Z</time>
      </trkpt>
      <trkpt lat="42.88523" lon="-0.15337">
        <ele>1745</ele>
        <time>2015-12-03T10:45:34Z</time>
      </trkpt>
      <trkpt lat="42.88521" lon="-0.15353">
        <ele>1746</ele>
        <time>2015-12-03T10:45:37Z</time>
      </trkpt>
      <trkpt lat="42.8852" lon="-0.15358">
        <ele>1746</ele>
        <time>2015-12-03T10:45:38Z</time>
      </trkpt>
      <trkpt lat="42.88518" lon="-0.15372">
        <ele>1747</ele>
        <time>2015-12-03T10:45:41Z</time>
      </trkpt>
      <trkpt lat="42.88515" lon="-0.15392">
        <ele>1749</ele>
        <time>2015-12-03T10:45:45Z</time>
      </trkpt>
      <trkpt lat="42.88513" lon="-0.15402">
        <ele>1750</ele>
        <time>2015-12-03T10:45:47Z</time>
      </trkpt>
      <trkpt lat="42.88511" lon="-0.15417">
        <ele>1751</ele>
        <time>2015-12-03T10:45:50Z</time>
      </trkpt>
      <trkpt lat="42.88509" lon="-0.15432">
        <ele>1753</ele>
        <time>2015-12-03T10:45:53Z</time>
      </trkpt>
      <trkpt lat="42.88507" lon="-0.15447">
        <ele>1756</ele>
        <time>2015-12-03T10:45:56Z</time>
      </trkpt>
      <trkpt lat="42.88505" lon="-0.15455">
        <ele>1758</ele>
        <time>2015-12-03T10:45:58Z</time>
      </trkpt>
      <trkpt lat="42.88501" lon="-0.15469">
        <ele>1761</ele>
        <time>2015-12-03T10:46:01Z</time>
      </trkpt>
      <trkpt lat="42.88501" lon="-0.15483">
        <ele>1762</ele>
        <time>2015-12-03T10:46:04Z</time>
      </trkpt>
      <trkpt lat="42.88499" lon="-0.15506">
        <ele>1763</ele>
        <time>2015-12-03T10:46:09Z</time>
      </trkpt>
      <trkpt lat="42.88498" lon="-0.1552">
        <ele>1764</ele>
        <time>2015-12-03T10:46:12Z</time>
      </trkpt>
      <trkpt lat="42.88496" lon="-0.15532">
        <ele>1766</ele>
        <time>2015-12-03T10:46:15Z</time>
      </trkpt>
      <trkpt lat="42.88494" lon="-0.15546">
        <ele>1770</ele>
        <time>2015-12-03T10:46:18Z</time>
      </trkpt>
      <trkpt lat="42.88494" lon="-0.1555">
        <ele>1771</ele>
        <time>2015-12-03T10:46:19Z</time>
      </trkpt>
      <trkpt lat="42.88492" lon="-0.15568">
        <ele>1777</ele>
        <time>2015-12-03T10:46:23Z</time>
      </trkpt>
      <trkpt lat="42.8849" lon="-0.15577">
        <ele>1782</ele>
        <time>2015-12-03T10:46:25Z</time>
      </trkpt>
      <trkpt lat="42.88487" lon="-0.15592">
        <ele>1788</ele>
        <time>2015-12-03T10:46:28Z</time>
      </trkpt>
      <trkpt lat="42.88486" lon="-0.15605">
        <ele>1795</ele>
        <time>2015-12-03T10:46:31Z</time>
      </trkpt>
      <trkpt lat="42.88484" lon="-0.15618">
        <ele>1800</ele>
        <time>2015-12-03T10:46:34Z</time>
      </trkpt>
      <trkpt lat="42.88484" lon="-0.15631">
        <ele>1805</ele>
        <time>2015-12-03T10:46:37Z</time>
      </trkpt>
      <trkpt lat="42.88484" lon="-0.15644">
        <ele>1809</ele>
        <time>2015-12-03T10:46:40Z</time>
      </trkpt>
      <trkpt lat="42.88481" lon="-0.15658">
        <ele>1814</ele>
        <time>2015-12-03T10:46:43Z</time>
      </trkpt>
      <trkpt lat="42.88478" lon="-0.15676">
        <ele>1820</ele>
        <time>2015-12-03T10:46:47Z</time>
      </trkpt>
      <trkpt lat="42.88478" lon="-0.1569">
        <ele>1825</ele>
        <time>2015-12-03T10:46:50Z</time>
      </trkpt>
      <trkpt lat="42.88477" lon="-0.15699">
        <ele>1828</ele>
        <time>2015-12-03T10:46:52Z</time>
      </trkpt>
      <trkpt lat="42.88476" lon="-0.15717">
        <ele>1833</ele>
        <time>2015-12-03T10:46:56Z</time>
      </trkpt>
      <trkpt lat="42.88473" lon="-0.15727">
        <ele>1836</ele>
        <time>2015-12-03T10:46:58Z</time>
      </trkpt>
      <trkpt lat="42.88472" lon="-0.15739">
        <ele>1839</ele>
        <time>2015-12-03T10:47:01Z</time>
      </trkpt>
      <trkpt lat="42.88469" lon="-0.15761">
        <ele>1845</ele>
        <time>2015-12-03T10:47:06Z</time>
      </trkpt>
      <trkpt lat="42.8847" lon="-0.15767">
        <ele>1847</ele>
        <time>2015-12-03T10:47:07Z</time>
      </trkpt>
      <trkpt lat="42.88469" lon="-0.15778">
        <ele>1849</ele>
        <time>2015-12-03T10:47:10Z</time>
      </trkpt>
      <trkpt lat="42.88464" lon="-0.15793">
        <ele>1853</ele>
        <time>2015-12-03T10:47:13Z</time>
      </trkpt>
      <trkpt lat="42.88463" lon="-0.15805">
        <ele>1857</ele>
        <time>2015-12-03T10:47:16Z</time>
      </trkpt>
      <trkpt lat="42.88462" lon="-0.15818">
        <ele>1862</ele>
        <time>2015-12-03T10:47:19Z</time>
      </trkpt>
      <trkpt lat="42.88458" lon="-0.1584">
        <ele>1870</ele>
        <time>2015-12-03T10:47:24Z</time>
      </trkpt>
      <trkpt lat="42.88457" lon="-0.15844">
        <ele>1871</ele>
        <time>2015-12-03T10:47:25Z</time>
      </trkpt>
      <trkpt lat="42.88456" lon="-0.15856">
        <ele>1876</ele>
        <time>2015-12-03T10:47:28Z</time>
      </trkpt>
      <trkpt lat="42.88455" lon="-0.15869">
        <ele>1880</ele>
        <time>2015-12-03T10:47:31Z</time>
      </trkpt>
      <trkpt lat="42.88455" lon="-0.15882">
        <ele>1884</ele>
        <time>2015-12-03T10:47:34Z</time>
      </trkpt>
      <trkpt lat="42.88451" lon="-0.15904">
        <ele>1890</ele>
        <time>2015-12-03T10:47:39Z</time>
      </trkpt>
      <trkpt lat="42.8845" lon="-0.15909">
        <ele>1892</ele>
        <time>2015-12-03T10:47:40Z</time>
      </trkpt>
      <trkpt lat="42.88445" lon="-0.15932">
        <ele>1899</ele>
        <time>2015-12-03T10:47:45Z</time>
      </trkpt>
      <trkpt lat="42.88444" lon="-0.15936">
        <ele>1900</ele>
        <time>2015-12-03T10:47:46Z</time>
      </trkpt>
      <trkpt lat="42.88444" lon="-0.15944">
        <ele>1902</ele>
        <time>2015-12-03T10:47:48Z</time>
      </trkpt>
      <trkpt lat="42.88438" lon="-0.15969">
        <ele>1912</ele>
        <time>2015-12-03T10:47:53Z</time>
      </trkpt>
      <trkpt lat="42.88437" lon="-0.15974">
        <ele>1914</ele>
        <time>2015-12-03T10:47:54Z</time>
      </trkpt>
      <trkpt lat="42.88432" lon="-0.15991">
        <ele>1922</ele>
        <time>2015-12-03T10:47:58Z</time>
      </trkpt>
      <trkpt lat="42.8843" lon="-0.16">
        <ele>1926</ele>
        <time>2015-12-03T10:48:00Z</time>
      </trkpt>
      <trkpt lat="42.88429" lon="-0.16015">
        <ele>1932</ele>
        <time>2015-12-03T10:48:03Z</time>
      </trkpt>
      <trkpt lat="42.88425" lon="-0.16036">
        <ele>1940</ele>
        <time>2015-12-03T10:48:08Z</time>
      </trkpt>
      <trkpt lat="42.88423" lon="-0.1604">
        <ele>1942</ele>
        <time>2015-12-03T10:48:09Z</time>
      </trkpt>
      <trkpt lat="42.88421" lon="-0.16054">
        <ele>1946</ele>
        <time>2015-12-03T10:48:12Z</time>
      </trkpt>
      <trkpt lat="42.88419" lon="-0.16067">
        <ele>1951</ele>
        <time>2015-12-03T10:48:15Z</time>
      </trkpt>
      <trkpt lat="42.88417" lon="-0.16079">
        <ele>1954</ele>
        <time>2015-12-03T10:48:18Z</time>
      </trkpt>
      <trkpt lat="42.88415" lon="-0.16092">
        <ele>1958</ele>
        <time>2015-12-03T10:48:21Z</time>
      </trkpt>
      <trkpt lat="42.88413" lon="-0.16108">
        <ele>1963</ele>
        <time>2015-12-03T10:48:25Z</time>
      </trkpt>
      <trkpt lat="42.88411" lon="-0.16118">
        <ele>1965</ele>
        <time>2015-12-03T10:48:27Z</time>
      </trkpt>
      <trkpt lat="42.88409" lon="-0.1613">
        <ele>1968</ele>
        <time>2015-12-03T10:48:30Z</time>
      </trkpt>
      <trkpt lat="42.88408" lon="-0.16139">
        <ele>1971</ele>
        <time>2015-12-03T10:48:32Z</time>
      </trkpt>
      <trkpt lat="42.88405" lon="-0.16157">
        <ele>1977</ele>
        <time>2015-12-03T10:48:36Z</time>
      </trkpt>
      <trkpt lat="42.88403" lon="-0.16166">
        <ele>1980</ele>
        <time>2015-12-03T10:48:38Z</time>
      </trkpt>
      <trkpt lat="42.88401" lon="-0.16179">
        <ele>1985</ele>
        <time>2015-12-03T10:48:41Z</time>
      </trkpt>
      <trkpt lat="42.884" lon="-0.16189">
        <ele>1988</ele>
        <time>2015-12-03T10:48:43Z</time>
      </trkpt>
      <trkpt lat="42.88397" lon="-0.16202">
        <ele>1993</ele>
        <time>2015-12-03T10:48:46Z</time>
      </trkpt>
      <trkpt lat="42.88395" lon="-0.16216">
        <ele>1997</ele>
        <time>2015-12-03T10:48:49Z</time>
      </trkpt>
      <trkpt lat="42.88395" lon="-0.16225">
        <ele>2000</ele>
        <time>2015-12-03T10:48:51Z</time>
      </trkpt>
      <trkpt lat="42.88391" lon="-0.16247">
        <ele>2006</ele>
        <time>2015-12-03T10:48:56Z</time>
      </trkpt>
      <trkpt lat="42.8839" lon="-0.16255">
        <ele>2007</ele>
        <time>2015-12-03T10:48:58Z</time>
      </trkpt>
      <trkpt lat="42.88388" lon="-0.16263">
        <ele>2010</ele>
        <time>2015-12-03T10:49:00Z</time>
      </trkpt>
      <trkpt lat="42.88386" lon="-0.16275">
        <ele>2013</ele>
        <time>2015-12-03T10:49:03Z</time>
      </trkpt>
      <trkpt lat="42.88385" lon="-0.16284">
        <ele>2016</ele>
        <time>2015-12-03T10:49:05Z</time>
      </trkpt>
      <trkpt lat="42.88382" lon="-0.16298">
        <ele>2020</ele>
        <time>2015-12-03T10:49:08Z</time>
      </trkpt>
      <trkpt lat="42.88378" lon="-0.16321">
        <ele>2027</ele>
        <time>2015-12-03T10:49:13Z</time>
      </trkpt>
      <trkpt lat="42.88375" lon="-0.16334">
        <ele>2031</ele>
        <time>2015-12-03T10:49:16Z</time>
      </trkpt>
      <trkpt lat="42.88375" lon="-0.16344">
        <ele>2034</ele>
        <time>2015-12-03T10:49:18Z</time>
      </trkpt>
      <trkpt lat="42.88374" lon="-0.16354">
        <ele>2037</ele>
        <time>2015-12-03T10:49:20Z</time>
      </trkpt>
      <trkpt lat="42.88373" lon="-0.16364">
        <ele>2040</ele>
        <time>2015-12-03T10:49:22Z</time>
      </trkpt>
      <trkpt lat="42.88371" lon="-0.16378">
        <ele>2044</ele>
        <time>2015-12-03T10:49:25Z</time>
      </trkpt>
      <trkpt lat="42.88367" lon="-0.16401">
        <ele>2049</ele>
        <time>2015-12-03T10:49:30Z</time>
      </trkpt>
      <trkpt lat="42.88366" lon="-0.16409">
        <ele>2051</ele>
        <time>2015-12-03T10:49:32Z</time>
      </trkpt>
      <trkpt lat="42.88365" lon="-0.16413">
        <ele>2052</ele>
        <time>2015-12-03T10:49:33Z</time>
      </trkpt>
      <trkpt lat="42.88364" lon="-0.16426">
        <ele>2055</ele>
        <time>2015-12-03T10:49:36Z</time>
      </trkpt>
      <trkpt lat="42.88362" lon="-0.1644">
        <ele>2059</ele>
        <time>2015-12-03T10:49:39Z</time>
      </trkpt>
      <trkpt lat="42.88362" lon="-0.16453">
        <ele>2062</ele>
        <time>2015-12-03T10:49:42Z</time>
      </trkpt>
      <trkpt lat="42.8836" lon="-0.16467">
        <ele>2065</ele>
        <time>2015-12-03T10:49:45Z</time>
      </trkpt>
      <trkpt lat="42.88358" lon="-0.1648">
        <ele>2068</ele>
        <time>2015-12-03T10:49:48Z</time>
      </trkpt>
      <trkpt lat="42.88355" lon="-0.16501">
        <ele>2074</ele>
        <time>2015-12-03T10:49:53Z</time>
      </trkpt>
      <trkpt lat="42.88353" lon="-0.16511">
        <ele>2077</ele>
        <time>2015-12-03T10:49:55Z</time>
      </trkpt>
      <trkpt lat="42.88351" lon="-0.16521">
        <ele>2079</ele>
        <time>2015-12-03T10:49:57Z</time>
      </trkpt>
      <trkpt lat="42.88349" lon="-0.16535">
        <ele>2083</ele>
        <time>2015-12-03T10:50:00Z</time>
      </trkpt>
      <trkpt lat="42.88347" lon="-0.16549">
        <ele>2085</ele>
        <time>2015-12-03T10:50:03Z</time>
      </trkpt>
      <trkpt lat="42.88345" lon="-0.16564">
        <ele>2088</ele>
        <time>2015-12-03T10:50:06Z</time>
      </trkpt>
      <trkpt lat="42.88343" lon="-0.16578">
        <ele>2092</ele>
        <time>2015-12-03T10:50:09Z</time>
      </trkpt>
      <trkpt lat="42.88341" lon="-0.16592">
        <ele>2095</ele>
        <time>2015-12-03T10:50:12Z</time>
      </trkpt>
      <trkpt lat="42.88339" lon="-0.16606">
        <ele>2099</ele>
        <time>2015-12-03T10:50:15Z</time>
      </trkpt>
      <trkpt lat="42.88336" lon="-0.1662">
        <ele>2103</ele>
        <time>2015-12-03T10:50:18Z</time>
      </trkpt>
      <trkpt lat="42.88335" lon="-0.16634">
        <ele>2107</ele>
        <time>2015-12-03T10:50:21Z</time>
      </trkpt>
      <trkpt lat="42.88332" lon="-0.16648">
        <ele>2112</ele>
        <time>2015-12-03T10:50:24Z</time>
      </trkpt>
      <trkpt lat="42.8833" lon="-0.16661">
        <ele>2116</ele>
        <time>2015-12-03T10:50:27Z</time>
      </trkpt>
      <trkpt lat="42.88328" lon="-0.16675">
        <ele>2120</ele>
        <time>2015-12-03T10:50:30Z</time>
      </trkpt>
      <trkpt lat="42.88326" lon="-0.16689">
        <ele>2123</ele>
        <time>2015-12-03T10:50:33Z</time>
      </trkpt>
      <trkpt lat="42.88324" lon="-0.16703">
        <ele>2125</ele>
        <time>2015-12-03T10:50:36Z</time>
      </trkpt>
      <trkpt lat="42.88322" lon="-0.16717">
        <ele>2127</ele>
        <time>2015-12-03T10:50:39Z</time>
      </trkpt>
      <trkpt lat="42.8832" lon="-0.16731">
        <ele>2129</ele>
        <time>2015-12-03T10:50:42Z</time>
      </trkpt>
      <trkpt lat="42.88318" lon="-0.16741">
        <ele>2130</ele>
        <time>2015-12-03T10:50:44Z</time>
      </trkpt>
      <trkpt lat="42.88316" lon="-0.16754">
        <ele>2132</ele>
        <time>2015-12-03T10:50:47Z</time>
      </trkpt>
      <trkpt lat="42.88314" lon="-0.16764">
        <ele>2133</ele>
        <time>2015-12-03T10:50:49Z</time>
      </trkpt>
      <trkpt lat="42.88313" lon="-0.16778">
        <ele>2135</ele>
        <time>2015-12-03T10:50:52Z</time>
      </trkpt>
      <trkpt lat="42.88312" lon="-0.16787">
        <ele>2137</ele>
        <time>2015-12-03T10:50:54Z</time>
      </trkpt>
      <trkpt lat="42.8831" lon="-0.16799">
        <ele>2140</ele>
        <time>2015-12-03T10:50:57Z</time>
      </trkpt>
      <trkpt lat="42.88308" lon="-0.16815">
        <ele>2143</ele>
        <time>2015-12-03T10:51:00Z</time>
      </trkpt>
      <trkpt lat="42.88304" lon="-0.16838">
        <ele>2149</ele>
        <time>2015-12-03T10:51:05Z</time>
      </trkpt>
      <trkpt lat="42.88303" lon="-0.16842">
        <ele>2150</ele>
        <time>2015-12-03T10:51:06Z</time>
      </trkpt>
      <trkpt lat="42.88302" lon="-0.16855">
        <ele>2154</ele>
        <time>2015-12-03T10:51:09Z</time>
      </trkpt>
      <trkpt lat="42.883" lon="-0.16871">
        <ele>2158</ele>
        <time>2015-12-03T10:51:12Z</time>
      </trkpt>
      <trkpt lat="42.88297" lon="-0.16885">
        <ele>2161</ele>
        <time>2015-12-03T10:51:15Z</time>
      </trkpt>
      <trkpt lat="42.88296" lon="-0.16898">
        <ele>2164</ele>
        <time>2015-12-03T10:51:18Z</time>
      </trkpt>
      <trkpt lat="42.88294" lon="-0.16912">
        <ele>2167</ele>
        <time>2015-12-03T10:51:21Z</time>
      </trkpt>
      <trkpt lat="42.88291" lon="-0.16927">
        <ele>2171</ele>
        <time>2015-12-03T10:51:24Z</time>
      </trkpt>
      <trkpt lat="42.88289" lon="-0.16941">
        <ele>2174</ele>
        <time>2015-12-03T10:51:27Z</time>
      </trkpt>
      <trkpt lat="42.88287" lon="-0.16955">
        <ele>2177</ele>
        <time>2015-12-03T10:51:30Z</time>
      </trkpt>
      <trkpt lat="42.88286" lon="-0.16964">
        <ele>2179</ele>
        <time>2015-12-03T10:51:32Z</time>
      </trkpt>
      <trkpt lat="42.88284" lon="-0.16977">
        <ele>2183</ele>
        <time>2015-12-03T10:51:35Z</time>
      </trkpt>
      <trkpt lat="42.88281" lon="-0.16992">
        <ele>2187</ele>
        <time>2015-12-03T10:51:38Z</time>
      </trkpt>
      <trkpt lat="42.88279" lon="-0.17004">
        <ele>2190</ele>
        <time>2015-12-03T10:51:41Z</time>
      </trkpt>
      <trkpt lat="42.88278" lon="-0.17014">
        <ele>2192</ele>
        <time>2015-12-03T10:51:43Z</time>
      </trkpt>
      <trkpt lat="42.88276" lon="-0.17028">
        <ele>2196</ele>
        <time>2015-12-03T10:51:46Z</time>
      </trkpt>
      <trkpt lat="42.88275" lon="-0.17039">
        <ele>2199</ele>
        <time>2015-12-03T10:51:48Z</time>
      </trkpt>
      <trkpt lat="42.88272" lon="-0.17056">
        <ele>2204</ele>
        <time>2015-12-03T10:51:51Z</time>
      </trkpt>
      <trkpt lat="42.88268" lon="-0.17069">
        <ele>2208</ele>
        <time>2015-12-03T10:51:55Z</time>
      </trkpt>
      <trkpt lat="42.88268" lon="-0.17082">
        <ele>2211</ele>
        <time>2015-12-03T10:51:58Z</time>
      </trkpt>
      <trkpt lat="42.88265" lon="-0.171">
        <ele>2216</ele>
        <time>2015-12-03T10:52:02Z</time>
      </trkpt>
      <trkpt lat="42.88265" lon="-0.17104">
        <ele>2217</ele>
        <time>2015-12-03T10:52:03Z</time>
      </trkpt>
      <trkpt lat="42.88263" lon="-0.17118">
        <ele>2221</ele>
        <time>2015-12-03T10:52:06Z</time>
      </trkpt>
      <trkpt lat="42.8826" lon="-0.17136">
        <ele>2226</ele>
        <time>2015-12-03T10:52:10Z</time>
      </trkpt>
      <trkpt lat="42.88258" lon="-0.17147">
        <ele>2228</ele>
        <time>2015-12-03T10:52:12Z</time>
      </trkpt>
      <trkpt lat="42.88257" lon="-0.17158">
        <ele>2231</ele>
        <time>2015-12-03T10:52:14Z</time>
      </trkpt>
      <trkpt lat="42.88254" lon="-0.17176">
        <ele>2235</ele>
        <time>2015-12-03T10:52:18Z</time>
      </trkpt>
      <trkpt lat="42.88254" lon="-0.17185">
        <ele>2237</ele>
        <time>2015-12-03T10:52:20Z</time>
      </trkpt>
      <trkpt lat="42.88252" lon="-0.17196">
        <ele>2240</ele>
        <time>2015-12-03T10:52:22Z</time>
      </trkpt>
      <trkpt lat="42.88251" lon="-0.17208">
        <ele>2244</ele>
        <time>2015-12-03T10:52:25Z</time>
      </trkpt>
      <trkpt lat="42.88248" lon="-0.17225">
        <ele>2250</ele>
        <time>2015-12-03T10:52:29Z</time>
      </trkpt>
      <trkpt lat="42.88247" lon="-0.17235">
        <ele>2253</ele>
        <time>2015-12-03T10:52:31Z</time>
      </trkpt>
      <trkpt lat="42.88244" lon="-0.17257">
        <ele>2259</ele>
        <time>2015-12-03T10:52:36Z</time>
      </trkpt>
      <trkpt lat="42.88243" lon="-0.17262">
        <ele>2261</ele>
        <time>2015-12-03T10:52:37Z</time>
      </trkpt>
      <trkpt lat="42.88241" lon="-0.17271">
        <ele>2264</ele>
        <time>2015-12-03T10:52:39Z</time>
      </trkpt>
      <trkpt lat="42.88239" lon="-0.17284">
        <ele>2268</ele>
        <time>2015-12-03T10:52:42Z</time>
      </trkpt>
      <trkpt lat="42.88237" lon="-0.17296">
        <ele>2273</ele>
        <time>2015-12-03T10:52:45Z</time>
      </trkpt>
      <trkpt lat="42.88235" lon="-0.17309">
        <ele>2278</ele>
        <time>2015-12-03T10:52:48Z</time>
      </trkpt>
      <trkpt lat="42.88232" lon="-0.17321">
        <ele>2283</ele>
        <time>2015-12-03T10:52:51Z</time>
      </trkpt>
      <trkpt lat="42.88232" lon="-0.17331">
        <ele>2287</ele>
        <time>2015-12-03T10:52:53Z</time>
      </trkpt>
      <trkpt lat="42.88229" lon="-0.17344">
        <ele>2294</ele>
        <time>2015-12-03T10:52:56Z</time>
      </trkpt>
      <trkpt lat="42.88228" lon="-0.17352">
        <ele>2297</ele>
        <time>2015-12-03T10:52:58Z</time>
      </trkpt>
      <trkpt lat="42.88226" lon="-0.17365">
        <ele>2302</ele>
        <time>2015-12-03T10:53:01Z</time>
      </trkpt>
      <trkpt lat="42.88225" lon="-0.17374">
        <ele>2305</ele>
        <time>2015-12-03T10:53:03Z</time>
      </trkpt>
      <trkpt lat="42.88223" lon="-0.17387">
        <ele>2311</ele>
        <time>2015-12-03T10:53:06Z</time>
      </trkpt>
      <trkpt lat="42.88221" lon="-0.17396">
        <ele>2314</ele>
        <time>2015-12-03T10:53:08Z</time>
      </trkpt>
      <trkpt lat="42.8822" lon="-0.17414">
        <ele>2320</ele>
        <time>2015-12-03T10:53:13Z</time>
      </trkpt>
      <trkpt lat="42.8822" lon="-0.17417">
        <ele>2321</ele>
        <time>2015-12-03T10:53:14Z</time>
      </trkpt>
      <trkpt lat="42.88218" lon="-0.17431">
        <ele>2326</ele>
        <time>2015-12-03T10:53:17Z</time>
      </trkpt>
      <trkpt lat="42.88218" lon="-0.17435">
        <ele>2327</ele>
        <time>2015-12-03T10:53:21Z</time>
      </trkpt>
      <trkpt lat="42.88217" lon="-0.17436">
        <ele>2328</ele>
        <time>2015-12-03T10:53:23Z</time>
      </trkpt>
      <trkpt lat="42.88217" lon="-0.17438">
        <ele>2328</ele>
        <time>2015-12-03T10:53:26Z</time>
      </trkpt>
      <trkpt lat="42.88215" lon="-0.17442">
        <ele>2330</ele>
        <time>2015-12-03T10:53:30Z</time>
      </trkpt>
      <trkpt lat="42.88204" lon="-0.17433">
        <ele>2329</ele>
        <time>2015-12-03T10:53:34Z</time>
      </trkpt>
      <trkpt lat="42.88197" lon="-0.17425">
        <ele>2328</ele>
        <time>2015-12-03T10:53:37Z</time>
      </trkpt>
      <trkpt lat="42.88186" lon="-0.17415">
        <ele>2325</ele>
        <time>2015-12-03T10:53:40Z</time>
      </trkpt>
      <trkpt lat="42.88178" lon="-0.17405">
        <ele>2323</ele>
        <time>2015-12-03T10:53:42Z</time>
      </trkpt>
      <trkpt lat="42.87826" lon="-0.16006">
        <ele>1988</ele>
        <time>2015-12-03T10:56:36Z</time>
      </trkpt>
      <trkpt lat="42.8822" lon="-0.15554">
        <ele>1851</ele>
        <time>2015-12-03T10:57:59Z</time>
      </trkpt>
      <trkpt lat="42.8822" lon="-0.15554">
        <ele>1851</ele>
        <time>2015-12-03T10:58:02Z</time>
      </trkpt>
      <trkpt lat="42.88219" lon="-0.15554">
        <ele>1851</ele>
        <time>2015-12-03T10:58:06Z</time>
      </trkpt>
      <trkpt lat="42.88219" lon="-0.15553">
        <ele>1851</ele>
        <time>2015-12-03T10:58:08Z</time>
      </trkpt>
      <trkpt lat="42.88219" lon="-0.15553">
        <ele>1851</ele>
        <time>2015-12-03T10:58:11Z</time>
      </trkpt>
      <trkpt lat="42.88218" lon="-0.15554">
        <ele>1851</ele>
        <time>2015-12-03T10:58:14Z</time>
      </trkpt>
      <trkpt lat="42.88218" lon="-0.15553">
        <ele>1852</ele>
        <time>2015-12-03T10:58:17Z</time>
      </trkpt>
      <trkpt lat="42.88218" lon="-0.15554">
        <ele>1852</ele>
        <time>2015-12-03T10:58:21Z</time>
      </trkpt>
      <trkpt lat="42.88218" lon="-0.15554">
        <ele>1852</ele>
        <time>2015-12-03T10:58:23Z</time>
      </trkpt>
      <trkpt lat="42.88218" lon="-0.15554">
        <ele>1852</ele>
        <time>2015-12-03T10:58:27Z</time>
      </trkpt>
      <trkpt lat="42.88218" lon="-0.15554">
        <ele>1852</ele>
        <time>2015-12-03T10:58:30Z</time>
      </trkpt>
      <trkpt lat="42.88218" lon="-0.15554">
        <ele>1852</ele>
        <time>2015-12-03T10:58:32Z</time>
      </trkpt>
      <trkpt lat="42.88217" lon="-0.15554">
        <ele>1852</ele>
        <time>2015-12-03T10:58:35Z</time>
      </trkpt>
      <trkpt lat="42.88217" lon="-0.15553">
        <ele>1852</ele>
        <time>2015-12-03T10:58:38Z</time>
      </trkpt>
      <trkpt lat="42.88216" lon="-0.15553">
        <ele>1852</ele>
        <time>2015-12-03T10:58:41Z</time>
      </trkpt>
      <trkpt lat="42.88217" lon="-0.15553">
        <ele>1852</ele>
        <time>2015-12-03T10:58:44Z</time>
      </trkpt>
    </trkseg>
  </trk>
</gpx>